[[{"header":{"parameterUnit":"m.s-1","parameterCategory":1,"la1":31.0,"la2":29.5877,"lo1":-88.7671,"lo2":-86.6584,"dy":0.0162,"dx":0.0185,"nx":115,"ny":88,"refTime":"2025-08-17T12:00:00:Z","depth":0,"parameterNumber":2,"parameterNumberName":"U-component_of_WINDS"},"data":[0.0,0.0,0.0,0.0,0.0,0.0,0.0,0.0,0.0,0.0,0.0,0.0,0.0,0.0,0.0,0.0,0.0,0.0,0.0,0.0,0.0,0.0,0.0,0.0,0.0,0.0,0.0,0.0,0.0,0.0,0.0,0.0,0.0,0.0,0.0,0.0,0.0,0.0,0.0,0.0,0.0,0.0,0.0,0.0,0.0,0.0,0.0,0.0,0.0,0.0,0.0,0.0,0.0,0.0,0.0,0.0,0.0,0.0,0.0,0.0,0.0,0.0,0.0,0.0,0.0,0.0,0.0,0.0,0.0,0.0,0.0,0.0,0.0,0.0,0.0,0.0,0.0,0.0,0.0,0.0,0.0,0.0,0.0,0.0,0.0,0.0,0.0,0.0,0.0,0.0,0.0,0.0,0.0,0.0,0.0,0.0,0.0,0.0,0.0,0.0,0.0,0.0,0.0,0.0,0.0,0.0,0.0,0.0,0.0,0.0,0.0,0.0,0.0,0.0,0.0,0.0,0.0,0.0,0.0,0.0,0.0,0.0,0.0,0.0,0.0,0.0,0.0,0.0,0.0,0.0,0.0,0.0,0.0,0.0,0.0,0.0,0.0,0.0,0.0,0.0,0.0,0.0,0.0,0.0,0.0,0.0,0.0,0.0,0.0,0.0,0.0,0.0,0.0,0.0,0.0,0.0,0.0,0.0,0.0,0.0,0.0,0.0,0.0,0.0,0.0,0.0,0.0,0.0,0.0,0.0,0.0,0.0,0.0,0.0,0.0,0.0,0.0,0.0,0.0,0.0,0.0,0.0,0.0,0.0,0.0,0.0,0.0,0.0,0.0,0.0,0.0,0.0,0.0,0.0,0.0,0.0,0.0,0.0,0.0,0.0,0.0,0.0,0.0,0.0,0.0,0.0,0.0,0.0,0.0,0.0,0.0,0.0,0.0,0.0,0.0,0.0,0.0,0.0,0.0,0.0,0.0,0.0,0.0,0.0,0.0,0.0,0.0,0.0,0.0,0.0,0.0,0.0,0.0,0.0,0.0,0.0,0.0,0.0,0.0,0.0,0.0,0.0,0.0,0.0,0.0,0.0,0.0,0.0,0.0,0.0,0.0,0.0,0.0,0.0,0.0,0.0,0.0,0.0,0.0,0.0,0.0,0.0,0.0,0.0,0.0,0.0,0.0,0.0,0.0,0.0,0.0,0.0,0.0,0.0,0.0,0.0,0.0,0.0,0.0,0.0,0.0,0.0,0.0,0.0,0.0,0.0,0.0,0.0,0.0,0.0,0.0,0.0,0.0,0.0,0.0,0.0,0.0,0.0,0.0,0.0,0.0,0.0,0.0,0.0,0.0,0.0,0.0,0.0,0.0,0.0,0.0,0.0,0.0,0.0,0.0,0.0,0.0,0.0,0.0,0.0,0.0,0.0,0.0,0.0,0.0,0.0,0.0,0.0,0.0,0.0,0.0,0.0,0.0,0.0,0.0,0.0,0.0,0.0,0.0,0.0,0.0,0.0,0.0,0.0,0.0,0.0,0.0,0.0,0.0,0.0,0.0,0.0,0.0,0.0,0.0,0.0,0.0,0.0,0.0,0.0,0.0,0.0,0.0,0.0,0.0,0.0,0.0,0.0,0.0,0.0,0.0,0.0,0.0,0.0,0.0,0.0,0.0,0.0,0.0,0.0,0.0,0.0,0.0,0.0,0.0,0.0,0.0,0.0,0.0,0.0,0.0,0.0,0.0,0.0,0.0,0.0,0.0,0.0,0.0,0.0,0.0,0.0,0.0,0.0,0.0,0.0,0.0,0.0,0.0,0.0,0.0,0.0,0.0,0.0,0.0,0.0,0.0,0.0,0.0,0.0,0.0,0.0,0.0,0.0,0.0,0.0,0.0,0.0,0.0,0.0,0.0,0.0,0.0,0.0,0.0,0.0,0.0,0.0,0.0,0.0,0.0,0.0,0.0,0.0,0.0,0.0,0.0,0.0,0.0,0.0,0.0,0.0,0.0,0.0,0.0,0.0,0.0,0.0,0.0,0.0,0.0,0.0,0.0,0.0,0.0,0.0,0.0,0.0,0.0,0.0,0.0,0.0,0.0,0.0,0.0,0.0,0.0,0.0,0.0,0.0,0.0,0.0,0.0,0.0,0.0,0.0,0.0,0.0,0.0,0.0,0.0,0.0,0.0,0.0,0.0,0.0,0.0,0.0,0.0,0.0,0.0,0.0,0.0,0.0,0.0,0.0,0.0,0.0,0.0,0.0,0.0,0.0,0.0,0.0,0.0,0.0,0.0,0.0,0.0,0.0,0.0,0.0,0.0,0.0,0.0,0.0,0.0,0.0,0.0,0.0,0.0,0.0,0.0,0.0,0.0,0.0,0.0,0.0,0.0,0.0,0.0,0.0,0.0,0.0,0.0,0.0,0.0,0.0,0.0,0.0,0.0,0.0,0.0,0.0,0.0,0.0,0.0,0.0,0.0,0.0,0.0,0.0,0.0,0.0,0.0,0.0,0.0,0.0,0.0,0.0,0.0,0.0,0.0,0.0,0.0,0.0,0.0,0.0,0.0,0.0,0.0,0.0,0.0,0.0,0.0,0.0,0.0,0.0,0.0,0.0,0.0,0.0,0.0,0.0,0.0,0.0,0.0,0.0,0.0,0.0,0.0,0.0,0.0,0.0,0.0,0.0,0.0,0.0,0.0,0.0,0.0,0.0,0.0,0.0,0.0,0.0,0.0,0.0,0.0,0.0,0.0,0.0,0.0,0.0,0.0,0.0,0.0,0.0,0.0,0.0,0.0,0.0,0.0,0.0,0.0,0.0,0.0,0.0,0.0,0.0,0.0,0.0,0.0,0.0,0.0,0.0,0.0,0.0,0.0,0.0,0.0,0.0,0.0,0.0,0.0,0.0,0.0,0.0,0.0,0.0,0.0,0.0,0.0,0.0,0.0,0.0,0.0,0.0,0.0,0.0,0.0,0.0,0.0,0.0,0.0,0.0,0.0,0.0,0.0,0.0,0.0,0.0,0.0,0.0,0.0,0.0,0.0,0.0,0.0,0.0,0.0,0.0,0.0,0.0,0.0,0.0,0.0,0.0,0.0,0.0,0.0,0.0,0.0,0.0,0.0,0.0,0.0,0.0,0.0,0.0,0.0,0.0,0.0,0.0,0.0,0.0,0.0,0.0,0.0,0.0,0.0,0.0,0.0,0.0,0.0,0.0,0.0,0.0,0.0,0.0,0.0,0.0,0.0,0.0,0.0,0.0,0.0,0.0,0.0,0.0,0.0,0.0,0.0,0.0,0.0,0.0,0.0,0.0,0.0,0.0,0.0,0.0,0.0,0.0,0.0,0.0,0.0,0.0,0.0,0.0,0.0,0.0,0.0,0.0,0.0,0.0,0.0,0.0,0.0,0.0,0.0,0.0,0.0,0.0,0.0,0.0,0.0,0.0,0.0,0.0,0.0,0.0,0.0,0.0,0.0,0.0,0.0,0.0,0.0,0.0,0.0,0.0,0.0,0.0,0.0,0.0,0.0,0.0,0.0,0.0,0.0,0.0,0.0,0.0,0.0,0.0,0.0,0.0,0.0,0.0,0.0,0.0,0.0,0.0,0.0,0.0,0.0,0.0,0.0,0.0,0.0,0.0,0.0,0.0,0.0,0.0,0.0,0.0,0.0,0.0,0.0,0.0,0.0,0.0,0.0,0.0,0.0,0.0,0.0,0.0,0.0,0.0,0.0,0.0,0.0,0.0,0.0,0.0,0.0,0.0,0.0,0.0,0.0,0.0,0.0,0.0,0.0,0.0,0.0,0.0,0.0,0.0,0.0,0.0,0.0,0.0,0.0,0.0,0.0,0.0,0.0,0.0,0.0,0.0,0.0,0.0,0.0,0.0,0.0,0.0,0.0,0.0,0.0,0.0,0.0,0.0,0.0,0.0,0.0,0.0,0.0,0.0,0.0,0.0,0.0,0.0,0.0,0.0,0.0,0.0,0.0,0.0,0.0,0.0,0.0,0.0,0.0,0.0,0.0,0.0,0.0,0.0,0.0,0.0,0.0,0.0,0.0,0.0,0.0,0.0,0.0,0.0,0.0,0.0,0.0,0.0,0.0,0.0,0.0,0.0,0.0,0.0,0.0,0.0,0.0,0.0,0.0,0.0,0.0,0.0,0.0,0.0,0.0,0.0,0.0,0.0,0.0,0.0,0.0,0.0,0.0,0.0,0.0,0.0,0.0,0.0,0.0,0.0,0.0,0.0,0.0,0.0,0.0,0.0,0.0,0.0,0.5033,0.0,0.0,0.0,0.0,0.0,0.0,0.0,0.0,0.0,0.0,0.0,0.0,0.0,0.0,0.0,0.0,0.0,0.0,0.0,0.0,0.0,0.0,0.0,0.0,0.0,0.0,0.0,0.0,0.0,0.0,0.0,0.0,0.0,0.0,0.0,0.0,0.0,0.0,0.0,0.0,0.0,0.0,0.0,0.0,0.0,0.0,0.0,0.0,0.0,0.0,0.0,0.0,0.0,0.0,0.0,0.0,0.0,0.0,0.0,0.0,0.0,0.0,0.0,0.0,0.0,0.0,0.0,0.0,0.0,0.0,0.0,0.0,0.0,0.0,0.0,0.0,0.0,0.0,0.0,0.0,0.0,0.0,0.0,0.0,0.0,0.0,0.0,0.0,0.0,0.0,0.0,0.0,0.0,0.0,0.0,0.0,0.0,0.0,0.0,0.0,0.0,0.0,0.0,0.0,0.0,0.0,0.0,0.0,0.0,0.0,-0.1236,0.0352,0.1678,0.2527,0.2873,0.0,0.0,0.0,0.0,0.0,0.0,0.0,0.0,0.0,0.0,0.0,0.0,0.0,0.0,0.0,0.0,0.0,0.0,0.0,0.0,0.0,0.0,0.0,0.0,0.0,0.0,0.0,0.0,0.0,0.0,0.0,0.0,0.0,0.0,0.0,0.0,0.0,0.0,0.0,0.0,0.0,0.0,0.0,0.0,0.0,0.0,0.0,0.0,0.0,0.0,0.0,0.0,0.0,0.0,0.0,0.0,0.0,0.0,0.0,0.0,0.0,0.0,0.0,0.0,0.0,0.0,0.0,0.0,0.0,0.0,0.0,0.0,0.0,0.0,0.0,0.0,0.0,0.0,0.0,0.0,0.0,0.0,0.0,0.0,0.0,0.0,0.0,0.0,0.0,0.0,0.0,0.0,0.0,0.0,0.0,0.0,0.0,0.0,0.0,0.0,0.0,0.0,0.0,0.0,0.0,0.0,0.0,0.0,0.0,0.0,0.0,0.0,-0.0639,0.0042,0.0712,0.0,0.0,0.0,0.0,0.0,0.0,0.0,0.0,0.0,0.0,0.0,0.0,0.0,0.0,0.0,0.0,0.0,0.0,0.0,0.0,0.0,0.0,0.0,0.0,0.0,0.0,0.0,0.0,0.0,0.0,0.0,0.0,0.0,0.0,0.0,0.0,0.0,0.0,0.0,0.0,0.0,0.0,0.0,0.0,0.0,0.0,0.0,0.0,0.0,0.0,0.0,0.0,0.0,0.0,0.0,0.0,0.0,0.0,0.0,0.0,0.0,0.0,0.0,0.0,0.0,0.0,0.0,0.0,0.0,0.0,0.0,0.0,0.0,0.0,0.0,0.0,0.0,0.0,0.0,0.0,0.0,0.0,0.0,0.0,0.0,0.0,0.0,0.0,0.0,0.0,0.0,0.0,0.0,0.0,0.0,0.0,0.0,0.0,0.0,0.0,0.0,0.0,0.0,0.0,0.0,0.0,0.0,0.0,0.0,0.0,-0.4231,-0.344,-0.2832,0.0,-0.0914,0.0,0.0,0.0,0.0,0.0,0.0,0.0,0.0,0.0,0.0,0.0,0.0,0.0,0.0,0.0,0.0,0.0,0.0,0.0,0.0,0.0,0.0,0.0,0.0,0.0,0.0,0.0,0.0,0.0,0.0,0.0,0.0,0.0,0.0,0.0,0.0,0.0,0.0,0.0,0.0,0.0,0.0,0.0,0.0,0.0,0.0,0.0,0.0,0.0,0.0,0.0,0.0,0.0,0.0,0.0,0.0,0.0,0.0,0.0,0.0,0.0,0.0,0.0,0.0,0.0,0.0,0.0,0.0,0.0,0.0,0.0,0.0,0.0,0.0,0.0,0.0,0.0,0.0,0.0,0.0,0.0,0.0,0.0,0.0,0.0,0.0,0.0,0.0,0.0,0.0,0.0,0.0,0.0,0.0,0.0,0.0,0.0,0.0,0.0,0.0,0.0,0.0,0.0,0.0,0.0,0.0,0.0,0.0,0.0,0.0,-0.606,-0.5609,-0.4868,-0.4164,0.0,0.0,0.0,0.0,0.0,0.0,0.0,0.0,0.0,0.0,0.0,0.0,0.0,0.0,0.0,0.0,0.0,0.0,0.0,0.0,0.0,0.0,0.0,0.0,0.0,0.0,0.0,0.0,0.0,0.0,0.0,0.0,0.0,0.0,0.0,0.0,0.0,0.0,0.0,0.0,0.0,0.0,0.0,0.0,0.0,0.0,0.0,0.0,0.0,0.0,0.0,0.0,0.0,0.0,0.0,0.0,0.0,0.0,0.0,0.0,0.0,0.0,0.0,0.0,0.0,0.0,0.0,0.0,0.0,0.0,0.0,0.0,0.0,0.0,0.0,0.0,0.0,0.0,0.0,0.0,0.0,0.0,0.0,0.0,0.0,0.0,0.0,0.0,0.0,0.0,0.0,0.0,0.0,0.0,0.0,0.0,0.0,0.0,0.0,0.0,0.0,0.0,0.0,0.0,0.0,0.0,0.0,0.0,0.0,0.0,-0.8447,0.0,-0.779,-0.7157,-0.6657,-0.6314,0.0,0.0,0.0,0.0,0.0,0.0,0.0,0.0,0.0,0.0,0.0,0.0,0.0,0.0,0.0,0.0,0.0,0.0,0.0,0.0,0.0,0.0,0.0,0.0,0.0,0.0,0.0,0.0,0.0,0.0,0.0,0.0,0.0,0.0,0.0,0.0,0.0,0.0,0.0,0.0,0.0,0.0,0.0,0.0,0.0,0.0,0.0,0.0,0.0,0.0,0.0,0.0,0.0,0.0,0.0,0.0,0.0,0.0,0.0,0.0,0.0,0.0,0.0,0.0,0.0,0.0,0.0,0.0,0.0,0.0,0.0,0.0,0.0,0.0,0.0,0.0,0.0,0.0,0.0,0.0,0.0,0.0,0.0,0.0,0.0,0.0,0.0,0.0,0.0,0.0,0.0,0.0,0.0,0.0,0.0,0.0,0.0,0.0,0.0,0.0,0.0,0.0,0.0,0.0,0.0,0.0,0.0,0.0,0.0,-1.043,-1.0145,-1.0076,-0.9889,-0.9663,0.0,0.0,0.0,0.0,0.0,0.0,0.0,0.0,0.0,0.0,0.0,0.0,0.0,0.0,0.0,0.0,0.0,0.0,0.0,0.0,0.0,0.0,0.0,0.0,0.0,0.0,0.0,0.0,0.0,0.0,0.0,0.0,0.0,0.0,0.0,0.0,0.0,0.0,0.0,0.0,0.0,0.0,0.0,0.0,0.0,0.0,0.0,0.0,0.0,0.0,0.0,0.0,0.0,0.0,0.0,0.0,0.0,0.0,0.0,0.0,0.0,0.0,0.0,0.0,0.0,0.0,0.0,0.0,0.0,0.0,0.0,0.0,0.0,0.0,0.0,0.0,0.0,0.0,0.0,0.0,0.0,0.0,0.0,0.0,0.0,0.0,0.0,0.0,0.0,0.0,0.0,0.0,0.0,0.0,0.0,0.0,0.0,0.0,0.0,0.0,0.0,0.0,0.0,0.0,0.0,0.0,0.0,0.0,0.0,-1.2881,-1.2528,-1.2406,-1.2508,-1.2411,-1.2224,0.0,0.0,0.0,0.0,0.0,0.0,0.0,0.0,0.0,0.0,0.0,0.0,0.0,0.0,0.0,0.0,0.0,0.0,0.0,0.0,0.0,0.0,0.0,0.0,0.0,0.0,0.0,0.0,0.0,0.0,0.0,0.0,0.0,0.0,0.0,0.0,0.0,0.0,0.0,0.0,0.0,0.0,0.0,0.0,0.0,0.0,0.0,0.0,0.0,0.0,0.0,0.0,0.0,0.0,0.0,0.0,0.0,0.0,0.0,0.0,0.0,0.0,0.0,0.0,0.0,0.0,0.0,0.0,0.0,0.0,0.0,0.0,0.0,0.0,0.0,0.0,0.0,0.0,0.0,0.0,0.0,0.0,0.0,0.0,0.0,0.0,0.0,0.0,0.0,0.0,0.0,0.0,0.0,0.0,0.0,0.0,0.0,0.0,0.0,0.0,0.0,0.0,0.0,0.0,0.0,0.0,0.0,0.0,0.0,-1.5016,0.0,-1.5098,0.0,-1.5175,-1.4896,0.0,0.0,0.0,0.0,0.0,0.0,0.0,0.0,0.0,0.0,0.0,0.0,0.0,0.0,0.0,0.0,0.0,0.0,0.0,0.0,0.0,0.0,0.0,0.0,0.0,0.0,0.0,0.0,0.0,0.0,0.0,0.0,0.0,0.0,0.0,0.0,0.0,0.0,0.0,0.0,0.0,0.0,0.0,0.0,0.0,0.0,0.0,0.0,0.0,0.0,0.0,0.0,0.0,0.0,0.0,0.0,0.0,0.0,0.0,0.0,0.0,0.0,0.0,0.0,0.0,0.0,0.0,0.0,0.0,0.0,0.0,0.0,0.0,0.0,0.0,0.0,0.0,0.0,0.0,0.0,0.0,0.0,0.0,0.0,0.0,0.0,0.0,0.0,0.0,0.0,0.0,0.0,0.0,0.0,0.0,0.0,0.0,0.0,0.0,0.0,0.0,0.0,0.0,0.0,0.0,0.0,0.0,0.0,-1.7372,-1.7364,-1.8069,-1.8211,-1.7856,-1.8158,-1.7593,0.0,0.0,0.0,0.0,0.0,0.0,0.0,0.0,0.0,0.0,0.0,0.0,0.0,0.0,0.0,0.0,0.0,0.0,0.0,0.0,0.0,0.0,0.0,0.0,0.0,0.0,0.0,0.0,0.0,0.0,0.0,0.0,0.0,0.0,0.0,0.0,0.0,0.0,0.0,0.0,0.0,0.0,0.0,0.0,0.0,0.0,0.0,0.0,0.0,0.0,0.0,0.0,0.0,0.0,0.0,0.0,0.0,0.0,0.0,0.0,0.0,0.0,0.0,0.0,0.0,0.0,0.0,0.0,0.0,0.0,0.0,0.0,0.0,0.0,0.0,0.0,0.0,0.0,0.0,0.0,0.0,0.0,0.0,0.0,0.0,0.0,0.0,0.0,0.0,0.0,0.0,0.0,0.0,0.0,0.0,0.0,0.0,0.0,0.0,0.0,0.0,0.0,0.0,0.0,0.0,0.0,0.0,0.0,0.0,-1.9835,-2.0035,-2.0174,-2.0206,-1.9958,-1.9399,0.0,0.0,0.0,0.0,0.0,0.0,0.0,0.0,0.0,0.0,0.0,0.0,0.0,0.0,0.0,0.0,0.0,0.0,0.0,0.0,0.0,0.0,0.0,0.0,0.0,0.0,0.0,0.0,0.0,0.0,0.0,0.0,0.0,0.0,0.0,0.0,0.0,0.0,0.0,0.0,0.0,0.0,0.0,0.0,0.0,0.0,0.0,0.0,0.0,0.0,0.0,0.0,0.0,0.0,0.0,0.0,0.0,0.0,0.0,0.0,0.0,0.0,0.0,0.0,0.0,0.0,0.0,0.0,0.0,0.0,0.0,0.0,0.0,0.0,0.0,0.0,0.0,0.0,0.0,0.0,0.0,0.0,0.0,0.0,0.0,0.0,0.0,0.0,0.0,0.0,0.0,0.0,0.0,0.0,0.0,0.0,0.0,0.0,0.0,0.0,0.0,0.0,0.0,0.0,0.0,0.0,0.0,0.0,0.0,-2.3567,-2.3637,-2.3643,-2.358,-2.2983,-2.1861,-2.0201,0.0,0.0,0.0,0.0,0.0,0.0,0.0,0.0,0.0,0.0,0.0,0.0,0.0,0.0,0.0,0.0,0.0,0.0,0.0,0.0,0.0,0.0,0.0,0.0,0.0,0.0,0.0,0.0,0.0,0.0,0.0,0.0,0.0,0.0,0.0,0.0,0.0,0.0,0.0,0.0,0.0,0.0,0.0,0.0,0.0,0.0,0.0,0.0,0.0,0.0,0.0,0.0,0.0,0.0,0.0,0.0,0.0,0.0,0.0,0.0,0.0,0.0,0.0,0.0,0.0,0.0,0.0,0.0,0.0,0.0,0.0,0.0,0.0,0.0,0.0,0.0,0.0,0.0,0.0,0.0,0.0,0.0,0.0,0.0,0.0,0.0,0.0,0.0,0.0,0.0,0.0,0.0,0.0,0.0,0.0,0.0,0.0,0.0,0.0,0.0,0.0,0.0,0.0,0.0,0.0,0.0,0.0,0.0,-2.8097,-2.8523,-2.8342,-2.7549,-2.6706,-2.4766,0.0,0.0,0.0,0.0,0.0,0.0,0.0,0.0,0.0,0.0,0.0,0.0,0.0,0.0,0.0,0.0,0.0,0.0,0.0,0.0,0.0,0.0,0.0,0.0,0.0,0.0,0.0,0.0,0.0,0.0,0.0,0.0,0.0,0.0,0.0,0.0,0.0,0.0,0.0,0.0,0.0,0.0,0.0,0.0,0.0,0.0,0.0,0.0,0.0,0.0,0.0,0.0,0.0,0.0,0.0,0.0,0.0,0.0,0.0,0.0,0.0,0.0,0.0,0.0,0.0,0.0,0.0,0.0,0.0,0.0,0.0,0.0,0.0,0.0,0.0,0.0,0.0,0.0,0.0,0.0,0.0,0.0,0.0,0.0,0.0,0.0,0.0,0.0,0.0,0.0,0.0,0.0,0.0,0.0,0.0,0.0,0.0,0.0,0.0,0.0,0.0,0.0,0.0,0.0,0.0,0.0,0.0,0.0,0.0,-3.0864,-3.2164,-3.1826,-2.9745,-2.7621,-2.5906,0.0,0.0,0.0,0.0,0.0,0.0,0.0,0.0,0.0,0.0,0.0,0.0,0.0,0.0,0.0,0.0,0.0,0.0,0.0,0.0,0.0,0.0,0.0,0.0,0.0,0.0,0.0,0.0,0.0,0.0,0.0,0.0,0.0,0.0,0.0,0.0,0.0,0.0,0.0,0.0,0.0,0.0,0.0,0.0,0.0,0.0,0.0,0.0,0.0,0.0,0.0,0.0,0.0,0.0,0.0,0.0,0.0,0.0,0.0,0.0,0.0,0.0,0.0,0.0,0.0,0.0,0.0,0.0,0.0,0.0,0.0,0.0,0.0,0.0,0.0,0.0,0.0,0.0,0.0,0.0,0.0,0.0,0.0,0.0,0.0,0.0,0.0,0.0,0.0,0.0,0.0,0.0,0.0,0.0,0.0,0.0,0.0,0.0,0.0,0.0,0.0,0.0,0.0,0.0,0.0,0.0,0.0,0.0,-2.9958,-3.1806,-3.3816,-3.4046,-3.2343,-2.9858,-2.7797,0.0,0.0,0.0,0.0,0.0,0.0,0.0,0.0,0.0,0.0,0.0,0.0,0.0,0.0,0.0,0.0,0.0,0.0,0.0,0.0,0.0,0.0,0.0,0.0,0.0,0.0,0.0,0.0,0.0,0.0,0.0,0.0,0.0,0.0,0.0,0.0,0.0,0.0,0.0,0.0,0.0,0.0,0.0,0.0,0.0,0.0,0.0,0.0,0.0,0.0,0.0,0.0,0.0,0.0,0.0,0.0,0.0,0.0,0.0,0.0,0.0,0.0,0.0,0.0,0.0,0.0,0.0,0.0,0.0,0.0,0.0,0.0,0.0,0.0,0.0,0.0,0.0,0.0,0.0,0.0,0.0,0.0,0.0,0.0,0.0,0.0,0.0,0.0,0.0,0.0,0.0,0.0,0.0,0.0,0.0,0.0,0.0,0.0,0.0,0.0,0.0,0.0,0.0,0.0,0.0,0.0,0.0,0.0,-3.0904,-3.1879,-3.4216,-3.5232,-3.4746,-3.2444,-2.9869,0.0,0.0,0.0,0.0,0.0,0.0,0.0,0.0,0.0,0.0,0.0,0.0,0.0,0.0,0.0,0.0,0.0,0.0,0.0,0.0,0.0,0.0,0.0,0.0,0.0,0.0,0.0,0.0,0.0,0.0,0.0,0.0,0.0,0.0,0.0,0.0,0.0,0.0,0.0,0.0,0.0,0.0,0.0,0.0,0.0,0.0,0.0,0.0,0.0,0.0,0.0,0.0,0.0,0.0,0.0,0.0,0.0,0.0,0.0,0.0,0.0,0.0,0.0,0.0,0.0,0.0,0.0,0.0,0.0,0.0,0.0,0.0,0.0,0.0,0.0,0.0,0.0,0.0,0.0,0.0,0.0,0.0,0.0,0.0,0.0,0.0,0.0,0.0,0.0,0.0,0.0,0.0,0.0,0.0,0.0,0.0,0.0,0.0,0.0,0.0,0.0,0.0,0.0,0.0,0.0,0.0,0.0,0.0,-3.127,-3.3595,-3.4652,-3.5056,-3.4794,-3.2315,-3.0104,0.0,0.0,0.0,0.0,0.0,0.0,0.0,0.0,0.0,0.0,0.0,0.0,0.0,0.0,0.0,0.0,0.0,0.0,0.0,0.0,0.0,0.0,0.0,0.0,0.0,0.0,0.0,0.0,0.0,0.0,0.0,0.0,0.0,0.0,0.0,0.0,0.0,0.0,0.0,0.0,0.0,0.0,0.0,0.0,0.0,0.0,0.0,0.0,-2.2368,0.0,0.0,0.0,0.0,0.0,0.0,0.0,0.0,0.0,0.0,0.0,0.0,0.0,0.0,0.0,0.0,0.0,0.0,0.0,0.0,0.0,0.0,0.0,0.0,0.0,0.0,0.0,0.0,0.0,0.0,0.0,0.0,0.0,0.0,0.0,0.0,0.0,0.0,0.0,0.0,0.0,0.0,0.0,0.0,0.0,0.0,0.0,0.0,0.0,0.0,0.0,0.0,0.0,0.0,0.0,0.0,0.0,0.0,0.0,-3.1676,-3.3928,-3.4672,-3.469,-3.3989,-3.2566,-3.0824,0.0,0.0,0.0,0.0,0.0,0.0,0.0,0.0,0.0,0.0,0.0,0.0,0.0,0.0,0.0,0.0,0.0,0.0,0.0,0.0,0.0,0.0,0.0,0.0,0.0,0.0,0.0,0.0,0.0,0.0,0.0,0.0,0.0,0.0,0.0,0.0,0.0,0.0,0.0,0.0,0.0,0.0,0.0,0.0,0.0,0.0,0.0,0.0,0.0,0.0,0.0,0.0,0.0,0.0,0.0,0.0,0.0,0.0,0.0,0.0,0.0,0.0,0.0,0.0,0.0,0.0,0.0,0.0,0.0,0.0,0.0,0.0,0.0,0.0,0.0,0.0,0.0,0.0,0.0,0.0,0.0,0.0,0.0,0.0,0.0,0.0,0.0,0.0,0.0,0.0,0.0,0.0,0.0,0.0,0.0,0.0,0.0,0.0,0.0,0.0,0.0,0.0,0.0,0.0,0.0,0.0,0.0,-3.0151,-3.2072,-3.3908,-3.4565,-3.4288,-3.3138,-3.2843,-3.1419,-2.8725,0.0,0.0,0.0,0.0,0.0,0.0,0.0,0.0,0.0,0.0,0.0,0.0,0.0,0.0,0.0,0.0,0.0,0.0,0.0,0.0,0.0,0.0,0.0,0.0,0.0,0.0,0.0,0.0,0.0,0.0,0.0,0.0,0.0,0.0,0.0,0.0,0.0,0.0,-1.2084,-1.7378,0.0,0.0,0.0,0.0,0.0,0.0,0.0,0.0,-2.7864,0.0,0.0,0.0,0.0,0.0,0.0,0.0,0.0,0.0,0.0,0.0,0.0,0.0,0.0,0.0,0.0,0.0,0.0,0.0,0.0,0.0,0.0,0.0,0.0,0.0,0.0,0.0,0.0,0.0,0.0,0.0,0.0,0.0,0.0,0.0,0.0,0.0,0.0,0.0,0.0,0.0,0.0,0.0,0.0,0.0,0.0,0.0,0.0,0.0,0.0,0.0,0.0,0.0,0.0,0.0,0.0,-2.9017,-3.033,-3.2231,-3.4802,-3.4726,-3.4156,-3.3126,-3.2463,-3.0849,-2.8164,0.0,0.0,0.0,0.0,0.0,0.0,0.0,0.0,0.0,0.0,0.0,0.0,0.0,0.0,0.0,0.0,0.0,0.0,0.0,0.0,0.0,0.0,0.0,0.0,0.0,0.0,0.0,0.0,0.0,0.0,0.0,0.0,0.0,0.0,0.0,0.0,0.0,0.0,0.0,-2.1706,-2.4563,0.0,0.0,0.0,0.0,0.0,0.0,0.0,0.0,-2.7867,0.0,0.0,0.0,0.0,0.0,0.0,0.0,0.0,0.0,0.0,0.0,0.0,0.0,0.0,0.0,0.0,0.0,0.0,0.0,0.0,0.0,0.0,0.0,0.0,0.0,0.0,0.0,0.0,0.0,0.0,0.0,0.0,0.0,0.0,0.0,0.0,0.0,0.0,0.0,0.0,0.0,0.0,0.0,0.0,0.0,0.0,0.0,0.0,0.0,0.0,0.0,0.0,0.0,0.0,0.0,-2.9277,-3.0857,-3.2694,-3.493,-3.4691,-3.3852,-3.2575,-3.2516,-3.0956,0.0,0.0,0.0,0.0,0.0,0.0,0.0,0.0,0.0,0.0,0.0,0.0,0.0,0.0,0.0,0.0,0.0,0.0,0.0,0.0,0.0,0.0,0.0,0.0,0.0,0.0,0.0,0.0,0.0,0.0,0.0,0.0,0.0,0.0,0.0,0.0,0.0,0.0,0.0,0.0,-2.4255,-2.6834,-2.8968,0.0,0.0,0.0,0.0,0.0,0.0,-3.0068,-2.9562,0.0,0.0,0.0,0.0,0.0,0.0,0.0,0.0,0.0,0.0,0.0,0.0,0.0,0.0,0.0,0.0,0.0,0.0,0.0,0.0,0.0,0.0,0.0,0.0,0.0,0.0,0.0,0.0,0.0,0.0,0.0,0.0,0.0,0.0,0.0,0.0,0.0,0.0,0.0,0.0,0.0,0.0,0.0,0.0,0.0,0.0,0.0,0.0,0.0,0.0,0.0,0.0,0.0,0.0,0.0,-2.9506,-3.1364,-3.3138,-3.4887,-3.4641,-3.3665,-3.2088,-3.2542,-3.1036,0.0,0.0,0.0,0.0,0.0,0.0,0.0,0.0,0.0,0.0,0.0,0.0,0.0,0.0,0.0,0.0,0.0,0.0,0.0,0.0,0.0,0.0,0.0,0.0,0.0,0.0,0.0,0.0,0.0,0.0,0.0,0.0,0.0,0.0,0.0,0.0,0.0,0.0,0.0,0.0,0.0,-2.8628,-3.0575,-3.1047,0.0,0.0,0.0,0.0,-3.1462,-3.1452,0.0,0.0,0.0,0.0,0.0,0.0,0.0,0.0,0.0,0.0,0.0,0.0,0.0,0.0,0.0,0.0,0.0,0.0,0.0,0.0,0.0,0.0,0.0,0.0,0.0,0.0,0.0,0.0,0.0,0.0,0.0,0.0,0.0,0.0,0.0,0.0,0.0,0.0,0.0,0.0,0.0,0.0,0.0,0.0,0.0,0.0,0.0,0.0,0.0,0.0,0.0,0.0,0.0,0.0,0.0,0.0,-2.9583,-3.1536,-3.3267,-3.4804,-3.4753,-3.3817,-3.208,-3.2133,-3.063,0.0,0.0,0.0,0.0,0.0,0.0,0.0,0.0,0.0,0.0,0.0,0.0,0.0,0.0,0.0,0.0,0.0,0.0,0.0,0.0,0.0,0.0,0.0,0.0,0.0,0.0,0.0,0.0,0.0,0.0,0.0,0.0,0.0,0.0,0.0,0.0,0.0,0.0,0.0,0.0,0.0,-2.9623,-3.1483,-3.2381,-3.2761,0.0,0.0,-3.2349,-3.2953,-3.2393,0.0,0.0,0.0,0.0,0.0,0.0,0.0,0.0,0.0,0.0,0.0,0.0,0.0,0.0,0.0,0.0,0.0,0.0,0.0,0.0,0.0,0.0,0.0,0.0,0.0,0.0,0.0,0.0,0.0,0.0,0.0,0.0,0.0,0.0,0.0,0.0,0.0,0.0,0.0,0.0,0.0,0.0,0.0,0.0,0.0,0.0,0.0,0.0,0.0,0.0,0.0,0.0,0.0,0.0,0.0,-2.6217,-2.9025,-3.133,-3.3061,-3.4229,-3.4624,-3.3988,-3.2269,-3.2251,-3.0721,0.0,0.0,0.0,0.0,0.0,0.0,0.0,0.0,0.0,0.0,0.0,0.0,0.0,0.0,0.0,0.0,0.0,0.0,0.0,0.0,0.0,0.0,0.0,0.0,0.0,0.0,0.0,0.0,0.0,0.0,0.0,0.0,0.0,0.0,0.0,0.0,0.0,0.0,0.0,0.0,0.0,0.0,-3.2349,-3.3271,0.0,0.0,0.0,-3.3013,-3.3149,0.0,0.0,0.0,0.0,0.0,0.0,0.0,0.0,0.0,0.0,0.0,0.0,0.0,0.0,0.0,0.0,0.0,0.0,0.0,0.0,0.0,0.0,0.0,0.0,0.0,0.0,0.0,0.0,0.0,0.0,0.0,0.0,0.0,0.0,0.0,0.0,0.0,0.0,0.0,0.0,0.0,0.0,0.0,0.0,0.0,0.0,0.0,0.0,0.0,0.0,0.0,0.0,0.0,0.0,0.0,0.0,0.0,-2.8658,-3.1043,-3.2656,-3.3451,-3.4013,-3.3608,-3.2115,-3.2074,0.0,0.0,0.0,0.0,0.0,0.0,0.0,0.0,0.0,0.0,0.0,0.0,0.0,0.0,0.0,0.0,0.0,0.0,0.0,0.0,0.0,0.0,0.0,0.0,0.0,0.0,0.0,-1.8,0.0,0.0,0.0,0.0,0.0,0.0,0.0,0.0,0.0,0.0,0.0,0.0,0.0,0.0,-3.1522,-3.2909,-3.3925,-3.4415,0.0,0.0,-3.3267,-3.3055,-3.2258,-3.1582,0.0,0.0,0.0,0.0,0.0,0.0,0.0,0.0,0.0,0.0,0.0,0.0,0.0,0.0,0.0,0.0,0.0,0.0,0.0,0.0,0.0,0.0,0.0,0.0,0.0,0.0,0.0,0.0,0.0,0.0,0.0,0.0,0.0,0.0,0.0,0.0,0.0,0.0,0.0,0.0,0.0,0.0,0.0,0.0,0.0,0.0,0.0,0.0,0.0,0.0,0.0,0.0,0.0,0.0,0.0,-2.8776,-3.0669,-3.1976,-3.256,-3.2695,-3.2216,-3.1134,-3.1216,-3.0137,0.0,0.0,0.0,0.0,0.0,0.0,0.0,0.0,0.0,0.0,0.0,0.0,0.0,0.0,0.0,0.0,0.0,0.0,0.0,0.0,0.0,0.0,0.0,0.0,0.0,0.0,0.0,0.0,0.0,0.0,0.0,0.0,0.0,0.0,0.0,0.0,0.0,0.0,0.0,0.0,0.0,-3.2202,-3.2993,-3.4325,-3.5105,0.0,0.0,-3.3048,-3.2847,-3.2047,-3.1207,-3.0607,0.0,0.0,0.0,0.0,0.0,0.0,0.0,0.0,0.0,0.0,0.0,0.0,0.0,0.0,0.0,0.0,0.0,0.0,0.0,0.0,0.0,0.0,0.0,0.0,0.0,0.0,0.0,0.0,0.0,0.0,0.0,0.0,0.0,0.0,0.0,0.0,0.0,0.0,0.0,0.0,0.0,0.0,0.0,0.0,0.0,0.0,0.0,0.0,0.0,0.0,0.0,0.0,0.0,-2.7253,-2.8091,-3.0401,-3.1712,-3.1894,-3.2423,-3.2304,-3.1389,-3.1422,-3.0284,0.0,0.0,0.0,0.0,0.0,0.0,0.0,0.0,0.0,0.0,0.0,0.0,0.0,0.0,0.0,0.0,0.0,0.0,0.0,0.0,0.0,0.0,0.0,0.0,0.0,0.0,0.0,0.0,-2.3225,-2.3551,-2.3443,0.0,0.0,0.0,0.0,0.0,0.0,0.0,0.0,0.0,0.0,-3.14,-3.2154,-3.3428,0.0,0.0,-3.3392,-3.2919,-3.276,-3.1575,-3.0595,-3.0383,-2.9274,0.0,0.0,0.0,0.0,0.0,0.0,0.0,0.0,0.0,0.0,0.0,0.0,0.0,0.0,0.0,0.0,0.0,0.0,0.0,0.0,0.0,0.0,0.0,0.0,0.0,0.0,0.0,0.0,0.0,0.0,0.0,0.0,0.0,0.0,0.0,0.0,0.0,0.0,0.0,0.0,0.0,0.0,0.0,0.0,0.0,0.0,0.0,0.0,0.0,0.0,0.0,0.0,-2.7535,-2.7625,-3.0016,-3.12,-3.1113,-3.1703,-3.1775,-3.1232,-3.097,-2.9883,0.0,0.0,0.0,0.0,0.0,0.0,0.0,0.0,0.0,0.0,0.0,0.0,0.0,0.0,0.0,0.0,0.0,0.0,0.0,0.0,0.0,0.0,0.0,0.0,0.0,0.0,0.0,0.0,-2.4196,-2.4197,-2.4018,0.0,0.0,0.0,0.0,0.0,0.0,0.0,0.0,0.0,0.0,-3.1115,-3.1593,-3.2627,-3.3304,-3.3042,-3.2571,-3.2184,-3.2047,-3.0796,-2.989,-2.9936,0.0,0.0,0.0,0.0,0.0,0.0,0.0,0.0,0.0,0.0,0.0,0.0,0.0,0.0,0.0,0.0,0.0,0.0,0.0,0.0,0.0,0.0,0.0,0.0,0.0,0.0,0.0,0.0,0.0,0.0,0.0,0.0,0.0,0.0,0.0,0.0,0.0,0.0,0.0,0.0,0.0,0.0,0.0,0.0,0.0,0.0,0.0,0.0,0.0,0.0,0.0,0.0,0.0,-2.7704,-2.7701,-2.9517,-3.0377,-3.0237,-3.0258,-3.0311,-3.0292,-2.9575,-2.8779,-2.7942,0.0,0.0,0.0,0.0,0.0,0.0,0.0,0.0,0.0,0.0,0.0,0.0,0.0,0.0,0.0,0.0,0.0,0.0,0.0,0.0,0.0,0.0,0.0,0.0,0.0,0.0,-2.4212,-2.4609,-2.4643,0.0,0.0,0.0,0.0,0.0,0.0,0.0,0.0,0.0,0.0,-3.075,-3.1699,-3.152,-3.2132,-3.2482,-3.2164,-3.1364,-3.0682,-3.0531,-2.9742,-2.9126,0.0,0.0,0.0,0.0,0.0,0.0,0.0,0.0,0.0,0.0,0.0,0.0,0.0,0.0,0.0,0.0,0.0,0.0,0.0,0.0,0.0,0.0,0.0,0.0,0.0,0.0,0.0,0.0,-2.7934,0.0,0.0,0.0,0.0,0.0,0.0,0.0,0.0,0.0,0.0,0.0,-2.8594,-2.8443,0.0,0.0,0.0,0.0,0.0,0.0,0.0,0.0,0.0,0.0,0.0,0.0,-2.7769,-2.7846,-2.9495,-3.0044,-2.9363,-2.9905,-2.9716,-2.8695,-2.9461,-2.9443,-2.8459,0.0,0.0,0.0,0.0,0.0,0.0,0.0,0.0,0.0,0.0,0.0,0.0,0.0,0.0,0.0,0.0,0.0,0.0,0.0,0.0,0.0,0.0,0.0,0.0,0.0,-2.4396,0.0,0.0,0.0,0.0,0.0,0.0,0.0,0.0,0.0,0.0,0.0,-2.9874,-3.0153,-3.1043,-3.142,-3.0778,-3.1173,-3.1491,0.0,0.0,0.0,0.0,0.0,0.0,0.0,0.0,0.0,0.0,0.0,0.0,0.0,0.0,-2.7798,-2.7946,-2.8287,-2.8743,-2.932,0.0,0.0,0.0,0.0,0.0,0.0,0.0,0.0,0.0,0.0,0.0,0.0,0.0,0.0,0.0,0.0,-3.0973,0.0,0.0,0.0,0.0,0.0,0.0,0.0,0.0,-3.148,-3.1569,-3.1313,-3.1166,-3.0586,0.0,-2.9127,-2.7354,0.0,0.0,0.0,0.0,0.0,0.0,0.0,0.0,-2.7913,-2.8297,-2.9604,-2.9868,-2.9021,-2.9466,-2.9129,-2.7877,-2.8892,-2.8945,-2.7861,-2.6553,-2.5615,0.0,0.0,0.0,0.0,0.0,0.0,0.0,0.0,0.0,0.0,0.0,0.0,0.0,0.0,0.0,0.0,0.0,0.0,0.0,0.0,0.0,0.0,0.0,-2.5197,0.0,0.0,0.0,0.0,0.0,0.0,0.0,0.0,0.0,-2.9913,-3.0785,-3.1409,-3.1366,-3.1492,-3.1328,-3.0743,0.0,0.0,0.0,0.0,0.0,0.0,0.0,-2.9251,-2.9211,-2.9089,-2.894,-2.8779,-2.883,-2.8698,-2.8213,0.0,0.0,-2.8712,-2.9038,-2.9587,-3.042,-3.0683,-3.0732,-3.077,-3.106,-3.1269,0.0,0.0,0.0,0.0,0.0,0.0,0.0,0.0,-3.0397,-3.1263,0.0,-3.3729,0.0,0.0,0.0,0.0,0.0,0.0,0.0,0.0,-3.3964,-3.3853,-3.2852,-3.2803,-3.1965,-3.0441,-3.0261,-2.9439,-2.7969,-2.6998,0.0,0.0,0.0,0.0,0.0,0.0,-2.8122,-2.905,-2.9813,-2.98,-2.8982,-2.8945,-2.8575,-2.7896,-2.7857,-2.7409,-2.6428,-2.7018,-2.6911,-2.5908,-2.5061,0.0,0.0,0.0,0.0,0.0,0.0,0.0,0.0,0.0,0.0,0.0,0.0,0.0,0.0,0.0,0.0,0.0,0.0,0.0,0.0,-2.5696,0.0,0.0,0.0,0.0,0.0,0.0,0.0,0.0,0.0,0.0,-3.069,-3.2027,-3.297,-3.2781,0.0,0.0,0.0,0.0,-2.9967,-2.9853,-2.9756,-2.9692,-2.9636,-2.9417,-2.932,-2.9438,0.0,0.0,-2.8585,-2.9004,-2.9091,-2.8227,-2.9004,-2.9665,-2.9259,-2.9251,-2.9513,-3.0249,-3.0495,-3.0518,-3.0669,-3.1306,-3.1819,-3.2633,0.0,0.0,0.0,0.0,-2.9079,-3.0673,-3.3126,-3.389,-3.4722,-3.5551,-3.5238,0.0,0.0,0.0,0.0,0.0,0.0,-3.3703,-3.4373,-3.4538,-3.421,-3.3497,-3.342,-3.2826,-3.1864,-3.1214,-3.0695,-3.0235,-2.9232,-2.8026,-2.6628,0.0,0.0,0.0,0.0,-2.8732,-2.9058,-2.9938,-2.9692,-2.824,-2.8768,-2.8918,-2.865,-2.7555,-2.7522,-2.8655,-2.7781,-2.7269,-2.7273,-2.5977,0.0,0.0,0.0,0.0,0.0,0.0,0.0,0.0,0.0,0.0,0.0,0.0,0.0,0.0,0.0,0.0,0.0,0.0,0.0,-2.5906,-2.6381,-2.6847,0.0,0.0,0.0,0.0,0.0,0.0,0.0,0.0,0.0,-3.3031,-3.3436,-3.3526,0.0,0.0,-3.1874,-3.0643,-3.0217,-3.0064,-3.0038,0.0,0.0,0.0,-3.0114,-3.034,-3.0327,-2.9941,-2.9575,-2.9383,-2.9215,-2.9153,-2.9218,-2.948,-2.9762,-3.0195,-3.0681,-3.0907,-3.075,-3.1132,-3.1584,-3.1687,-3.1981,-3.2222,-3.6578,-3.3472,-3.1997,-3.1649,-3.2036,-3.1804,-3.2954,-3.5091,-3.547,-3.5916,-3.6421,-3.5996,-3.5308,-3.4402,-3.3533,0.0,0.0,0.0,-3.4137,-3.5,-3.4803,-3.4396,-3.3862,-3.3724,-3.309,-3.1996,-3.1456,-3.1021,-3.0688,-3.0047,-2.919,-2.8127,0.0,0.0,-2.7837,-2.8531,-2.9111,-2.9506,-3.0117,-2.9781,-2.8492,-2.8562,-2.8596,-2.8549,-2.7934,-2.8128,-2.9279,-2.8668,-2.8373,-2.8489,-2.7353,-2.6496,0.0,0.0,0.0,0.0,0.0,0.0,0.0,0.0,0.0,0.0,0.0,-2.3334,-2.3903,0.0,0.0,0.0,-2.5702,-2.6091,-2.708,-2.7739,0.0,0.0,0.0,0.0,0.0,0.0,0.0,-3.2722,-3.3662,-3.4295,-3.4488,-3.4462,-3.4087,-3.3272,-3.2573,-3.1752,-3.0727,0.0,-3.0208,-3.0525,-3.0216,-3.0173,-3.0774,-3.0838,-3.0737,-3.0586,-3.0337,-2.9923,-2.9388,-2.94,-2.9521,-2.95,-2.976,-3.0076,-3.0214,-3.1058,-3.1697,-3.1285,-3.1653,-3.2073,-3.2126,-3.2267,-3.2406,-3.9832,-3.8066,-3.4146,-3.3858,-3.5793,-3.4218,-3.4438,-3.5943,-3.5797,-3.5695,-3.5748,-3.6163,-3.5846,-3.4931,-3.4559,0.0,0.0,-3.4054,-3.4591,-3.5182,-3.4879,-3.4442,-3.3922,-3.3802,-3.2866,-3.1253,-3.1183,-3.0714,-2.998,-2.9867,-2.9836,-2.9805,-2.8955,-2.8589,-2.8701,-2.8783,-2.9322,-3.0297,-3.0328,-2.9985,-2.93,-2.8386,-2.7923,-2.8038,-2.8655,-2.8955,-2.8933,-2.9539,-2.9756,-2.942,-2.8882,-2.8537,-2.8356,0.0,0.0,0.0,0.0,0.0,0.0,0.0,0.0,0.0,0.0,0.0,0.0,0.0,0.0,0.0,-2.8082,0.0,-2.8192,-2.9599,0.0,0.0,0.0,-3.3048,-3.3191,-3.3197,-3.3531,-3.4389,0.0,0.0,0.0,0.0,-3.4529,-3.379,-3.2419,-3.1461,-3.1382,-3.0723,-3.0475,-3.1275,-3.0676,-3.0658,-3.1928,-3.1553,-3.0903,-3.0628,-3.042,-3.0028,-2.929,-2.9602,-2.9885,-2.9387,-3.0018,-3.0525,-2.9748,-3.0869,-3.1837,-3.1841,-3.1966,-3.2091,-3.2179,-3.2284,-3.2388,-3.9597,-3.9015,-3.6887,-3.5995,-3.5995,-3.6121,-3.6395,-3.6763,-3.7268,-3.7083,-3.6433,-3.6245,-3.5579,-3.4526,-3.4397,-3.4419,-3.4576,-3.464,-3.487,-3.5209,-3.5232,-3.4824,-3.4035,-3.3474,-3.2653,-3.1647,-3.0918,-3.0478,-3.0273,-3.0157,-3.0109,-3.0073,-2.9779,-2.961,-2.9601,-2.9748,-3.0005,-3.0375,-3.0482,-3.0154,-2.9392,-2.8447,-2.827,-2.8868,-2.8443,-2.8662,-2.967,-2.9294,-2.9258,-2.9595,-2.9499,-2.9164,-2.858,-2.7399,0.0,0.0,0.0,0.0,0.0,0.0,0.0,0.0,0.0,-2.6374,-2.7096,0.0,-2.8757,0.0,-2.9356,-3.0,-3.0725,-3.1154,0.0,0.0,-3.2858,-3.3346,-3.4016,-3.4093,-3.4397,-3.5231,-3.527,-3.5212,-3.516,-3.4526,-3.3921,-3.3523,-3.3289,-3.2911,-3.2305,-3.1584,-3.1382,-3.2029,-3.1507,-3.1262,-3.2062,-3.205,-3.1711,-3.1686,-3.0921,-3.039,-3.0625,-3.0102,-2.9912,-3.0559,-3.0828,-3.0854,-3.0456,-3.1196,-3.1731,-3.1819,-3.1875,-3.1984,-3.2108,-3.2196,-3.2284,-3.9888,-3.9437,-3.8234,-3.7255,-3.6495,-3.655,-3.6518,-3.6462,-3.6806,-3.6671,-3.614,-3.5781,-3.5199,-3.4502,-3.4494,-3.4655,-3.4944,-3.4895,-3.5059,-3.5362,-3.5398,-3.4783,-3.3639,-3.3194,-3.2375,-3.1218,-3.0667,-3.0402,-3.0398,-3.0299,-3.0241,-3.0247,-3.0095,-3.0071,-3.0085,-3.0183,-3.0309,-3.04,-3.0559,-3.0445,-3.0027,-2.9499,-2.9407,-2.9846,-2.9332,-2.9413,-3.0158,-2.9723,-2.9584,-2.9839,-2.9943,-2.9749,-2.927,-2.8491,-2.7616,0.0,0.0,0.0,0.0,0.0,0.0,0.0,0.0,0.0,0.0,0.0,-2.9601,0.0,-3.0938,0.0,-3.2226,-3.2634,-3.3087,-3.3613,-3.4027,-3.4468,-3.4921,-3.4977,-3.5156,-3.5571,-3.549,-3.5299,-3.5108,-3.4555,-3.4112,-3.3947,-3.4063,-3.3762,-3.2697,-3.2148,-3.2283,-3.3037,-3.2107,-3.1316,-3.1694,-3.1579,-3.1468,-3.1391,-3.0567,-3.009,-3.0777,-3.0225,-2.9934,-3.0759,-3.1044,-3.1026,-3.0785,-3.1318,-3.1801,-3.1856,-3.1875,-3.1948,-3.2073,-3.2161,-3.2214,-4.033,-3.935,-3.8684,-3.7829,-3.6881,-3.6312,-3.5931,-3.5681,-3.5626,-3.5575,-3.5462,-3.5176,-3.4916,-3.4705,-3.4746,-3.4868,-3.5059,-3.5066,-3.5287,-3.5599,-3.5488,-3.4739,-3.3456,-3.3147,-3.2251,-3.0853,-3.0527,-3.039,-3.039,-3.0343,-3.0337,-3.0318,-3.0209,-3.0228,-3.0317,-3.0353,-3.0367,-3.0443,-3.0605,-3.0742,-3.0784,-3.0742,-3.0697,-3.0695,-3.0559,-3.0462,-3.0422,-3.0365,-3.0273,-3.0162,-3.0248,-3.0254,-3.0126,-2.9338,-2.8852,0.0,-2.7907,0.0,0.0,0.0,0.0,0.0,0.0,0.0,0.0,-2.9596,-3.0543,-3.164,-3.2603,-3.3209,-3.3319,-3.4028,-3.4505,-3.4589,-3.5264,-3.5704,-3.5703,-3.5697,-3.5706,-3.5697,-3.5391,-3.5162,-3.5098,-3.4832,-3.466,-3.4612,-3.4694,-3.4245,-3.2981,-3.2749,-3.3099,-3.3875,-3.2569,-3.1532,-3.136,-3.1017,-3.0794,-3.0671,-3.0015,-2.9609,-3.0391,-3.0003,-2.9799,-3.0302,-3.0678,-3.0798,-3.0543,-3.1182,-3.186,-3.1864,-3.1952,-3.2091,-3.2126,-3.2214,-3.2249,-3.9946,-3.8471,-3.8346,-3.7402,-3.6012,-3.6668,-3.6443,-3.5616,-3.5674,-3.5572,-3.5419,-3.529,-3.5225,-3.5155,-3.5132,-3.5215,-3.5412,-3.5456,-3.5563,-3.5674,-3.5664,-3.5533,-3.522,-3.3785,-3.2919,-3.2511,-3.1093,-3.0406,-3.0386,-3.0442,-3.0472,-3.0453,-3.0504,-3.051,0.0,0.0,0.0,0.0,-3.0725,-3.0789,-3.079,-3.074,-3.0695,-3.0694,-3.057,0.0,-3.0493,-3.0414,-3.0367,-3.0349,-3.0367,0.0,0.0,0.0,0.0,0.0,0.0,0.0,0.0,0.0,0.0,0.0,-3.0009,-3.0348,-3.0471,-3.0755,-3.168,-3.3393,-3.3814,-3.4281,-3.5025,-3.5296,-3.5467,-3.5535,-3.5671,-3.5768,-3.5775,-3.5714,-3.5709,-3.5696,-3.5623,-3.5451,-3.5154,-3.5039,-3.4962,-3.4841,-3.4898,-3.4617,-3.3784,-3.3546,-3.3595,-3.3722,-3.2828,-3.2286,-3.2241,-3.1427,-3.0829,-3.0753,-3.0043,-2.9718,-3.0216,-2.9574,-2.908,-2.9514,-2.9902,-2.9986,-2.9381,-3.078,-3.2072,-3.1819,-3.2254,-3.2601,-3.2266,-3.2353,-3.2521,-4.0374,0.0,-3.8614,-3.7989,0.0,-3.7238,-3.7051,-3.6944,-3.7004,-3.6697,-3.6118,-3.5651,-3.5424,-3.5425,-3.5849,-3.6115,-3.6246,-3.6298,-3.6375,-3.6421,-3.5951,-3.5562,-3.5151,-3.3759,-3.2889,-3.2462,-3.1163,-3.0491,-3.0463,-3.0485,-3.0525,-3.0545,-3.0578,-3.061,-3.0632,-3.0645,-3.0662,-3.0707,-3.076,-3.0786,-3.0798,-3.0753,-3.0728,-3.071,0.0,0.0,0.0,0.0,0.0,0.0,0.0,0.0,0.0,0.0,0.0,-2.9962,-2.9414,-2.9372,-3.0045,-3.0097,-3.0312,-3.0757,-3.1269,-3.1365,-3.0988,-3.192,-3.297,-3.3987,-3.4569,-3.5106,-3.5624,-3.5741,-3.5756,-3.5789,-3.5821,-3.5849,-3.5758,-3.5415,-3.532,-3.5573,-3.5236,-3.4957,-3.5223,-3.5154,-3.5081,-3.4968,-3.4681,-3.4358,-3.4029,-3.3945,-3.3719,-3.2852,-3.2378,-3.1874,-3.1379,-3.0915,-3.0461,-3.0245,-2.9794,-2.9754,-3.0368,-2.9582,-2.9028,-2.9533,-2.9793,-2.9715,-2.9408,-3.0738,-3.1987,-3.1915,-3.2472,-3.2947,-3.2734,-3.2816,-3.2894,-4.0842,-4.0534,-3.9087,-3.8797,-3.9174,-3.8004,-3.8,-3.8777,0.0,0.0,0.0,-3.6032,-3.5723,-3.5841,-3.6455,-3.6821,-3.7027,-3.6921,-3.6913,-3.6936,-3.6184,-3.5477,-3.4809,-3.3673,-3.2772,-3.2114,-3.1122,-3.0574,-3.0511,-3.0544,-3.0567,-3.0619,-3.0618,-3.0633,-3.0697,-3.0713,-3.0712,-3.072,-3.0761,-3.0799,-3.0783,-3.0794,-3.0773,-3.0701,-3.0639,-3.0543,-3.0414,-3.0402,-3.0404,-3.039,-3.0396,-3.039,-3.0354,-3.0445,-3.0732,-3.1175,-3.1311,-3.1552,-3.1973,-3.1381,-3.1283,-3.189,-3.2258,-3.2177,-3.1541,-3.2877,-3.3913,-3.4318,-3.501,-3.5516,-3.5783,-3.5812,-3.5806,-3.5825,-3.5897,-3.5883,-3.5791,-3.5086,-3.4917,-3.545,-3.4839,-3.4469,-3.5276,-3.5246,-3.5154,-3.5058,-3.4504,-3.3873,-3.3776,-3.3618,-3.3108,-3.1935,-3.152,-3.1085,-3.0437,-3.0169,-2.9962,-2.9834,-2.9589,-2.9678,-3.0036,-2.9595,-2.924,-2.9564,-2.9802,-2.9823,-2.9691,-3.0977,-3.2,-3.2075,-3.2621,-3.3198,-3.3343,-3.3252,-3.3151,-4.0593,-3.977,-3.9563,-3.9101,-3.8523,-3.9146,-3.9893,-4.0506,-3.828,-3.7244,-3.7099,-3.6237,-3.6274,-3.694,-3.6315,-3.6446,-3.7118,-3.6396,-3.6112,0.0,-3.5978,-3.5869,-3.572,-3.4072,-3.321,-3.2984,-3.1461,-3.0646,-3.0602,-3.0636,-3.0689,-3.0694,-3.0691,-3.0732,-3.0763,-3.0786,-3.0786,-3.0788,-3.0796,-3.0786,-3.0798,-3.0795,-3.0771,-3.0703,-3.0632,-3.0574,-3.0485,-3.0439,-3.0396,-3.0386,-3.0386,-3.0417,-3.0483,-3.1001,-3.1346,-3.141,-3.1965,-3.2246,-3.2097,-3.2138,-3.1881,-3.1359,-3.2114,-3.2875,-3.3432,-3.3145,-3.3618,-3.5159,-3.4991,-3.4993,-3.5747,-3.5897,-3.591,-3.5957,-3.5976,-3.5976,-3.5898,-3.5067,-3.482,-3.5599,-3.4945,-3.4593,-3.5252,-3.5378,-3.5345,-3.521,-3.4466,-3.3827,-3.3145,-3.2491,-3.1955,-3.1571,-3.1075,-3.0683,-3.0444,-3.0279,-3.0109,-2.991,-2.9652,-2.9493,-2.9569,-2.9173,-2.89,-2.8895,-2.9761,-3.0206,-2.9984,-3.171,-3.2707,-3.2711,-3.2856,-3.3215,-3.3806,-3.3467,-3.3107,-4.0836,-4.0365,-3.9908,-3.9734,-3.9788,-4.025,-4.0706,-4.0937,-3.9319,-3.8307,-3.784,-3.6994,-3.6819,-3.7159,-3.677,-3.7094,-3.7868,-3.7005,-3.6657,-3.666,-3.6141,-3.5672,-3.5195,-3.3943,-3.3088,-3.2593,-3.1368,-3.0717,-3.0667,-3.0687,-3.0698,-3.0702,-3.0734,-3.0766,-3.0787,-3.0794,-3.0795,-3.0787,-3.0798,-3.0795,-3.08,-3.0798,-3.0762,-3.0699,-3.0665,-3.0614,-3.0549,-3.0485,-3.0466,-3.0444,-3.0463,-3.0681,-3.1174,-3.1488,-3.1814,-3.214,-3.2479,-3.2561,-3.2332,-3.2015,-3.1504,-3.0731,-3.1597,-3.2551,-3.3407,-3.4017,-3.4734,-3.5642,-3.5434,-3.5459,-3.5895,-3.5957,-3.5976,-3.6013,-3.5602,-3.531,-3.5117,-3.4001,-3.3714,-3.4748,-3.4279,-3.4193,-3.5417,-3.5565,-3.5353,-3.4909,-3.4087,-3.315,-3.2005,-3.1821,-3.1738,-3.1653,-3.11,-3.0627,-3.0495,-3.0422,-3.0235,-2.9958,-2.9756,-2.9589,-2.9409,-2.913,-2.9003,-2.9028,-2.9801,-3.0294,-3.0149,-3.1708,-3.2746,-3.2957,-3.3216,-3.3642,-3.3888,-3.3697,-3.3348,-4.1115,-4.1028,-4.0327,-4.0428,-4.1011,-4.1014,-4.1046,-4.1034,-4.0371,-3.9606,-3.8743,-3.7908,-3.7516,-3.7511,-3.7316,-3.7596,-3.8046,-3.7324,-3.6933,-3.6929,-3.6249,-3.5603,-3.4922,-3.3918,-3.3053,-3.2314,-3.1338,-3.0783,-3.0726,-3.0731,-3.0742,-3.0733,-3.0775,-3.0798,-3.0801,-3.0796,-3.0795,-3.08,-3.0791,-3.08,-3.08,-3.0821,-3.0792,-3.0704,-3.0708,-3.0678,-3.0599,-3.0549,-3.052,-3.0525,-3.0525,-3.0823,-3.1485,-3.1897,-3.2227,-3.2564,-3.2936,-3.2896,-3.2328,-3.1565,-3.0887,-3.0387,-3.1429,-3.2399,-3.3165,-3.4707,-3.571,-3.5857,-3.5882,-3.5935,-3.5995,-3.599,-3.5929,-3.572,-3.5133,-3.4645,-3.4316,-3.2969,-3.2669,-3.4047,-3.3689,-3.3795,-3.5168,-3.553,-3.4941,-3.3916,-3.3258,-3.2303,-3.1269,-3.1417,-3.1592,-3.1665,-3.1146,-3.0622,-3.0505,-3.0485,-3.0316,-2.9965,-2.9826,-2.9672,-2.9461,-2.9265,-2.9222,-2.9292,-2.9854,-3.0314,-3.0468,-3.1679,-3.2656,-3.2835,-3.3185,-3.3598,-3.3571,-3.3558,-3.3254,-4.1147,-4.1095,-4.103,-4.1072,-4.109,-4.1094,-4.1074,-4.1074,-4.101,-4.0498,-3.9583,-3.8823,-3.8473,-3.8355,-3.7646,-3.7348,-3.7385,-3.6512,-3.6145,-3.6167,-3.6034,-3.5957,-3.5664,-3.4179,-3.3359,-3.3027,-3.164,-3.0859,-3.0798,-3.0839,-3.0851,-3.0786,-3.0797,-3.0797,-3.0791,-3.08,-3.0798,-3.0798,-3.0795,-3.08,-3.0801,-3.0846,-3.0817,-3.0704,-3.071,-3.0672,-3.0616,-3.0579,-3.0602,-3.0579,-3.0525,-3.0583,-3.0859,-3.2135,-3.2642,-3.2025,-3.3261,-3.3475,-3.1919,-3.0842,-3.041,-3.0655,-3.2061,-3.307,-3.3323,-3.4839,-3.5856,-3.5905,-3.5956,-3.5993,-3.6007,-3.6005,-3.5693,-3.5011,-3.474,-3.439,-3.3574,-3.267,-3.2698,-3.4308,-3.364,-3.3807,-3.5185,-3.5,-3.3955,-3.2749,-3.2405,-3.2087,-3.1665,-3.1309,-3.1237,-3.161,-3.119,-3.0637,-3.0516,-3.0485,-3.0342,-3.0004,-2.9842,-2.9707,-2.9492,-2.9318,-2.9222,-2.9386,-2.9939,-3.0371,-3.0792,-3.1671,-3.2773,-3.3001,-3.3093,-3.3013,-3.287,-3.292,-3.26,-4.1133,-4.1168,-4.1191,-4.1151,-4.1108,-4.111,-4.0791,-4.0338,-4.0875,-4.0599,-3.9903,-3.9992,-3.955,-3.856,-3.7695,-3.7301,-3.7223,-3.6375,-3.6009,-3.6011,-3.6014,-3.5742,-3.5137,-3.4004,-3.3144,-3.2576,-3.1443,-3.0876,-3.0856,-3.0848,-3.0816,-3.0806,-3.0792,-3.0789,-3.0803,-3.0744,-3.0727,-3.0735,-3.0779,-3.08,-3.08,-3.0874,-3.0866,-3.0821,-3.0774,-3.0744,-3.073,-3.0686,-3.0639,-3.0605,-3.0587,-3.0798,-3.1294,-3.1966,-3.2174,-3.1835,-3.197,-3.1786,-3.1041,-3.0627,-3.0485,-3.0607,-3.1788,-3.2752,-3.3346,-3.4491,-3.539,-3.5879,-3.5973,-3.6006,-3.6004,-3.6004,-3.5654,-3.4836,-3.4253,-3.3611,-3.2773,-3.1889,-3.1828,-3.2902,-3.3195,-3.3657,-3.4563,-3.4264,-3.3524,-3.2733,-3.2349,-3.1817,-3.1352,-3.1369,-3.1451,-3.1217,-3.0884,-3.0675,-3.0585,-3.052,-3.0365,-3.0109,-2.9981,-2.9883,-2.9589,-2.9483,-2.9443,-2.9386,-2.9924,-3.0542,-3.104,-3.1994,-3.3022,-3.3245,-3.3678,-3.3679,-3.3224,-3.3079,-3.2709,-4.1152,-4.1191,-4.1172,-4.1129,-4.1099,-4.1101,-4.0577,-3.9853,-4.0463,-4.0246,-3.956,-4.033,-3.9774,-3.8241,-3.7542,-3.7269,-3.7113,-3.6108,-3.5588,-3.5651,-3.5854,-3.5505,-3.4645,-3.3807,-3.3064,-3.2359,-3.1381,-3.0868,-3.0862,-3.0834,-3.0785,-3.0794,-3.078,-3.0791,-3.0767,-3.0711,-3.0709,-3.0706,-3.0753,-3.0788,-3.0769,-3.0839,-3.0876,-3.0875,-3.085,-3.0827,-3.0811,-3.077,-3.072,-3.0667,-3.0845,-3.1142,-3.1487,-3.193,-3.2115,-3.1786,-3.1057,-3.0583,-3.053,-3.0576,-3.063,-3.0742,-3.1744,-3.2729,-3.3418,-3.4387,-3.5249,-3.5811,-3.5919,-3.5917,-3.6001,-3.6021,-3.5633,-3.4779,-3.3923,-3.3085,-3.2265,-3.1364,-3.12,-3.2012,-3.2638,-3.3282,-3.3855,-3.3487,-3.2911,-3.2797,-3.2179,-3.1519,-3.0978,-3.1287,-3.1466,-3.0863,-3.0757,-3.0689,-3.0607,-3.0535,-3.0381,-3.0203,-3.0109,-2.9981,-2.9741,-2.9707,-2.9681,-2.9664,-3.0029,-3.0265,-3.0586,-3.164,-3.2737,-3.337,-3.373,-3.3782,-3.3404,-3.3197,-3.2997,-4.1152,-4.1172,-4.1149,-4.1108,-4.1109,-4.1062,-4.0576,-3.9694,-3.9841,-3.9363,-3.8711,-3.9387,-3.8812,-3.7293,-3.7175,-3.7125,-3.6841,-3.5368,-3.4645,-3.4733,-3.5431,-3.5415,-3.4594,-3.3796,-3.3312,-3.2972,-3.152,-3.0789,-3.0796,-3.0798,-3.0794,-3.0798,-3.0738,-3.07,-3.0709,-3.0698,-3.0709,-3.0698,-3.0689,-3.071,-3.0709,-3.0776,-3.0818,-3.0879,-3.0878,-3.0898,-3.0879,-3.0836,-3.079,-3.0793,-3.1436,-3.1535,-3.1022,-3.2251,-3.2672,-3.19,-3.1075,-3.0608,-3.0598,-3.0594,-3.0669,-3.0954,-3.2299,-3.334,-3.3441,-3.477,-3.5636,-3.5816,-3.5767,-3.5804,-3.5935,-3.5963,-3.5602,-3.4755,-3.3938,-3.31,-3.2186,-3.1482,-3.1328,-3.1851,-3.2159,-3.264,-3.3282,-3.2648,-3.2327,-3.2099,-3.1501,-3.0956,-3.0937,-3.0976,-3.0976,-3.0936,-3.0828,-3.0753,-3.0616,-3.0552,-3.0439,-3.0286,-3.0163,-3.0073,-2.9981,-2.9905,-2.9888,-2.9836,-2.9893,-2.9962,-3.0053,-3.0628,-3.1591,-3.2241,-3.2647,-3.275,-3.3221,-3.2619,-3.243,-4.0326,-4.036,-4.0884,-4.1055,-4.0919,-4.0438,-3.9685,-3.8889,-3.8843,-3.8353,-3.7778,-3.8395,-3.836,-3.7704,-3.6639,-3.5896,-3.5417,-3.4763,-3.4212,-3.3785,-3.4035,-3.4004,-3.3651,-3.2852,-3.2438,-3.2255,-3.1195,-3.0607,-3.0614,-3.07,-3.07,-3.0675,-3.0698,-3.0698,-3.0707,-3.0651,-3.063,-3.0642,-3.0623,-3.0622,-3.0633,-3.0711,-3.0742,-3.0768,-3.0853,-3.0917,-3.0877,-3.0859,-3.0839,-3.0797,-3.1084,-3.1074,-3.0801,-3.1285,-3.151,-3.1147,-3.0837,-3.0678,-3.0675,-3.0693,-3.0739,-3.0914,-3.2335,-3.3245,-3.3522,-3.4708,-3.5667,-3.5706,-3.5728,-3.5733,-3.5762,-3.5794,-3.5455,-3.4681,-3.4262,-3.354,-3.2391,-3.1772,-3.1567,-3.1483,-3.1758,-3.2441,-3.289,-3.2616,-3.2129,-3.201,-3.1406,-3.0956,-3.0855,-3.0877,-3.0898,-3.0898,-3.0835,-3.0776,-3.0762,-3.063,-3.051,-3.0409,-3.0304,-3.0196,-3.0102,-3.0044,-3.0022,-2.995,-2.991,-3.0065,-3.0292,-3.0964,-3.1678,-3.2092,-3.2382,-3.2321,-3.3028,-3.2355,-3.2221,-3.9385,-3.9492,-4.0283,-4.0435,-4.0073,-3.9827,-3.9004,-3.7957,-3.7877,-3.7387,-3.6803,-3.7383,-3.7582,-3.7199,-3.633,-3.5173,-3.4076,-3.3996,-3.3557,-3.28,-3.3032,-3.2997,-3.2656,-3.2124,-3.1852,-3.1728,-3.0936,-3.0492,-3.049,-3.0568,-3.0583,-3.0552,-3.057,-3.0586,-3.0629,-3.0576,-3.0558,-3.0604,-3.0618,-3.0614,-3.0607,-3.0646,-3.067,-3.0673,-3.0753,-3.0823,-3.0828,-3.0871,-3.0876,-3.084,-3.1055,-3.121,-3.1145,-3.0882,-3.0737,-3.0732,-3.0703,-3.0703,-3.0731,-3.0772,-3.0801,-3.0817,-3.2005,-3.2875,-3.3183,-3.4371,-3.5165,-3.5514,-3.5585,-3.5585,-3.5635,-3.5621,-3.5406,-3.4874,-3.4609,-3.403,-3.292,-3.2301,-3.1636,-3.1055,-3.1237,-3.1944,-3.2592,-3.2069,-3.1849,-3.2012,-3.1369,-3.0845,-3.0796,-3.08,-3.0852,-3.0853,-3.08,-3.0779,-3.0769,-3.0717,-3.0616,-3.0518,-3.0433,-3.0321,-3.0241,-3.0203,-3.0169,-3.0078,-3.0141,-3.0335,-3.0765,-3.1424,-3.1858,-3.2216,-3.1969,-3.169,-3.2002,-3.2116,-3.21,-3.8402,-3.8505,-3.9347,-3.9271,-3.8727,-3.9171,-3.857,-3.724,-3.6992,-3.6489,-3.5897,-3.6465,-3.6389,-3.5862,-3.6208,-3.5243,-3.3353,-3.312,-3.2593,-3.1835,-3.2503,-3.243,-3.1718,-3.1647,-3.1639,-3.1601,-3.0895,-3.0467,-3.0394,-3.0395,-3.0404,-3.0402,-3.0334,-3.037,-3.051,-3.0425,-3.0455,-3.055,-3.0574,-3.0598,-3.0607,-3.0591,-3.0599,-3.0599,-3.061,-3.0637,-3.0698,-3.087,-3.0938,-3.0895,-3.156,-3.2069,-3.1783,-3.121,-3.08,-3.0798,-3.0744,-3.0722,-3.0777,-3.0781,-3.075,-3.0804,-3.1518,-3.2361,-3.3016,-3.382,-3.4648,-3.5316,-3.5398,-3.5367,-3.5494,-3.5502,-3.5525,-3.5573,-3.4955,-3.4455,-3.391,-3.2806,-3.1559,-3.085,-3.0759,-3.0992,-3.1465,-3.1331,-3.1154,-3.1501,-3.1191,-3.0717,-3.0706,-3.0709,-3.072,-3.0764,-3.0762,-3.0755,-3.0761,-3.0786,-3.0698,-3.0614,-3.0528,-3.0441,-3.0386,-3.0327,-3.0334,-3.0292,-3.028,-3.0439,-3.0465,-3.1001,-3.0951,-3.1149,-3.097,-3.1131,-3.1349,-3.1605,-3.1956,-3.8022,-3.7557,-3.8377,-3.8568,-3.8214,-3.7898,-3.7353,-3.6842,-3.618,-3.5695,-3.5522,-3.5616,-3.5553,-3.5453,-3.563,-3.4683,-3.2914,-3.2812,-3.2103,-3.1013,-3.1064,-3.1064,-3.0815,-3.0725,-3.0706,-3.068,-3.0491,-3.0302,-3.0254,-3.0288,-3.0319,-3.0267,-3.0209,-3.0177,-3.0222,-3.0222,-3.0254,-3.0315,-3.0419,-3.0483,-3.0525,-3.053,-3.0516,-3.0487,-3.0524,-3.0543,-3.0575,-3.1183,-3.1219,-3.0719,-3.144,-3.167,-3.1213,-3.0929,-3.079,-3.0793,-3.0776,-3.0755,-3.0738,-3.0737,-3.0716,-3.0745,-3.1316,-3.2071,-3.2856,-3.3633,-3.4434,-3.5211,-3.532,-3.5339,-3.5405,-3.5427,-3.5463,-3.5558,-3.5313,-3.4566,-3.3471,-3.2031,-3.104,-3.0694,-3.0613,-3.0756,-3.0882,-3.0682,-3.0782,-3.099,-3.0795,-3.0642,-3.0626,-3.0623,-3.065,-3.0706,-3.0716,-3.0746,-3.0794,-3.0801,-3.073,-3.0678,-3.063,-3.0561,-3.0506,-3.0477,-3.0481,-3.0463,-3.0477,-3.0469,-3.049,-3.0511,-3.0554,-3.0595,-3.0773,-3.0914,-3.1012,-3.1261,-3.1568,-3.7031,-3.6639,-3.7434,-3.7544,-3.7204,-3.6876,-3.6588,-3.6215,-3.5608,-3.5302,-3.5296,-3.5266,-3.5253,-3.5192,-3.4959,-3.4041,-3.2778,-3.2419,-3.1551,-3.0392,-3.0226,-3.0226,-3.0219,-3.0185,-3.0374,-3.0512,-3.0373,-3.0345,-3.0529,-3.0285,-3.0114,-3.0049,-2.9992,-2.9954,-2.9973,-2.9981,-3.0025,-3.011,-3.0196,-3.0254,-3.026,-3.026,-3.0241,-3.0253,-3.0283,-3.0356,-3.0475,-3.1185,-3.1274,-3.0776,-3.1079,-3.1061,-3.0665,-3.0678,-3.0684,-3.0689,-3.0687,-3.0672,-3.0664,-3.0944,-3.1037,-3.1072,-3.1634,-3.243,-3.317,-3.3796,-3.4358,-3.4986,-3.5149,-3.5138,-3.5138,-3.5138,-3.5179,-3.5293,-3.5088,-3.4283,-3.2753,-3.1627,-3.0868,-3.0659,-3.0528,-3.0546,-3.052,-3.0513,-3.0539,-3.0543,-3.0539,-3.0556,-3.0542,-3.052,-3.0563,-3.0604,-3.063,-3.0691,-3.0809,-3.0792,-3.0761,-3.0748,-3.0715,-3.0649,-3.0587,-3.0576,-3.0583,-3.054,-3.0506,-3.0521,-3.052,-3.0559,-3.0603,-3.0636,-3.0689,-3.0784,-3.0897,-3.0877,-3.11,-3.5656,-3.5776,-3.6485,-3.6367,-3.5772,-3.6337,-3.6122,-3.5369,-3.5262,-3.5243,-3.5223,-3.5256,-3.5168,-3.4942,-3.4342,-3.344,-3.2484,-3.1705,-3.0939,-3.022,-3.0019,-3.0034,-3.0117,-3.0098,-3.04,-3.0779,-3.0381,-3.0437,-3.0749,-3.0219,-2.9842,-2.9771,-2.9737,-2.9728,-2.9786,-2.9784,-2.9842,-2.992,-2.9969,-2.995,-2.992,-2.985,-2.9855,-2.9984,-2.9996,-3.0078,-3.0289,-3.0711,-3.0884,-3.0612,-3.0606,-3.0565,-3.0485,-3.0489,-3.0514,-3.0673,-3.0618,-3.0726,-3.083,-3.1429,-3.179,-3.1717,-3.2282,-3.3182,-3.3692,-3.3819,-3.416,-3.4774,-3.487,-3.4851,-3.4764,-3.4754,-3.4813,-3.4808,-3.4374,-3.3403,-3.2058,-3.1584,-3.0938,-3.0476,-3.0361,-3.0367,-3.0354,-3.0369,-3.0361,-3.0369,-3.0403,-3.0425,-3.0425,-3.0392,-3.0442,-3.0496,-3.0548,-3.062,-3.0723,-3.0722,-3.0693,-3.0739,-3.0715,-3.0686,-3.0664,-3.0664,-3.0661,-3.0618,-3.0567,-3.0552,-3.0579,-3.0617,-3.0647,-3.0669,-3.0731,-3.078,-3.0773,-3.078,-3.0762,-3.554,-3.5585,-3.5734,-3.565,-3.543,-3.5553,-3.5449,-3.5193,-3.5096,-3.5098,-3.5129,-3.5155,-3.4793,-3.4167,-3.3796,-3.2823,-3.1672,-3.0998,-3.0339,-2.9608,-2.9514,-2.9751,-3.003,-3.0068,-3.0113,-3.0158,-3.0067,-2.9933,-2.9795,-2.9813,-2.9691,-2.9522,-2.9531,-2.9551,-2.958,-2.9589,-2.9579,-2.9643,-2.9732,-2.9767,-2.9748,-2.972,-2.9738,-2.9763,-2.9756,-2.9784,-2.9845,-2.9903,-3.0351,-3.0939,-3.0565,-3.0362,-3.0342,-3.0467,-3.0766,-3.1207,-3.1362,-3.1611,-3.2004,-3.2289,-3.2408,-3.2329,-3.2512,-3.28,-3.3552,-3.3554,-3.3883,-3.4406,-3.4595,-3.4595,-3.4622,-3.4653,-3.4479,-3.3904,-3.3485,-3.2852,-3.2183,-3.1116,-3.019,-3.0057,-3.0034,-3.0068,-3.0097,-3.0135,-3.015,-3.0114,-3.0155,-3.0222,-3.0209,-3.0216,-3.0247,-3.0437,-3.0509,-3.0564,-3.0597,-3.0617,-3.0642,-3.0695,-3.0712,-3.0703,-3.0683,-3.0694,-3.0694,-3.0682,-3.063,-3.0608,-3.065,-3.0698,-3.0722,-3.068,-3.0723,-3.0759,-3.0744,-3.0723,-3.0703,-3.5416,-3.5409,-3.5285,-3.522,-3.517,-3.5066,-3.5008,-3.5019,-3.5001,-3.5011,-3.5029,-3.4955,-3.4633,-3.4084,-3.3202,-3.2274,-3.1285,-3.0424,-2.9793,-2.9409,-2.9316,-2.9475,-2.9698,-2.9742,-2.9831,-3.0002,-2.9767,-2.9719,-2.9696,-2.9563,-2.9365,-2.9332,-2.933,-2.937,-2.9411,-2.9441,-2.9423,-2.9395,-2.9474,-2.9513,-2.9465,-2.9446,-2.9494,-2.9495,-2.9504,-2.9494,-2.9465,-2.9465,-2.9823,-3.0277,-3.0198,-3.0056,-3.0122,-3.0573,-3.1058,-3.1533,-3.1744,-3.2106,-3.2427,-3.2672,-3.2814,-3.2864,-3.2918,-3.3378,-3.3783,-3.3794,-3.4041,-3.43,-3.4383,-3.4348,-3.4284,-3.4394,-3.4258,-3.3886,-3.3154,-3.2505,-3.1986,-3.061,-2.9906,-2.9845,-2.9869,-2.9878,-2.9886,-2.9962,-2.9962,-2.995,-2.9988,-3.0034,-3.0022,-3.003,-3.008,-3.0247,-3.0356,-3.0384,-3.0481,-3.0524,-3.0579,-3.0634,-3.0685,-3.0682,-3.0722,-3.0726,-3.0721,-3.0723,-3.0683,-3.0668,-3.0697,-3.0703,-3.066,-3.0665,-3.0703,-3.0706,-3.0675,-3.0645,-3.0639,-3.5251,-3.5243,-3.506,-3.4935,-3.4888,-3.4889,-3.4832,-3.481,-3.484,-3.4889,-3.4803,-3.46,-3.4177,-3.4162,-3.2302,-3.1507,-3.118,-2.9828,-2.9384,-2.9166,-2.9137,-2.918,-2.9201,-2.9346,-2.9634,-2.9965,-2.949,-2.9565,-2.9625,-2.9173,-2.9,-2.9012,-2.9014,-2.906,-2.9075,-2.9181,-2.92,-2.9064,-2.9075,-2.9052,-2.8996,-2.9007,-2.9097,-2.9148,-2.9188,-2.9144,-2.9137,-2.9204,-2.9375,-2.9359,-2.9551,-2.977,-2.9962,-3.0812,-3.1339,-3.1625,-3.208,-3.2373,-3.254,-3.3029,-3.3172,-3.3273,-3.3821,-3.4258,-3.4206,-3.4134,-3.4052,-3.3821,-3.3988,-3.3734,-3.3467,-3.3666,-3.3734,-3.353,-3.3152,-3.2132,-3.1153,-3.0227,-2.9757,-2.9724,-2.9732,-2.9767,-2.982,-2.9845,-2.9845,-2.9744,-2.9786,-2.9817,-2.9807,-2.9815,-2.9888,-3.0006,-3.0112,-3.0177,-3.0312,-3.0433,-3.0513,-3.0571,-3.0645,-3.0678,-3.0731,-3.0758,-3.0761,-3.0742,-3.0679,-3.0654,-3.0671,-3.0651,-3.0598,-3.0614,-3.0647,-3.0633,-3.0594,-3.0556,-3.0556,-3.4982,-3.4973,-3.4813,-3.4754,-3.4734,-3.4701,-3.4658,-3.4615,-3.4498,-3.4476,-3.4263,-3.3619,-3.2913,-3.2205,-3.1203,-3.0145,-2.9666,-2.9046,-2.8755,-2.8737,-2.867,-2.8676,-2.8785,-2.9038,-2.9288,-2.9341,-2.9285,-2.9088,-2.8876,-2.8822,-2.8646,-2.8507,-2.854,-2.8496,-2.8547,-2.8597,-2.8491,-2.8433,-2.8451,-2.8433,-2.8438,-2.8551,-2.8639,-2.8682,-2.8803,-2.8839,-2.8815,-2.8833,-2.8737,-2.8694,-2.9078,-2.9556,-3.0139,-3.0601,-3.1333,-3.2229,-3.2663,-3.309,-3.3604,-3.3731,-3.3924,-3.3832,-3.3783,-3.3992,-3.3992,-3.3818,-3.3463,-3.2988,-3.2768,-3.2609,-3.2206,-3.1782,-3.23,-3.2703,-3.2083,-3.1247,-3.091,-3.0468,-2.9894,-2.9458,-2.9304,-2.9332,-2.9423,-2.9485,-2.9504,-2.9522,-2.9551,-2.9589,-2.9588,-2.9588,-2.9668,-2.9788,-2.9858,-2.995,-3.0056,-3.0222,-3.0345,-3.0443,-3.0521,-3.057,-3.0647,-3.0694,-3.0675,-3.0661,-3.0625,-3.0637,-3.0633,-3.0567,-3.0519,-3.0568,-3.0567,-3.0494,-3.0438,-3.0438,-3.0467,-3.4732,-3.4691,-3.4534,-3.4472,-3.4491,-3.442,-3.4381,-3.4328,-3.4184,-3.4123,-3.3982,-3.3388,-3.2684,-3.1843,-3.0914,-3.002,-2.9225,-2.8688,-2.8528,-2.851,-2.8453,-2.8357,-2.8304,-2.862,-2.8809,-2.8718,-2.8676,-2.8487,-2.8317,-2.8246,-2.817,-2.811,-2.8134,-2.8183,-2.8179,-2.8192,-2.8192,-2.8116,-2.8088,-2.8075,-2.8065,-2.812,-2.8192,-2.8179,-2.8273,-2.8299,-2.8219,-2.8156,-2.8043,-2.8025,-2.8301,-2.8846,-2.9754,-3.0568,-3.1526,-3.218,-3.3124,-3.3451,-3.388,-3.3725,-3.3561,-3.3802,-3.3433,-3.3361,-3.3332,-3.3217,-3.2901,-3.2484,-3.2154,-3.1766,-3.1462,-3.1729,-3.2049,-3.2259,-3.1936,-3.1408,-3.1055,-3.0378,-2.9548,-2.8998,-2.885,-2.8862,-2.8925,-2.9067,-2.914,-2.9126,-2.9299,-2.9345,-2.9384,-2.9375,-2.9437,-2.9533,-2.9623,-2.9719,-2.9804,-2.9973,-3.0163,-3.0271,-3.0388,-3.0414,-3.0448,-3.0505,-3.0567,-3.0541,-3.0517,-3.0548,-3.0536,-3.0475,-3.0351,-3.0312,-3.0283,-3.0272,-3.0273,-3.0228,-3.0278,-3.4461,-3.4321,-3.4154,-3.4124,-3.4087,-3.4005,-3.3948,-3.3954,-3.3834,-3.3768,-3.3626,-3.3327,-3.2451,-3.2051,-3.0812,-3.0002,-2.9286,-2.8672,-2.8273,-2.8156,-2.8128,-2.8,-2.7926,-2.8069,-2.8179,-2.8187,-2.8201,-2.8109,-2.7979,-2.7806,-2.7757,-2.7768,-2.7815,-2.7768,-2.7837,-2.7904,-2.7851,-2.771,-2.7739,-2.7768,-2.7739,-2.7768,-2.7779,-2.7794,-2.8012,-2.8065,-2.8062,-2.804,-2.7919,-2.7739,-2.7741,-2.8053,-2.8892,-3.0209,-3.1599,-3.1653,-3.2757,-3.319,-3.3204,-3.2999,-3.2842,-3.3165,-3.2702,-3.2536,-3.2734,-3.265,-3.2392,-3.2005,-3.1611,-3.1111,-3.1206,-3.1319,-3.1831,-3.2147,-3.222,-3.1838,-3.1076,-2.9986,-2.9139,-2.8644,-2.8526,-2.8507,-2.8552,-2.8652,-2.8706,-2.8754,-2.8943,-2.9071,-2.9082,-2.9071,-2.9053,-2.9081,-2.9111,-2.9401,-2.9541,-2.966,-2.9861,-3.0011,-3.0145,-3.0177,-3.0183,-3.0152,-3.0212,-3.0384,-3.0423,-3.0392,-3.0319,-3.0165,-3.0053,-3.0011,-2.9996,-3.0003,-3.0,-2.9996,-3.0071,-3.3941,-3.3666,-3.3625,-3.3468,-3.3259,-3.3372,-3.3465,-3.3404,-3.3361,-3.3321,-3.314,-3.1881,-3.1637,-3.1267,-2.9669,-2.8653,-2.85,-2.8237,-2.7944,-2.7742,-2.7679,-2.7574,-2.7424,-2.7517,-2.7439,-2.7457,-2.7654,-2.7832,-2.7686,-2.7569,-2.7291,-2.7258,-2.7197,-2.7149,-2.7133,-2.7182,-2.7164,-2.7084,-2.71,-2.71,-2.7148,-2.7374,-2.7513,-2.7613,-2.7988,-2.8201,-2.8408,-2.8843,-2.9074,-2.8749,-2.9041,-2.9006,-2.9021,-2.9693,-3.0635,-3.1614,-3.2181,-3.2517,-3.2417,-3.2265,-3.2179,-3.2248,-3.2144,-3.2179,-3.2334,-3.2264,-3.1917,-3.1356,-3.0812,-3.0318,-3.0221,-3.0538,-3.071,-3.1074,-3.1168,-3.0714,-3.0161,-2.9503,-2.8948,-2.8448,-2.8272,-2.8124,-2.8116,-2.8179,-2.8311,-2.8381,-2.8471,-2.8565,-2.8565,-2.8515,-2.8428,-2.8467,-2.8493,-2.8902,-2.9267,-2.9391,-2.9523,-2.966,-2.9777,-2.9845,-2.9832,-2.9739,-2.9804,-2.9961,-3.0058,-3.0042,-2.9931,-2.9821,-2.978,-2.9727,-2.972,-2.9686,-2.9713,-2.9713,-2.9799,-3.3339,-3.3133,-3.3189,-3.31,-3.2952,-3.2954,-3.305,-3.3096,-3.2957,-3.2943,-3.2713,-3.2003,-3.1564,-3.1295,-3.0233,-2.9217,-2.8724,-2.8643,-2.8355,-2.7982,-2.7829,-2.7392,-2.7038,-2.7067,-2.6872,-2.679,-2.6985,-2.7161,-2.6951,-2.6657,-2.659,-2.6453,-2.6384,-2.6315,-2.6262,-2.628,-2.6296,-2.6262,-2.6262,-2.6331,-2.6571,-2.7013,-2.7402,-2.7589,-2.7841,-2.8052,-2.808,-2.7895,-2.8081,-2.8075,-2.8232,-2.8574,-2.8956,-2.9328,-2.9958,-3.1042,-3.1688,-3.195,-3.186,-3.1806,-3.1806,-3.1986,-3.1733,-3.164,-3.1714,-3.1608,-3.1326,-3.0829,-3.1244,-3.0814,-3.0213,-3.0242,-3.0691,-3.0968,-3.0736,-3.0226,-2.9634,-2.8936,-2.8412,-2.8049,-2.7788,-2.7604,-2.7565,-2.7695,-2.7894,-2.7992,-2.8006,-2.8034,-2.8034,-2.802,-2.7964,-2.8057,-2.8143,-2.8355,-2.8748,-2.8961,-2.9189,-2.9347,-2.949,-2.9549,-2.9541,-2.9519,-2.9454,-2.9467,-2.956,-2.9541,-2.9651,-2.9579,-2.9505,-2.9419,-2.9349,-2.9318,-2.9388,-2.9456,-2.9514,-3.2838,-3.2716,-3.2825,-3.2761,-3.2619,-3.2587,-3.267,-3.2752,-3.2621,-3.2606,-3.2603,-3.214,-3.1738,-3.1455,-3.0768,-2.997,-2.9281,-2.9144,-2.8732,-2.8219,-2.793,-2.7402,-2.6927,-2.6758,-2.6757,-2.6465,-2.6576,-2.6356,-2.6282,-2.6036,-2.5799,-2.586,-2.5809,-2.5717,-2.5629,-2.5877,-2.5648,-2.5481,-2.5446,-2.561,-2.6157,-2.6867,-2.7392,-2.742,-2.7599,-2.7736,-2.7695,-2.7615,-2.7602,-2.772,-2.7828,-2.7998,-2.8796,-2.9015,-2.9403,-3.0207,-3.1112,-3.1481,-3.1492,-3.1321,-3.13,-3.1529,-3.1159,-3.1128,-3.1244,-3.126,-3.095,-3.0677,-3.1106,-3.1557,-3.0701,-3.0749,-3.0878,-3.0771,-3.0501,-3.0075,-2.9279,-2.85,-2.7643,-2.7319,-2.7182,-2.6995,-2.6826,-2.6839,-2.6981,-2.7109,-2.7141,-2.7346,-2.7391,-2.7607,-2.7654,-2.7754,-2.7851,-2.789,-2.8152,-2.8467,-2.8753,-2.9088,-2.9241,-2.9365,-2.9354,-2.9344,-2.9211,-2.9021,-2.8879,-2.8916,-2.9106,-2.9258,-2.9124,-2.9012,-2.8932,-2.895,-2.909,-2.9137,-2.9172,-3.2651,-3.2352,-3.2386,-3.2214,-3.1984,-3.2091,-3.2161,-3.2214,-3.2266,-3.2197,-3.2003,-3.1323,-3.1163,-3.1137,-3.0635,-2.9675,-2.8977,-2.88,-2.8655,-2.8201,-2.7642,-2.7236,-2.6838,-2.6876,-2.658,-2.6246,-2.6527,-2.6545,-2.6016,-2.5683,-2.5605,-2.557,-2.5757,-2.5953,-2.5422,-2.5676,-2.581,-2.5362,-2.5282,-2.557,-2.6158,-2.6794,-2.7035,-2.7148,-2.744,-2.7718,-2.7691,-2.779,-2.8085,-2.8163,-2.8381,-2.8498,-2.86,-2.8677,-2.877,-2.9166,-2.9772,-3.0468,-3.0531,-3.0638,-3.0663,-3.0907,-3.078,-3.0895,-3.1084,-3.1362,-3.1468,-3.1958,-3.1753,-3.1379,-3.0993,-3.0746,-3.0467,-3.0177,-2.993,-2.947,-2.8806,-2.8105,-2.7243,-2.6684,-2.6568,-2.6192,-2.5896,-2.5954,-2.602,-2.6143,-2.6299,-2.6522,-2.674,-2.6953,-2.7035,-2.7098,-2.745,-2.7546,-2.7954,-2.8208,-2.8614,-2.893,-2.916,-2.9323,-2.934,-2.9276,-2.8748,-2.8555,-2.8412,-2.8249,-2.8312,-2.8449,-2.8584,-2.8565,-2.8438,-2.8583,-2.8815,-2.8821,-2.8718,-3.1643,-3.1856,-3.182,-3.1728,-3.1542,-3.156,-3.1635,-3.1675,-3.1621,-3.1621,-3.1512,-3.1031,-3.0777,-3.0694,-3.0521,-3.0168,-2.9546,-2.9365,-2.9107,-2.851,-2.7887,-2.7364,-2.6849,-2.6425,-2.6063,-2.5879,-2.5614,-2.5273,-2.5142,-2.5274,-2.5258,-2.5186,-2.5093,-2.5082,-2.5082,-2.5319,-2.5536,-2.561,-2.5736,-2.5887,-2.6262,-2.6842,-2.7277,-2.7219,-2.7519,-2.7568,-2.7601,-2.7504,-2.7765,-2.7854,-2.8012,-2.8167,-2.8396,-2.8638,-2.8768,-2.8479,-2.9489,-2.9856,-2.9594,-3.0174,-3.0392,-3.0367,-3.0541,-3.0813,-3.1039,-3.1484,-3.1674,-3.1598,-3.1514,-3.1283,-3.083,-3.0249,-2.9907,-2.9579,-2.9241,-2.8731,-2.8192,-2.7646,-2.6976,-2.6441,-2.5933,-2.5588,-2.5451,-2.5751,-2.5879,-2.5945,-2.5981,-2.6034,-2.6142,-2.6229,-2.6264,-2.6262,-2.6719,-2.7178,-2.7726,-2.8198,-2.877,-2.9142,-2.9506,-2.9576,-2.9498,-2.9263,-2.8574,-2.8185,-2.8065,-2.7888,-2.7663,-2.777,-2.8012,-2.7974,-2.7908,-2.8075,-2.8215,-2.8061,-2.8043,-3.0588,-3.1001,-3.1061,-3.1041,-3.0948,-3.0942,-3.0985,-3.1033,-3.0931,-3.0931,-3.0931,-3.069,-3.0372,-3.0215,-3.0314,-3.0131,-2.9951,-2.9886,-2.9475,-2.8881,-2.817,-2.7378,-2.6731,-2.6092,-2.5642,-2.5315,-2.5428,-2.5127,-2.4889,-2.4766,-2.4786,-2.4685,-2.4557,-2.4393,-2.4548,-2.4737,-2.4902,-2.5018,-2.5396,-2.5539,-2.5702,-2.645,-2.6817,-2.693,-2.6991,-2.6983,-2.6868,-2.6505,-2.6441,-2.6584,-2.6825,-2.6977,-2.7324,-2.7618,-2.7915,-2.7921,-2.8705,-2.8886,-2.9016,-2.9581,-3.0233,-3.0354,-3.0384,-3.0798,-3.0882,-3.1566,-3.2024,-3.1569,-3.1385,-3.1082,-3.0521,-2.9894,-2.9218,-2.885,-2.8393,-2.791,-2.7398,-2.6829,-2.6353,-2.5866,-2.5405,-2.5182,-2.5216,-2.5656,-2.5815,-2.5823,-2.5747,-2.5616,-2.5629,-2.5649,-2.5691,-2.5705,-2.6012,-2.6488,-2.6887,-2.7612,-2.8419,-2.9056,-2.9419,-2.9452,-2.911,-2.8699,-2.8118,-2.7843,-2.7592,-2.7177,-2.6742,-2.7082,-2.7435,-2.745,-2.7482,-2.75,-2.7517,-2.738,-2.7409,-2.953,-2.9653,-2.9903,-3.001,-3.0048,-3.0133,-3.0197,-3.0222,-3.018,-3.0112,-3.0021,-2.9995,-2.9886,-2.9776,-2.9528,-2.9483,-2.9454,-2.8904,-2.8592,-2.8068,-2.7263,-2.6687,-2.6256,-2.5948,-2.5585,-2.5331,-2.5224,-2.5334,-2.5323,-2.4444,-2.4194,-2.3865,-2.4109,-2.4044,-2.4182,-2.4436,-2.4325,-2.4406,-2.4599,-2.4757,-2.4873,-2.5277,-2.5599,-2.5479,-2.5273,-2.5037,-2.4953,-2.498,-2.5061,-2.5188,-2.5557,-2.5857,-2.624,-2.6591,-2.6946,-2.7208,-2.766,-2.7837,-2.8054,-2.924,-3.0253,-3.0526,-3.0559,-3.0511,-3.0486,-3.0873,-3.1312,-3.1465,-3.0916,-3.0624,-3.0289,-2.9909,-2.851,-2.7735,-2.7217,-2.6975,-2.6451,-2.5959,-2.5503,-2.5168,-2.4963,-2.4875,-2.4728,-2.5112,-2.5475,-2.5487,-2.5181,-2.5042,-2.5144,-2.5194,-2.5272,-2.5332,-2.5435,-2.5675,-2.5781,-2.6531,-2.7572,-2.8084,-2.8381,-2.8398,-2.8268,-2.7857,-2.7437,-2.7018,-2.6662,-2.6237,-2.5975,-2.6263,-2.6589,-2.6902,-2.7017,-2.6871,-2.6985,-2.7066,-2.7114,-2.8857,-2.8865,-2.8693,-2.8996,-2.9607,-2.9518,-2.9534,-2.9556,-2.9429,-2.9102,-2.8794,-2.8927,-2.8787,-2.8457,-2.8299,-2.8203,-2.8139,-2.7798,-2.764,-2.7355,-2.6714,-2.6216,-2.5931,-2.5374,-2.4847,-2.4612,-2.466,-2.4511,-2.4129,-2.3778,-2.3683,-2.3552,-2.3608,-2.4007,-2.413,-2.4368,-2.4327,-2.4244,-2.4367,-2.4599,-2.4541,-2.4706,-2.4895,-2.4768,-2.4726,-2.4627,-2.4641,-2.4542,-2.4698,-2.4904,-2.5124,-2.5352,-2.5616,-2.608,-2.6324,-2.6498,-2.6993,-2.7227,-2.7422,-2.8775,-3.0002,-2.9987,-2.9854,-2.9687,-2.9674,-2.9744,-2.9905,-2.9919,-2.9782,-2.9434,-2.858,-2.7914,-2.7021,-2.6334,-2.6014,-2.5961,-2.5617,-2.5189,-2.4874,-2.4628,-2.475,-2.4832,-2.4637,-2.4508,-2.484,-2.5101,-2.4761,-2.4505,-2.4572,-2.4539,-2.4534,-2.4553,-2.4636,-2.5026,-2.517,-2.5944,-2.6782,-2.7029,-2.7281,-2.7331,-2.7296,-2.7041,-2.663,-2.617,-2.5824,-2.554,-2.5419,-2.5478,-2.5715,-2.6021,-2.6107,-2.6035,-2.6282,-2.6674,-2.6757,-2.8165,-2.814,-2.7835,-2.8189,-2.8834,-2.8599,-2.8543,-2.8583,-2.824,-2.7926,-2.7585,-2.7877,-2.7803,-2.736,-2.7208,-2.7208,-2.7107,-2.6824,-2.6643,-2.6313,-2.5914,-2.559,-2.5148,-2.4599,-2.3984,-2.3619,-2.325,-2.2992,-2.2592,-2.2586,-2.2366,-2.2295,-2.2537,-2.2959,-2.3815,-2.4188,-2.4239,-2.4108,-2.4108,-2.4182,-2.3949,-2.3992,-2.4021,-2.3888,-2.3816,-2.3758,-2.3776,-2.3803,-2.4086,-2.4433,-2.4761,-2.5165,-2.5557,-2.5948,-2.6135,-2.6316,-2.6504,-2.6899,-2.7288,-2.8175,-2.9282,-2.9146,-2.9018,-2.8771,-2.8634,-2.8652,-2.8957,-2.8961,-2.8543,-2.7996,-2.7448,-2.7358,-2.6753,-2.6263,-2.5753,-2.5557,-2.5064,-2.4618,-2.4368,-2.416,-2.4262,-2.4211,-2.3751,-2.3505,-2.3972,-2.4368,-2.4559,-2.4185,-2.3924,-2.3829,-2.3607,-2.3614,-2.3658,-2.4137,-2.4682,-2.4981,-2.5262,-2.561,-2.5871,-2.625,-2.6236,-2.5994,-2.5986,-2.586,-2.5486,-2.4999,-2.4787,-2.4714,-2.4906,-2.5144,-2.5294,-2.5521,-2.5905,-2.6297,-2.6297,-2.7386,-2.7452,-2.7499,-2.761,-2.772,-2.7327,-2.721,-2.7221,-2.6742,-2.6544,-2.6657,-2.6927,-2.6964,-2.6769,-2.646,-2.6369,-2.625,-2.5822,-2.5577,-2.537,-2.4895,-2.4481,-2.4076,-2.3619,-2.304,-2.2494,-2.2144,-2.1698,-2.1078,-2.1152,-2.0962,-2.0899,-2.1171,-2.1573,-2.2786,-2.2805,-2.2739,-2.2726,-2.2726,-2.2714,-2.2739,-2.2751,-2.2776,-2.2744,-2.2651,-2.2613,-2.258,-2.2746,-2.2979,-2.3211,-2.3845,-2.4172,-2.4436,-2.4995,-2.5455,-2.5999,-2.5773,-2.602,-2.6553,-2.7584,-2.7761,-2.7964,-2.7872,-2.7834,-2.7913,-2.8025,-2.8038,-2.7959,-2.8158,-2.8144,-2.7991,-2.7663,-2.671,-2.6024,-2.5442,-2.4872,-2.4365,-2.4073,-2.3795,-2.33,-2.3275,-2.3215,-2.267,-2.2431,-2.2998,-2.3501,-2.4033,-2.3915,-2.3434,-2.3134,-2.2888,-2.3016,-2.3057,-2.3097,-2.3507,-2.3511,-2.3722,-2.4097,-2.4357,-2.4634,-2.4851,-2.4702,-2.4856,-2.5198,-2.4711,-2.3815,-2.3807,-2.3888,-2.396,-2.4076,-2.4887,-2.5272,-2.5626,-2.5846,-2.583,-2.6068,-2.6095,-2.6135,-2.6162,-2.6269,-2.6695,-2.668,-2.6388,-2.6226,-2.5984,-2.5782,-2.5943,-2.5754,-2.5467,-2.5232,-2.5134,-2.4966,-2.4738,-2.4463,-2.4234,-2.3868,-2.3399,-2.2967,-2.2573,-2.2039,-2.1416,-2.1049,-2.0942,-2.0751,-2.0322,-2.0332,-2.0396,-2.0183,-2.0579,-2.1026,-2.1112,-2.108,-2.1028,-2.1051,-2.1186,-2.1365,-2.1531,-2.1657,-2.171,-2.1643,-2.152,-2.142,-2.1655,-2.1811,-2.2046,-2.2676,-2.2831,-2.3196,-2.3738,-2.4218,-2.4684,-2.4564,-2.4779,-2.4458,-2.4492,-2.5003,-2.5878,-2.6547,-2.6371,-2.6152,-2.6502,-2.6659,-2.6748,-2.6814,-2.6631,-2.6295,-2.6284,-2.5691,-2.5218,-2.4665,-2.4054,-2.3608,-2.3392,-2.3113,-2.2375,-2.2075,-2.2106,-2.1791,-2.1342,-2.1705,-2.195,-2.2362,-2.2932,-2.2723,-2.2485,-2.2295,-2.2561,-2.2634,-2.2389,-2.2333,-2.2592,-2.2623,-2.2861,-2.2838,-2.2723,-2.2926,-2.3344,-2.3249,-2.3368,-2.3003,-2.2638,-2.2635,-2.2651,-2.2684,-2.2988,-2.3746,-2.4491,-2.4899,-2.5134,-2.5304,-2.5328,-2.5342,-2.5398,-2.5273,-2.5203,-2.5715,-2.5632,-2.5245,-2.5259,-2.505,-2.4696,-2.4597,-2.4326,-2.3875,-2.3581,-2.3463,-2.3344,-2.319,-2.2992,-2.2829,-2.2738,-2.2255,-2.1811,-2.1491,-2.0994,-2.0398,-2.0009,-1.9879,-1.9529,-1.9399,-1.9339,-1.9375,-1.9431,-1.9539,-1.9809,-2.0088,-2.0478,-2.0554,-2.0651,-2.0717,-2.0834,-2.0897,-2.0982,-2.1027,-2.1008,-2.0903,-2.0783,-2.0776,-2.0885,-2.1138,-2.1358,-2.1564,-2.2092,-2.2501,-2.2945,-2.3264,-2.3276,-2.3281,-2.2608,-2.2268,-2.2913,-2.3609,-2.4263,-2.4302,-2.3997,-2.4161,-2.4361,-2.4536,-2.4819,-2.485,-2.4689,-2.4774,-2.4667,-2.419,-2.3773,-2.3169,-2.3077,-2.289,-2.2218,-2.1495,-2.1161,-2.1106,-2.0924,-2.0549,-2.0371,-2.0482,-2.0651,-2.1271,-2.1927,-2.1784,-2.1582,-2.1743,-2.193,-2.1706,-2.1704,-2.1951,-2.1918,-2.1697,-2.1616,-2.1529,-2.1808,-2.2304,-2.1924,-2.1689,-2.1942,-2.1958,-2.1486,-2.1393,-2.168,-2.1983,-2.2449,-2.3238,-2.4006,-2.4374,-2.4623,-2.5119,-2.5147,-2.5259,-2.4922,-2.4523,-2.4394,-2.4076,-2.3586,-2.3543,-2.3543,-2.3497,-2.2895,-2.2793,-2.258,-2.2013,-2.1851,-2.1882,-2.1808,-2.1655,-2.1487,-2.1499,-2.1078,-2.0762,-2.0453,-1.9987,-1.9495,-1.9075,-1.8721,-1.8071,-1.7709,-1.7716,-1.7845,-1.7835,-1.8016,-1.8514,-1.9002,-1.9674,-1.9957,-2.0031,-2.012,-2.0292,-2.0492,-2.0396,-2.0328,-2.025,-2.0189,-2.0102,-2.017,-2.0319,-2.0539,-2.0778,-2.1092,-2.14,-2.16,-2.1898,-2.2088,-2.2039,-2.1521,-2.119,-2.0935,-2.0504,-2.088,-2.1358,-2.1476,-2.1918,-2.2364,-2.2742,-2.2776,-2.2949,-2.3063,-2.3144,-2.3305,-2.3443,-2.3085,-2.2764,-2.2557,-2.2568,-2.215,-2.1364,-2.0842,-2.0577,-2.0369,-1.9953,-1.9568,-1.9494,-1.9432,-1.9598,-1.9897,-2.0514,-2.1005,-2.0813,-2.067,-2.0831,-2.0916,-2.1014,-2.1106,-2.0957,-2.0671,-2.0898,-2.0912,-2.1158,-2.1074,-2.0655,-2.0617,-2.1313,-2.1351,-2.0835,-2.0742,-2.0938,-2.1269,-2.1779,-2.2226,-2.309,-2.3586,-2.387,-2.3543,-2.3708,-2.3531,-2.3437,-2.3275,-2.2725,-2.2561,-2.2786,-2.2421,-2.2187,-2.2144,-2.183,-2.1918,-2.2277,-2.1694,-2.1557,-2.1516,-2.1403,-2.1092,-2.0826,-2.0497,-2.0117,-1.9758,-1.9419,-1.8992,-1.8462,-1.8012,-1.765,-1.6877,-1.6271,-1.5825,-1.5711,-1.6192,-1.6356,-1.6621,-1.6945,-1.8036,-1.8843,-1.8964,-1.9216,-1.9488,-1.9595,-1.9401,-1.9174,-1.9021,-1.889,-1.8647,-1.8498,-1.848,-1.8517,-1.9079,-1.9383,-1.9047,-2.012,-2.1102,-2.1686,-2.104,-2.0118,-1.99,-1.9078,-1.8449,-1.8267,-1.8651,-1.9716,-2.0437,-2.1073,-2.1396,-2.1365,-2.1388,-2.1656,-2.1869,-2.2048,-2.2304,-2.2267,-2.1933,-2.1663,-2.1663,-2.1374,-2.0653,-2.0263,-2.0004,-1.9737,-1.9264,-1.9015,-1.892,-1.8681,-1.8633,-1.8897,-1.924,-1.9811,-2.01,-1.9923,-2.0151,-2.0367,-2.0058,-2.0029,-1.9848,-1.9703,-2.0027,-2.0041,-1.9662,-1.9485,-1.9253,-1.9429,-1.9969,-2.0167,-2.013,-2.0154,-2.0317,-2.0936,-2.1446,-2.1749,-2.2108,-2.2749,-2.333,-2.1951,-2.2082,-2.1951,-2.192,-2.1858,-2.1144,-2.1069,-2.1373,-2.1322,-2.129,-2.1239,-2.1094,-2.1158,-2.1273,-2.0919,-2.0739,-2.0888,-2.0624,-2.0117,-1.929,-1.9531,-1.8476,-1.8075,-1.7875,-1.7339,-1.6934,-1.6669,-1.6325,-1.5706,-1.5237,-1.4809,-1.4821,-1.4977,-1.5069,-1.537,-1.5755,-1.6228,-1.6985,-1.7505,-1.7838,-1.8118,-1.8305,-1.7977,-1.7757,-1.7588,-1.7265,-1.6938,-1.671,-1.6456,-1.647,-1.7109,-1.7034,-1.6871,-1.7932,-1.8395,-1.8779,-1.8683,-1.7851,-1.7468,-1.7219,-1.6631,-1.6394,-1.6447,-1.706,-1.8114,-1.8874,-1.9444,-1.9796,-2.012,-2.0421,-2.0607,-2.0826,-2.1207,-2.1557,-2.1132,-2.0679,-2.0597,-2.054,-2.0144,-1.9699,-1.9437,-1.9218,-1.8904,-1.8612,-1.837,-1.8091,-1.7998,-1.8094,-1.8492,-1.8984,-1.9262,-1.9244,-1.9647,-1.9981,-1.9587,-1.9365,-1.9465,-1.9501,-1.9591,-1.9399,-1.8567,-1.8419,-1.8683,-1.8599,-1.8481,-1.8857,-1.936,-1.9533,-1.975,-2.0382,-2.0955,-2.1264,-2.1655,-2.2256,-2.284,-2.059,-2.0655,-2.0602,-2.0623,-2.043,-1.9879,-1.9628,-1.9573,-2.015,-2.0603,-2.0553,-2.0431,-2.0307,-2.0379,-1.9899,-1.967,-1.9597,-1.9354,-1.8579,-1.7423,-1.776,-1.7108,-1.6206,-1.5526,-1.5961,-1.5436,-1.5067,-1.5173,-1.4729,-1.4208,-1.3926,-1.4336,-1.4194,-1.41,-1.4207,-1.4282,-1.4544,-1.4766,-1.5529,-1.6086,-1.6573,-1.6684,-1.6561,-1.6442,-1.6269,-1.6,-1.5787,-1.5387,-1.4836,-1.4918,-1.5054,-1.5034,-1.539,-1.5616,-1.5667,-1.5734,-1.6314,-1.6119,-1.5808,-1.5652,-1.5457,-1.513,-1.4844,-1.5414,-1.6428,-1.7118,-1.7704,-1.7862,-1.8083,-1.822,-1.8387,-1.8465,-1.874,-1.9001,-1.8882,-1.8864,-1.9,-1.8905,-1.8718,-1.8394,-1.8281,-1.8057,-1.7772,-1.7441,-1.7139,-1.716,-1.7123,-1.7148,-1.7432,-1.791,-1.8355,-1.8496,-1.9031,-1.9382,-1.9328,-1.9222,-1.9446,-1.9519,-1.9272,-1.8898,-1.8185,-1.8161,-1.8321,-1.8117,-1.7943,-1.8291,-1.8693,-1.8907,-1.9242,-1.9796,-2.0305,-2.0701,-2.1181,-2.165,-2.2443,-2.0376,-2.059,-2.043,-2.0107,-1.9595,-1.9266,-1.8965,-1.8728,-1.8449,-1.8854,-1.9431,-1.9402,-1.9565,-1.9766,-1.8869,-1.8527,-1.8524,-1.8048,-1.6975,-1.6517,-1.6485,-1.598,-1.5315,-1.5024,-1.5078,-1.49,-1.4595,-1.3961,-1.3294,-1.2787,-1.2354,-1.2254,-1.2241,-1.2324,-1.2235,-1.2331,-1.2479,-1.2499,-1.3008,-1.4119,-1.5105,-1.5534,-1.5629,-1.5024,-1.4562,-1.418,-1.3968,-1.3782,-1.3653,-1.378,-1.4418,-1.4781,-1.5126,-1.5157,-1.5157,-1.5149,-1.4936,-1.4764,-1.4699,-1.4587,-1.4543,-1.4736,-1.4756,-1.4965,-1.5343,-1.5629,-1.5798,-1.5877,-1.6026,-1.6158,-1.6281,-1.6342,-1.635,-1.657,-1.6773,-1.7109,-1.7446,-1.7375,-1.7261,-1.719,-1.7065,-1.6887,-1.6629,-1.6329,-1.5989,-1.5815,-1.5745,-1.5763,-1.5956,-1.6402,-1.7276,-1.7648,-1.8341,-1.8657,-1.862,-1.8546,-1.8514,-1.8571,-1.838,-1.8049,-1.7775,-1.7794,-1.782,-1.7636,-1.7575,-1.7936,-1.8218,-1.8408,-1.8761,-1.9288,-1.9741,-2.0202,-2.0365,-2.0733,-2.1797,-1.91,-1.9245,-1.8826,-1.8468,-1.8115,-1.7685,-1.743,-1.7323,-1.7033,-1.7348,-1.8055,-1.8175,-1.8406,-1.8762,-1.7879,-1.7644,-1.7682,-1.7153,-1.6323,-1.5776,-1.5327,-1.4699,-1.441,-1.4086,-1.3627,-1.3358,-1.2783,-1.2094,-1.1583,-1.0764,-1.0187,-1.0116,-1.0105,-1.0072,-0.9939,-1.0092,-1.0224,-1.0072,-1.0496,-1.1409,-1.2869,-1.3074,-1.316,-1.2626,-1.2205,-1.1969,-1.1735,-1.1612,-1.1677,-1.2054,-1.2679,-1.3165,-1.3366,-1.3352,-1.3424,-1.348,-1.3561,-1.3711,-1.3696,-1.3755,-1.38,-1.3915,-1.4021,-1.3973,-1.374,-1.4072,-1.495,-1.5083,-1.5655,-1.5889,-1.5823,-1.5804,-1.5721,-1.5808,-1.5929,-1.609,-1.6459,-1.6675,-1.6675,-1.6727,-1.6587,-1.6402,-1.6176,-1.5923,-1.5552,-1.5054,-1.4887,-1.4851,-1.4966,-1.4931,-1.5799,-1.6472,-1.6957,-1.7104,-1.681,-1.6879,-1.7101,-1.7198,-1.7389,-1.7552,-1.7521,-1.7385,-1.7262,-1.7327,-1.7434,-1.7632,-1.7861,-1.8035,-1.8372,-1.8865,-1.9307,-1.9746,-1.9803,-1.9868,-2.0691,-1.7373,-1.7285,-1.676,-1.651,-1.6486,-1.5961,-1.5885,-1.6027,-1.598,-1.615,-1.6511,-1.6797,-1.6768,-1.6971,-1.6903,-1.7017,-1.6806,-1.6155,-1.5516,-1.4914,-1.4645,-1.361,-1.2669,-1.2018,-1.1702,-1.1184,-1.0567,-1.0186,-0.9825,-0.9103,-0.8608,-0.8122,-0.8042,-0.8084,-0.8094,-0.8237,-0.8515,-0.8556,-0.8709,-0.8621,-0.919,-0.9837,-1.0319,-1.0117,-0.9681,-0.9521,-0.9397,-0.9356,-0.9533,-1.0003,-1.0752,-1.1076,-1.1459,-1.1537,-1.1441,-1.154,-1.2188,-1.2196,-1.2177,-1.2665,-1.266,-1.2668,-1.2744,-1.2808,-1.2673,-1.3087,-1.3968,-1.4411,-1.4996,-1.5136,-1.5049,-1.5008,-1.4908,-1.4737,-1.482,-1.4768,-1.5161,-1.5509,-1.5627,-1.5716,-1.5597,-1.5418,-1.5255,-1.5062,-1.4801,-1.432,-1.4214,-1.4294,-1.4258,-1.4034,-1.435,-1.47,-1.5013,-1.5021,-1.5234,-1.5552,-1.5983,-1.6219,-1.6498,-1.6966,-1.7239,-1.6992,-1.7022,-1.7349,-1.7474,-1.7451,-1.7571,-1.7758,-1.8103,-1.8355,-1.8539,-1.8833,-1.8973,-1.911,-1.9529,-1.6202,-1.5683,-1.5757,-1.5825,-1.5831,-1.5855,-1.5981,-1.5934,-1.5599,-1.5492,-1.535,-1.5174,-1.5524,-1.6855,-1.6219,-1.5913,-1.5591,-1.4967,-1.4288,-1.3628,-1.318,-1.2231,-1.1382,-1.0665,-0.9837,-0.9291,-0.8908,-0.868,-0.8418,-0.8033,-0.7838,-0.7651,-0.7536,-0.754,-0.7544,-0.7594,-0.7486,-0.7439,-0.7401,-0.7399,-0.7438,-0.8073,-0.8753,-0.8737,-0.8549,-0.8553,-0.8536,-0.8412,-0.8605,-0.8801,-0.9042,-0.9277,-0.9635,-1.005,-1.0065,-1.0141,-1.0789,-1.0993,-1.1162,-1.1433,-1.1432,-1.2406,-1.2594,-1.2757,-1.2722,-1.2826,-1.3355,-1.3397,-1.3715,-1.3596,-1.3542,-1.3581,-1.3509,-1.3219,-1.3133,-1.2852,-1.2915,-1.3112,-1.3259,-1.328,-1.3259,-1.3149,-1.3061,-1.3005,-1.3153,-1.2872,-1.2981,-1.3062,-1.3288,-1.3142,-1.2989,-1.3208,-1.3419,-1.4163,-1.4914,-1.4879,-1.5163,-1.5367,-1.5614,-1.6114,-1.6411,-1.6515,-1.6629,-1.6673,-1.6994,-1.712,-1.726,-1.7304,-1.7476,-1.7638,-1.7691,-1.7842,-1.8022,-1.8317,-1.871]},{"header":{"parameterUnit":"m.s-1","parameterCategory":1,"la1":31.0,"la2":29.5877,"lo1":-88.7671,"lo2":-86.6584,"dy":0.0162,"dx":0.0185,"nx":115,"ny":88,"refTime":"2025-08-17T12:00:00:Z","depth":0,"parameterNumber":3,"parameterNumberName":"V-component_of_WINDS"},"data":[0.0,0.0,0.0,0.0,0.0,0.0,0.0,0.0,0.0,0.0,0.0,0.0,0.0,0.0,0.0,0.0,0.0,0.0,0.0,0.0,0.0,0.0,0.0,0.0,0.0,0.0,0.0,0.0,0.0,0.0,0.0,0.0,0.0,0.0,0.0,0.0,0.0,0.0,0.0,0.0,0.0,0.0,0.0,0.0,0.0,0.0,0.0,0.0,0.0,0.0,0.0,0.0,0.0,0.0,0.0,0.0,0.0,0.0,0.0,0.0,0.0,0.0,0.0,0.0,0.0,0.0,0.0,0.0,0.0,0.0,0.0,0.0,0.0,0.0,0.0,0.0,0.0,0.0,0.0,0.0,0.0,0.0,0.0,0.0,0.0,0.0,0.0,0.0,0.0,0.0,0.0,0.0,0.0,0.0,0.0,0.0,0.0,0.0,0.0,0.0,0.0,0.0,0.0,0.0,0.0,0.0,0.0,0.0,0.0,0.0,0.0,0.0,0.0,0.0,0.0,0.0,0.0,0.0,0.0,0.0,0.0,0.0,0.0,0.0,0.0,0.0,0.0,0.0,0.0,0.0,0.0,0.0,0.0,0.0,0.0,0.0,0.0,0.0,0.0,0.0,0.0,0.0,0.0,0.0,0.0,0.0,0.0,0.0,0.0,0.0,0.0,0.0,0.0,0.0,0.0,0.0,0.0,0.0,0.0,0.0,0.0,0.0,0.0,0.0,0.0,0.0,0.0,0.0,0.0,0.0,0.0,0.0,0.0,0.0,0.0,0.0,0.0,0.0,0.0,0.0,0.0,0.0,0.0,0.0,0.0,0.0,0.0,0.0,0.0,0.0,0.0,0.0,0.0,0.0,0.0,0.0,0.0,0.0,0.0,0.0,0.0,0.0,0.0,0.0,0.0,0.0,0.0,0.0,0.0,0.0,0.0,0.0,0.0,0.0,0.0,0.0,0.0,0.0,0.0,0.0,0.0,0.0,0.0,0.0,0.0,0.0,0.0,0.0,0.0,0.0,0.0,0.0,0.0,0.0,0.0,0.0,0.0,0.0,0.0,0.0,0.0,0.0,0.0,0.0,0.0,0.0,0.0,0.0,0.0,0.0,0.0,0.0,0.0,0.0,0.0,0.0,0.0,0.0,0.0,0.0,0.0,0.0,0.0,0.0,0.0,0.0,0.0,0.0,0.0,0.0,0.0,0.0,0.0,0.0,0.0,0.0,0.0,0.0,0.0,0.0,0.0,0.0,0.0,0.0,0.0,0.0,0.0,0.0,0.0,0.0,0.0,0.0,0.0,0.0,0.0,0.0,0.0,0.0,0.0,0.0,0.0,0.0,0.0,0.0,0.0,0.0,0.0,0.0,0.0,0.0,0.0,0.0,0.0,0.0,0.0,0.0,0.0,0.0,0.0,0.0,0.0,0.0,0.0,0.0,0.0,0.0,0.0,0.0,0.0,0.0,0.0,0.0,0.0,0.0,0.0,0.0,0.0,0.0,0.0,0.0,0.0,0.0,0.0,0.0,0.0,0.0,0.0,0.0,0.0,0.0,0.0,0.0,0.0,0.0,0.0,0.0,0.0,0.0,0.0,0.0,0.0,0.0,0.0,0.0,0.0,0.0,0.0,0.0,0.0,0.0,0.0,0.0,0.0,0.0,0.0,0.0,0.0,0.0,0.0,0.0,0.0,0.0,0.0,0.0,0.0,0.0,0.0,0.0,0.0,0.0,0.0,0.0,0.0,0.0,0.0,0.0,0.0,0.0,0.0,0.0,0.0,0.0,0.0,0.0,0.0,0.0,0.0,0.0,0.0,0.0,0.0,0.0,0.0,0.0,0.0,0.0,0.0,0.0,0.0,0.0,0.0,0.0,0.0,0.0,0.0,0.0,0.0,0.0,0.0,0.0,0.0,0.0,0.0,0.0,0.0,0.0,0.0,0.0,0.0,0.0,0.0,0.0,0.0,0.0,0.0,0.0,0.0,0.0,0.0,0.0,0.0,0.0,0.0,0.0,0.0,0.0,0.0,0.0,0.0,0.0,0.0,0.0,0.0,0.0,0.0,0.0,0.0,0.0,0.0,0.0,0.0,0.0,0.0,0.0,0.0,0.0,0.0,0.0,0.0,0.0,0.0,0.0,0.0,0.0,0.0,0.0,0.0,0.0,0.0,0.0,0.0,0.0,0.0,0.0,0.0,0.0,0.0,0.0,0.0,0.0,0.0,0.0,0.0,0.0,0.0,0.0,0.0,0.0,0.0,0.0,0.0,0.0,0.0,0.0,0.0,0.0,0.0,0.0,0.0,0.0,0.0,0.0,0.0,0.0,0.0,0.0,0.0,0.0,0.0,0.0,0.0,0.0,0.0,0.0,0.0,0.0,0.0,0.0,0.0,0.0,0.0,0.0,0.0,0.0,0.0,0.0,0.0,0.0,0.0,0.0,0.0,0.0,0.0,0.0,0.0,0.0,0.0,0.0,0.0,0.0,0.0,0.0,0.0,0.0,0.0,0.0,0.0,0.0,0.0,0.0,0.0,0.0,0.0,0.0,0.0,0.0,0.0,0.0,0.0,0.0,0.0,0.0,0.0,0.0,0.0,0.0,0.0,0.0,0.0,0.0,0.0,0.0,0.0,0.0,0.0,0.0,0.0,0.0,0.0,0.0,0.0,0.0,0.0,0.0,0.0,0.0,0.0,0.0,0.0,0.0,0.0,0.0,0.0,0.0,0.0,0.0,0.0,0.0,0.0,0.0,0.0,0.0,0.0,0.0,0.0,0.0,0.0,0.0,0.0,0.0,0.0,0.0,0.0,0.0,0.0,0.0,0.0,0.0,0.0,0.0,0.0,0.0,0.0,0.0,0.0,0.0,0.0,0.0,0.0,0.0,0.0,0.0,0.0,0.0,0.0,0.0,0.0,0.0,0.0,0.0,0.0,0.0,0.0,0.0,0.0,0.0,0.0,0.0,0.0,0.0,0.0,0.0,0.0,0.0,0.0,0.0,0.0,0.0,0.0,0.0,0.0,0.0,0.0,0.0,0.0,0.0,0.0,0.0,0.0,0.0,0.0,0.0,0.0,0.0,0.0,0.0,0.0,0.0,0.0,0.0,0.0,0.0,0.0,0.0,0.0,0.0,0.0,0.0,0.0,0.0,0.0,0.0,0.0,0.0,0.0,0.0,0.0,0.0,0.0,0.0,0.0,0.0,0.0,0.0,0.0,0.0,0.0,0.0,0.0,0.0,0.0,0.0,0.0,0.0,0.0,0.0,0.0,0.0,0.0,0.0,0.0,0.0,0.0,0.0,0.0,0.0,0.0,0.0,0.0,0.0,0.0,0.0,0.0,0.0,0.0,0.0,0.0,0.0,0.0,0.0,0.0,0.0,0.0,0.0,0.0,0.0,0.0,0.0,0.0,0.0,0.0,0.0,0.0,0.0,0.0,0.0,0.0,0.0,0.0,0.0,0.0,0.0,0.0,0.0,0.0,0.0,0.0,0.0,0.0,0.0,0.0,0.0,0.0,0.0,0.0,0.0,0.0,0.0,0.0,0.0,0.0,0.0,0.0,0.0,0.0,0.0,0.0,0.0,0.0,0.0,0.0,0.0,0.0,0.0,0.0,0.0,0.0,0.0,0.0,0.0,0.0,0.0,0.0,0.0,0.0,0.0,0.0,0.0,0.0,0.0,0.0,0.0,0.0,0.0,0.0,0.0,0.0,0.0,0.0,0.0,0.0,0.0,0.0,0.0,0.0,0.0,0.0,0.0,0.0,0.0,0.0,0.0,0.0,0.0,0.0,0.0,0.0,0.0,0.0,0.0,0.0,0.0,0.0,0.0,0.0,0.0,0.0,0.0,0.0,0.0,0.0,0.0,0.0,0.0,0.0,0.0,0.0,0.0,0.0,0.0,0.0,0.0,0.0,0.0,0.0,0.0,0.0,0.0,0.0,0.0,0.0,0.0,0.0,0.0,0.0,0.0,0.0,0.0,0.0,0.0,0.0,0.0,0.0,0.0,0.0,0.0,0.0,0.0,0.0,0.0,0.0,0.0,0.0,0.0,0.0,0.0,0.0,0.0,0.0,0.0,0.0,0.0,0.0,0.0,0.0,0.0,0.0,0.0,0.0,0.0,0.0,0.0,0.0,0.0,0.0,0.0,0.0,0.0,0.0,0.0,0.0,0.0,0.0,0.0,0.0,0.0,0.0,0.0,0.0,0.0,0.0,0.0,0.0,0.0,0.0,0.0,0.0,0.0,0.0,0.0,0.0,0.0,0.0,0.0,0.0,0.0,1.5964,0.0,0.0,0.0,0.0,0.0,0.0,0.0,0.0,0.0,0.0,0.0,0.0,0.0,0.0,0.0,0.0,0.0,0.0,0.0,0.0,0.0,0.0,0.0,0.0,0.0,0.0,0.0,0.0,0.0,0.0,0.0,0.0,0.0,0.0,0.0,0.0,0.0,0.0,0.0,0.0,0.0,0.0,0.0,0.0,0.0,0.0,0.0,0.0,0.0,0.0,0.0,0.0,0.0,0.0,0.0,0.0,0.0,0.0,0.0,0.0,0.0,0.0,0.0,0.0,0.0,0.0,0.0,0.0,0.0,0.0,0.0,0.0,0.0,0.0,0.0,0.0,0.0,0.0,0.0,0.0,0.0,0.0,0.0,0.0,0.0,0.0,0.0,0.0,0.0,0.0,0.0,0.0,0.0,0.0,0.0,0.0,0.0,0.0,0.0,0.0,0.0,0.0,0.0,0.0,0.0,0.0,0.0,0.0,0.0,0.0,2.0216,2.0153,1.9929,1.9032,1.7401,0.0,0.0,0.0,0.0,0.0,0.0,0.0,0.0,0.0,0.0,0.0,0.0,0.0,0.0,0.0,0.0,0.0,0.0,0.0,0.0,0.0,0.0,0.0,0.0,0.0,0.0,0.0,0.0,0.0,0.0,0.0,0.0,0.0,0.0,0.0,0.0,0.0,0.0,0.0,0.0,0.0,0.0,0.0,0.0,0.0,0.0,0.0,0.0,0.0,0.0,0.0,0.0,0.0,0.0,0.0,0.0,0.0,0.0,0.0,0.0,0.0,0.0,0.0,0.0,0.0,0.0,0.0,0.0,0.0,0.0,0.0,0.0,0.0,0.0,0.0,0.0,0.0,0.0,0.0,0.0,0.0,0.0,0.0,0.0,0.0,0.0,0.0,0.0,0.0,0.0,0.0,0.0,0.0,0.0,0.0,0.0,0.0,0.0,0.0,0.0,0.0,0.0,0.0,0.0,0.0,0.0,0.0,0.0,0.0,0.0,0.0,0.0,2.0185,1.9375,1.7622,0.0,0.0,0.0,0.0,0.0,0.0,0.0,0.0,0.0,0.0,0.0,0.0,0.0,0.0,0.0,0.0,0.0,0.0,0.0,0.0,0.0,0.0,0.0,0.0,0.0,0.0,0.0,0.0,0.0,0.0,0.0,0.0,0.0,0.0,0.0,0.0,0.0,0.0,0.0,0.0,0.0,0.0,0.0,0.0,0.0,0.0,0.0,0.0,0.0,0.0,0.0,0.0,0.0,0.0,0.0,0.0,0.0,0.0,0.0,0.0,0.0,0.0,0.0,0.0,0.0,0.0,0.0,0.0,0.0,0.0,0.0,0.0,0.0,0.0,0.0,0.0,0.0,0.0,0.0,0.0,0.0,0.0,0.0,0.0,0.0,0.0,0.0,0.0,0.0,0.0,0.0,0.0,0.0,0.0,0.0,0.0,0.0,0.0,0.0,0.0,0.0,0.0,0.0,0.0,0.0,0.0,0.0,0.0,0.0,0.0,1.9907,2.0019,1.9996,0.0,1.7437,0.0,0.0,0.0,0.0,0.0,0.0,0.0,0.0,0.0,0.0,0.0,0.0,0.0,0.0,0.0,0.0,0.0,0.0,0.0,0.0,0.0,0.0,0.0,0.0,0.0,0.0,0.0,0.0,0.0,0.0,0.0,0.0,0.0,0.0,0.0,0.0,0.0,0.0,0.0,0.0,0.0,0.0,0.0,0.0,0.0,0.0,0.0,0.0,0.0,0.0,0.0,0.0,0.0,0.0,0.0,0.0,0.0,0.0,0.0,0.0,0.0,0.0,0.0,0.0,0.0,0.0,0.0,0.0,0.0,0.0,0.0,0.0,0.0,0.0,0.0,0.0,0.0,0.0,0.0,0.0,0.0,0.0,0.0,0.0,0.0,0.0,0.0,0.0,0.0,0.0,0.0,0.0,0.0,0.0,0.0,0.0,0.0,0.0,0.0,0.0,0.0,0.0,0.0,0.0,0.0,0.0,0.0,0.0,0.0,0.0,1.9367,1.9401,1.8491,1.76,0.0,0.0,0.0,0.0,0.0,0.0,0.0,0.0,0.0,0.0,0.0,0.0,0.0,0.0,0.0,0.0,0.0,0.0,0.0,0.0,0.0,0.0,0.0,0.0,0.0,0.0,0.0,0.0,0.0,0.0,0.0,0.0,0.0,0.0,0.0,0.0,0.0,0.0,0.0,0.0,0.0,0.0,0.0,0.0,0.0,0.0,0.0,0.0,0.0,0.0,0.0,0.0,0.0,0.0,0.0,0.0,0.0,0.0,0.0,0.0,0.0,0.0,0.0,0.0,0.0,0.0,0.0,0.0,0.0,0.0,0.0,0.0,0.0,0.0,0.0,0.0,0.0,0.0,0.0,0.0,0.0,0.0,0.0,0.0,0.0,0.0,0.0,0.0,0.0,0.0,0.0,0.0,0.0,0.0,0.0,0.0,0.0,0.0,0.0,0.0,0.0,0.0,0.0,0.0,0.0,0.0,0.0,0.0,0.0,0.0,1.843,0.0,1.8463,1.7119,1.6121,1.5628,0.0,0.0,0.0,0.0,0.0,0.0,0.0,0.0,0.0,0.0,0.0,0.0,0.0,0.0,0.0,0.0,0.0,0.0,0.0,0.0,0.0,0.0,0.0,0.0,0.0,0.0,0.0,0.0,0.0,0.0,0.0,0.0,0.0,0.0,0.0,0.0,0.0,0.0,0.0,0.0,0.0,0.0,0.0,0.0,0.0,0.0,0.0,0.0,0.0,0.0,0.0,0.0,0.0,0.0,0.0,0.0,0.0,0.0,0.0,0.0,0.0,0.0,0.0,0.0,0.0,0.0,0.0,0.0,0.0,0.0,0.0,0.0,0.0,0.0,0.0,0.0,0.0,0.0,0.0,0.0,0.0,0.0,0.0,0.0,0.0,0.0,0.0,0.0,0.0,0.0,0.0,0.0,0.0,0.0,0.0,0.0,0.0,0.0,0.0,0.0,0.0,0.0,0.0,0.0,0.0,0.0,0.0,0.0,0.0,1.7316,1.744,1.7321,1.6297,1.5242,0.0,0.0,0.0,0.0,0.0,0.0,0.0,0.0,0.0,0.0,0.0,0.0,0.0,0.0,0.0,0.0,0.0,0.0,0.0,0.0,0.0,0.0,0.0,0.0,0.0,0.0,0.0,0.0,0.0,0.0,0.0,0.0,0.0,0.0,0.0,0.0,0.0,0.0,0.0,0.0,0.0,0.0,0.0,0.0,0.0,0.0,0.0,0.0,0.0,0.0,0.0,0.0,0.0,0.0,0.0,0.0,0.0,0.0,0.0,0.0,0.0,0.0,0.0,0.0,0.0,0.0,0.0,0.0,0.0,0.0,0.0,0.0,0.0,0.0,0.0,0.0,0.0,0.0,0.0,0.0,0.0,0.0,0.0,0.0,0.0,0.0,0.0,0.0,0.0,0.0,0.0,0.0,0.0,0.0,0.0,0.0,0.0,0.0,0.0,0.0,0.0,0.0,0.0,0.0,0.0,0.0,0.0,0.0,0.0,1.5453,1.5715,1.5737,1.5481,1.434,1.3224,0.0,0.0,0.0,0.0,0.0,0.0,0.0,0.0,0.0,0.0,0.0,0.0,0.0,0.0,0.0,0.0,0.0,0.0,0.0,0.0,0.0,0.0,0.0,0.0,0.0,0.0,0.0,0.0,0.0,0.0,0.0,0.0,0.0,0.0,0.0,0.0,0.0,0.0,0.0,0.0,0.0,0.0,0.0,0.0,0.0,0.0,0.0,0.0,0.0,0.0,0.0,0.0,0.0,0.0,0.0,0.0,0.0,0.0,0.0,0.0,0.0,0.0,0.0,0.0,0.0,0.0,0.0,0.0,0.0,0.0,0.0,0.0,0.0,0.0,0.0,0.0,0.0,0.0,0.0,0.0,0.0,0.0,0.0,0.0,0.0,0.0,0.0,0.0,0.0,0.0,0.0,0.0,0.0,0.0,0.0,0.0,0.0,0.0,0.0,0.0,0.0,0.0,0.0,0.0,0.0,0.0,0.0,0.0,0.0,1.3881,0.0,1.408,0.0,1.2481,1.1225,0.0,0.0,0.0,0.0,0.0,0.0,0.0,0.0,0.0,0.0,0.0,0.0,0.0,0.0,0.0,0.0,0.0,0.0,0.0,0.0,0.0,0.0,0.0,0.0,0.0,0.0,0.0,0.0,0.0,0.0,0.0,0.0,0.0,0.0,0.0,0.0,0.0,0.0,0.0,0.0,0.0,0.0,0.0,0.0,0.0,0.0,0.0,0.0,0.0,0.0,0.0,0.0,0.0,0.0,0.0,0.0,0.0,0.0,0.0,0.0,0.0,0.0,0.0,0.0,0.0,0.0,0.0,0.0,0.0,0.0,0.0,0.0,0.0,0.0,0.0,0.0,0.0,0.0,0.0,0.0,0.0,0.0,0.0,0.0,0.0,0.0,0.0,0.0,0.0,0.0,0.0,0.0,0.0,0.0,0.0,0.0,0.0,0.0,0.0,0.0,0.0,0.0,0.0,0.0,0.0,0.0,0.0,0.0,1.075,1.2385,1.2741,1.2399,1.1485,1.0696,0.9305,0.0,0.0,0.0,0.0,0.0,0.0,0.0,0.0,0.0,0.0,0.0,0.0,0.0,0.0,0.0,0.0,0.0,0.0,0.0,0.0,0.0,0.0,0.0,0.0,0.0,0.0,0.0,0.0,0.0,0.0,0.0,0.0,0.0,0.0,0.0,0.0,0.0,0.0,0.0,0.0,0.0,0.0,0.0,0.0,0.0,0.0,0.0,0.0,0.0,0.0,0.0,0.0,0.0,0.0,0.0,0.0,0.0,0.0,0.0,0.0,0.0,0.0,0.0,0.0,0.0,0.0,0.0,0.0,0.0,0.0,0.0,0.0,0.0,0.0,0.0,0.0,0.0,0.0,0.0,0.0,0.0,0.0,0.0,0.0,0.0,0.0,0.0,0.0,0.0,0.0,0.0,0.0,0.0,0.0,0.0,0.0,0.0,0.0,0.0,0.0,0.0,0.0,0.0,0.0,0.0,0.0,0.0,0.0,0.0,0.9943,0.9935,0.9514,0.8681,0.7686,0.628,0.0,0.0,0.0,0.0,0.0,0.0,0.0,0.0,0.0,0.0,0.0,0.0,0.0,0.0,0.0,0.0,0.0,0.0,0.0,0.0,0.0,0.0,0.0,0.0,0.0,0.0,0.0,0.0,0.0,0.0,0.0,0.0,0.0,0.0,0.0,0.0,0.0,0.0,0.0,0.0,0.0,0.0,0.0,0.0,0.0,0.0,0.0,0.0,0.0,0.0,0.0,0.0,0.0,0.0,0.0,0.0,0.0,0.0,0.0,0.0,0.0,0.0,0.0,0.0,0.0,0.0,0.0,0.0,0.0,0.0,0.0,0.0,0.0,0.0,0.0,0.0,0.0,0.0,0.0,0.0,0.0,0.0,0.0,0.0,0.0,0.0,0.0,0.0,0.0,0.0,0.0,0.0,0.0,0.0,0.0,0.0,0.0,0.0,0.0,0.0,0.0,0.0,0.0,0.0,0.0,0.0,0.0,0.0,0.0,0.6068,0.6778,0.6612,0.5525,0.4493,0.317,0.1457,0.0,0.0,0.0,0.0,0.0,0.0,0.0,0.0,0.0,0.0,0.0,0.0,0.0,0.0,0.0,0.0,0.0,0.0,0.0,0.0,0.0,0.0,0.0,0.0,0.0,0.0,0.0,0.0,0.0,0.0,0.0,0.0,0.0,0.0,0.0,0.0,0.0,0.0,0.0,0.0,0.0,0.0,0.0,0.0,0.0,0.0,0.0,0.0,0.0,0.0,0.0,0.0,0.0,0.0,0.0,0.0,0.0,0.0,0.0,0.0,0.0,0.0,0.0,0.0,0.0,0.0,0.0,0.0,0.0,0.0,0.0,0.0,0.0,0.0,0.0,0.0,0.0,0.0,0.0,0.0,0.0,0.0,0.0,0.0,0.0,0.0,0.0,0.0,0.0,0.0,0.0,0.0,0.0,0.0,0.0,0.0,0.0,0.0,0.0,0.0,0.0,0.0,0.0,0.0,0.0,0.0,0.0,0.0,0.1257,0.3281,0.3637,0.2198,0.1312,0.0054,0.0,0.0,0.0,0.0,0.0,0.0,0.0,0.0,0.0,0.0,0.0,0.0,0.0,0.0,0.0,0.0,0.0,0.0,0.0,0.0,0.0,0.0,0.0,0.0,0.0,0.0,0.0,0.0,0.0,0.0,0.0,0.0,0.0,0.0,0.0,0.0,0.0,0.0,0.0,0.0,0.0,0.0,0.0,0.0,0.0,0.0,0.0,0.0,0.0,0.0,0.0,0.0,0.0,0.0,0.0,0.0,0.0,0.0,0.0,0.0,0.0,0.0,0.0,0.0,0.0,0.0,0.0,0.0,0.0,0.0,0.0,0.0,0.0,0.0,0.0,0.0,0.0,0.0,0.0,0.0,0.0,0.0,0.0,0.0,0.0,0.0,0.0,0.0,0.0,0.0,0.0,0.0,0.0,0.0,0.0,0.0,0.0,0.0,0.0,0.0,0.0,0.0,0.0,0.0,0.0,0.0,0.0,0.0,0.0,-0.1449,-0.1229,-0.0799,-0.0195,-0.0934,-0.238,0.0,0.0,0.0,0.0,0.0,0.0,0.0,0.0,0.0,0.0,0.0,0.0,0.0,0.0,0.0,0.0,0.0,0.0,0.0,0.0,0.0,0.0,0.0,0.0,0.0,0.0,0.0,0.0,0.0,0.0,0.0,0.0,0.0,0.0,0.0,0.0,0.0,0.0,0.0,0.0,0.0,0.0,0.0,0.0,0.0,0.0,0.0,0.0,0.0,0.0,0.0,0.0,0.0,0.0,0.0,0.0,0.0,0.0,0.0,0.0,0.0,0.0,0.0,0.0,0.0,0.0,0.0,0.0,0.0,0.0,0.0,0.0,0.0,0.0,0.0,0.0,0.0,0.0,0.0,0.0,0.0,0.0,0.0,0.0,0.0,0.0,0.0,0.0,0.0,0.0,0.0,0.0,0.0,0.0,0.0,0.0,0.0,0.0,0.0,0.0,0.0,0.0,0.0,0.0,0.0,0.0,0.0,0.0,-0.3281,-0.3624,-0.3928,-0.4143,-0.4222,-0.423,-0.4995,0.0,0.0,0.0,0.0,0.0,0.0,0.0,0.0,0.0,0.0,0.0,0.0,0.0,0.0,0.0,0.0,0.0,0.0,0.0,0.0,0.0,0.0,0.0,0.0,0.0,0.0,0.0,0.0,0.0,0.0,0.0,0.0,0.0,0.0,0.0,0.0,0.0,0.0,0.0,0.0,0.0,0.0,0.0,0.0,0.0,0.0,0.0,0.0,0.0,0.0,0.0,0.0,0.0,0.0,0.0,0.0,0.0,0.0,0.0,0.0,0.0,0.0,0.0,0.0,0.0,0.0,0.0,0.0,0.0,0.0,0.0,0.0,0.0,0.0,0.0,0.0,0.0,0.0,0.0,0.0,0.0,0.0,0.0,0.0,0.0,0.0,0.0,0.0,0.0,0.0,0.0,0.0,0.0,0.0,0.0,0.0,0.0,0.0,0.0,0.0,0.0,0.0,0.0,0.0,0.0,0.0,0.0,0.0,-0.4895,-0.5228,-0.5458,-0.657,-0.8543,-0.7677,-0.7517,0.0,0.0,0.0,0.0,0.0,0.0,0.0,0.0,0.0,0.0,0.0,0.0,0.0,0.0,0.0,0.0,0.0,0.0,0.0,0.0,0.0,0.0,0.0,0.0,0.0,0.0,0.0,0.0,0.0,0.0,0.0,0.0,0.0,0.0,0.0,0.0,0.0,0.0,0.0,0.0,0.0,0.0,0.0,0.0,0.0,0.0,0.0,0.0,0.0,0.0,0.0,0.0,0.0,0.0,0.0,0.0,0.0,0.0,0.0,0.0,0.0,0.0,0.0,0.0,0.0,0.0,0.0,0.0,0.0,0.0,0.0,0.0,0.0,0.0,0.0,0.0,0.0,0.0,0.0,0.0,0.0,0.0,0.0,0.0,0.0,0.0,0.0,0.0,0.0,0.0,0.0,0.0,0.0,0.0,0.0,0.0,0.0,0.0,0.0,0.0,0.0,0.0,0.0,0.0,0.0,0.0,0.0,0.0,-0.6078,-0.5622,-0.6696,-0.7732,-0.8675,-0.8282,-0.881,0.0,0.0,0.0,0.0,0.0,0.0,0.0,0.0,0.0,0.0,0.0,0.0,0.0,0.0,0.0,0.0,0.0,0.0,0.0,0.0,0.0,0.0,0.0,0.0,0.0,0.0,0.0,0.0,0.0,0.0,0.0,0.0,0.0,0.0,0.0,0.0,0.0,0.0,0.0,0.0,0.0,0.0,0.0,0.0,0.0,0.0,0.0,0.0,0.4171,0.0,0.0,0.0,0.0,0.0,0.0,0.0,0.0,0.0,0.0,0.0,0.0,0.0,0.0,0.0,0.0,0.0,0.0,0.0,0.0,0.0,0.0,0.0,0.0,0.0,0.0,0.0,0.0,0.0,0.0,0.0,0.0,0.0,0.0,0.0,0.0,0.0,0.0,0.0,0.0,0.0,0.0,0.0,0.0,0.0,0.0,0.0,0.0,0.0,0.0,0.0,0.0,0.0,0.0,0.0,0.0,0.0,0.0,0.0,-0.6914,-0.6633,-0.7568,-0.8529,-0.9506,-0.9647,-1.0053,0.0,0.0,0.0,0.0,0.0,0.0,0.0,0.0,0.0,0.0,0.0,0.0,0.0,0.0,0.0,0.0,0.0,0.0,0.0,0.0,0.0,0.0,0.0,0.0,0.0,0.0,0.0,0.0,0.0,0.0,0.0,0.0,0.0,0.0,0.0,0.0,0.0,0.0,0.0,0.0,0.0,0.0,0.0,0.0,0.0,0.0,0.0,0.0,0.0,0.0,0.0,0.0,0.0,0.0,0.0,0.0,0.0,0.0,0.0,0.0,0.0,0.0,0.0,0.0,0.0,0.0,0.0,0.0,0.0,0.0,0.0,0.0,0.0,0.0,0.0,0.0,0.0,0.0,0.0,0.0,0.0,0.0,0.0,0.0,0.0,0.0,0.0,0.0,0.0,0.0,0.0,0.0,0.0,0.0,0.0,0.0,0.0,0.0,0.0,0.0,0.0,0.0,0.0,0.0,0.0,0.0,0.0,-0.7833,-0.7552,-0.7673,-0.8298,-0.9227,-1.0448,-1.079,-1.0857,-1.0562,0.0,0.0,0.0,0.0,0.0,0.0,0.0,0.0,0.0,0.0,0.0,0.0,0.0,0.0,0.0,0.0,0.0,0.0,0.0,0.0,0.0,0.0,0.0,0.0,0.0,0.0,0.0,0.0,0.0,0.0,0.0,0.0,0.0,0.0,0.0,0.0,0.0,0.0,1.1269,0.8523,0.0,0.0,0.0,0.0,0.0,0.0,0.0,0.0,-0.0608,0.0,0.0,0.0,0.0,0.0,0.0,0.0,0.0,0.0,0.0,0.0,0.0,0.0,0.0,0.0,0.0,0.0,0.0,0.0,0.0,0.0,0.0,0.0,0.0,0.0,0.0,0.0,0.0,0.0,0.0,0.0,0.0,0.0,0.0,0.0,0.0,0.0,0.0,0.0,0.0,0.0,0.0,0.0,0.0,0.0,0.0,0.0,0.0,0.0,0.0,0.0,0.0,0.0,0.0,0.0,0.0,-0.8492,-0.859,-0.8373,-0.7795,-0.9021,-0.9915,-1.0484,-1.0119,-0.9912,-0.987,0.0,0.0,0.0,0.0,0.0,0.0,0.0,0.0,0.0,0.0,0.0,0.0,0.0,0.0,0.0,0.0,0.0,0.0,0.0,0.0,0.0,0.0,0.0,0.0,0.0,0.0,0.0,0.0,0.0,0.0,0.0,0.0,0.0,0.0,0.0,0.0,0.0,0.0,0.0,0.7687,0.5784,0.0,0.0,0.0,0.0,0.0,0.0,0.0,0.0,-0.2806,0.0,0.0,0.0,0.0,0.0,0.0,0.0,0.0,0.0,0.0,0.0,0.0,0.0,0.0,0.0,0.0,0.0,0.0,0.0,0.0,0.0,0.0,0.0,0.0,0.0,0.0,0.0,0.0,0.0,0.0,0.0,0.0,0.0,0.0,0.0,0.0,0.0,0.0,0.0,0.0,0.0,0.0,0.0,0.0,0.0,0.0,0.0,0.0,0.0,0.0,0.0,0.0,0.0,0.0,0.0,-0.8223,-0.8666,-0.8608,-0.8024,-0.9458,-1.0188,-1.0154,-1.0213,-0.9835,0.0,0.0,0.0,0.0,0.0,0.0,0.0,0.0,0.0,0.0,0.0,0.0,0.0,0.0,0.0,0.0,0.0,0.0,0.0,0.0,0.0,0.0,0.0,0.0,0.0,0.0,0.0,0.0,0.0,0.0,0.0,0.0,0.0,0.0,0.0,0.0,0.0,0.0,0.0,0.0,0.6216,0.449,0.2343,0.0,0.0,0.0,0.0,0.0,0.0,-0.6015,-0.5546,0.0,0.0,0.0,0.0,0.0,0.0,0.0,0.0,0.0,0.0,0.0,0.0,0.0,0.0,0.0,0.0,0.0,0.0,0.0,0.0,0.0,0.0,0.0,0.0,0.0,0.0,0.0,0.0,0.0,0.0,0.0,0.0,0.0,0.0,0.0,0.0,0.0,0.0,0.0,0.0,0.0,0.0,0.0,0.0,0.0,0.0,0.0,0.0,0.0,0.0,0.0,0.0,0.0,0.0,0.0,-0.7906,-0.8441,-0.8609,-0.8295,-0.9566,-1.0132,-0.981,-1.026,-0.9711,0.0,0.0,0.0,0.0,0.0,0.0,0.0,0.0,0.0,0.0,0.0,0.0,0.0,0.0,0.0,0.0,0.0,0.0,0.0,0.0,0.0,0.0,0.0,0.0,0.0,0.0,0.0,0.0,0.0,0.0,0.0,0.0,0.0,0.0,0.0,0.0,0.0,0.0,0.0,0.0,0.0,0.304,0.0801,-0.0677,0.0,0.0,0.0,0.0,-0.799,-0.7951,0.0,0.0,0.0,0.0,0.0,0.0,0.0,0.0,0.0,0.0,0.0,0.0,0.0,0.0,0.0,0.0,0.0,0.0,0.0,0.0,0.0,0.0,0.0,0.0,0.0,0.0,0.0,0.0,0.0,0.0,0.0,0.0,0.0,0.0,0.0,0.0,0.0,0.0,0.0,0.0,0.0,0.0,0.0,0.0,0.0,0.0,0.0,0.0,0.0,0.0,0.0,0.0,0.0,0.0,0.0,0.0,-0.7996,-0.7936,-0.8179,-0.8637,-0.915,-0.9538,-0.977,-0.9595,-0.8892,0.0,0.0,0.0,0.0,0.0,0.0,0.0,0.0,0.0,0.0,0.0,0.0,0.0,0.0,0.0,0.0,0.0,0.0,0.0,0.0,0.0,0.0,0.0,0.0,0.0,0.0,0.0,0.0,0.0,0.0,0.0,0.0,0.0,0.0,0.0,0.0,0.0,0.0,0.0,0.0,0.0,0.2234,-0.0275,-0.198,-0.3696,0.0,0.0,-0.8066,-0.9294,-0.9403,0.0,0.0,0.0,0.0,0.0,0.0,0.0,0.0,0.0,0.0,0.0,0.0,0.0,0.0,0.0,0.0,0.0,0.0,0.0,0.0,0.0,0.0,0.0,0.0,0.0,0.0,0.0,0.0,0.0,0.0,0.0,0.0,0.0,0.0,0.0,0.0,0.0,0.0,0.0,0.0,0.0,0.0,0.0,0.0,0.0,0.0,0.0,0.0,0.0,0.0,0.0,0.0,0.0,0.0,0.0,-0.8172,-0.7506,-0.763,-0.7785,-0.802,-0.8633,-0.8909,-0.8835,-0.8679,-0.8124,0.0,0.0,0.0,0.0,0.0,0.0,0.0,0.0,0.0,0.0,0.0,0.0,0.0,0.0,0.0,0.0,0.0,0.0,0.0,0.0,0.0,0.0,0.0,0.0,0.0,0.0,0.0,0.0,0.0,0.0,0.0,0.0,0.0,0.0,0.0,0.0,0.0,0.0,0.0,0.0,0.0,0.0,-0.1483,-0.2911,0.0,0.0,0.0,-0.9078,-1.0016,0.0,0.0,0.0,0.0,0.0,0.0,0.0,0.0,0.0,0.0,0.0,0.0,0.0,0.0,0.0,0.0,0.0,0.0,0.0,0.0,0.0,0.0,0.0,0.0,0.0,0.0,0.0,0.0,0.0,0.0,0.0,0.0,0.0,0.0,0.0,0.0,0.0,0.0,0.0,0.0,0.0,0.0,0.0,0.0,0.0,0.0,0.0,0.0,0.0,0.0,0.0,0.0,0.0,0.0,0.0,0.0,0.0,-0.7046,-0.706,-0.7277,-0.7569,-0.8087,-0.8263,-0.8119,-0.796,0.0,0.0,0.0,0.0,0.0,0.0,0.0,0.0,0.0,0.0,0.0,0.0,0.0,0.0,0.0,0.0,0.0,0.0,0.0,0.0,0.0,0.0,0.0,0.0,0.0,0.0,0.0,0.1951,0.0,0.0,0.0,0.0,0.0,0.0,0.0,0.0,0.0,0.0,0.0,0.0,0.0,0.0,-0.0309,-0.2554,-0.3828,-0.5451,0.0,0.0,-0.9894,-1.0581,-1.0754,-1.0682,0.0,0.0,0.0,0.0,0.0,0.0,0.0,0.0,0.0,0.0,0.0,0.0,0.0,0.0,0.0,0.0,0.0,0.0,0.0,0.0,0.0,0.0,0.0,0.0,0.0,0.0,0.0,0.0,0.0,0.0,0.0,0.0,0.0,0.0,0.0,0.0,0.0,0.0,0.0,0.0,0.0,0.0,0.0,0.0,0.0,0.0,0.0,0.0,0.0,0.0,0.0,0.0,0.0,0.0,0.0,-0.6809,-0.61,-0.6433,-0.7779,-0.7548,-0.7623,-0.8088,-0.7603,-0.6992,0.0,0.0,0.0,0.0,0.0,0.0,0.0,0.0,0.0,0.0,0.0,0.0,0.0,0.0,0.0,0.0,0.0,0.0,0.0,0.0,0.0,0.0,0.0,0.0,0.0,0.0,0.0,0.0,0.0,0.0,0.0,0.0,0.0,0.0,0.0,0.0,0.0,0.0,0.0,0.0,0.0,-0.1265,-0.3359,-0.4862,-0.6506,0.0,0.0,-1.0539,-1.115,-1.1309,-1.1166,-1.0576,0.0,0.0,0.0,0.0,0.0,0.0,0.0,0.0,0.0,0.0,0.0,0.0,0.0,0.0,0.0,0.0,0.0,0.0,0.0,0.0,0.0,0.0,0.0,0.0,0.0,0.0,0.0,0.0,0.0,0.0,0.0,0.0,0.0,0.0,0.0,0.0,0.0,0.0,0.0,0.0,0.0,0.0,0.0,0.0,0.0,0.0,0.0,0.0,0.0,0.0,0.0,0.0,0.0,-0.6543,-0.6389,-0.5841,-0.6057,-0.6925,-0.6781,-0.6683,-0.6672,-0.6607,-0.623,0.0,0.0,0.0,0.0,0.0,0.0,0.0,0.0,0.0,0.0,0.0,0.0,0.0,0.0,0.0,0.0,0.0,0.0,0.0,0.0,0.0,0.0,0.0,0.0,0.0,0.0,0.0,0.0,-0.1879,-0.2579,-0.3138,0.0,0.0,0.0,0.0,0.0,0.0,0.0,0.0,0.0,0.0,-0.2299,-0.3841,-0.5556,0.0,0.0,-1.009,-1.0935,-1.14,-1.1298,-1.1022,-1.0685,-1.0187,0.0,0.0,0.0,0.0,0.0,0.0,0.0,0.0,0.0,0.0,0.0,0.0,0.0,0.0,0.0,0.0,0.0,0.0,0.0,0.0,0.0,0.0,0.0,0.0,0.0,0.0,0.0,0.0,0.0,0.0,0.0,0.0,0.0,0.0,0.0,0.0,0.0,0.0,0.0,0.0,0.0,0.0,0.0,0.0,0.0,0.0,0.0,0.0,0.0,0.0,0.0,0.0,-0.6104,-0.5966,-0.5563,-0.5712,-0.6365,-0.6306,-0.6141,-0.5859,-0.588,-0.564,0.0,0.0,0.0,0.0,0.0,0.0,0.0,0.0,0.0,0.0,0.0,0.0,0.0,0.0,0.0,0.0,0.0,0.0,0.0,0.0,0.0,0.0,0.0,0.0,0.0,0.0,0.0,0.0,-0.3535,-0.4267,-0.4154,0.0,0.0,0.0,0.0,0.0,0.0,0.0,0.0,0.0,0.0,-0.3476,-0.4651,-0.6158,-0.7689,-0.9047,-1.0036,-1.073,-1.1191,-1.0981,-1.0731,-1.0601,0.0,0.0,0.0,0.0,0.0,0.0,0.0,0.0,0.0,0.0,0.0,0.0,0.0,0.0,0.0,0.0,0.0,0.0,0.0,0.0,0.0,0.0,0.0,0.0,0.0,0.0,0.0,0.0,0.0,0.0,0.0,0.0,0.0,0.0,0.0,0.0,0.0,0.0,0.0,0.0,0.0,0.0,0.0,0.0,0.0,0.0,0.0,0.0,0.0,0.0,0.0,0.0,0.0,-0.5385,-0.5699,-0.5138,-0.5322,-0.6358,-0.6259,-0.6098,-0.5888,-0.5582,-0.5269,-0.4958,0.0,0.0,0.0,0.0,0.0,0.0,0.0,0.0,0.0,0.0,0.0,0.0,0.0,0.0,0.0,0.0,0.0,0.0,0.0,0.0,0.0,0.0,0.0,0.0,0.0,0.0,-0.2812,-0.4728,-0.552,0.0,0.0,0.0,0.0,0.0,0.0,0.0,0.0,0.0,0.0,-0.3742,-0.4737,-0.57,-0.6647,-0.7686,-0.8996,-0.944,-0.9858,-1.0438,-1.0387,-1.0314,0.0,0.0,0.0,0.0,0.0,0.0,0.0,0.0,0.0,0.0,0.0,0.0,0.0,0.0,0.0,0.0,0.0,0.0,0.0,0.0,0.0,0.0,0.0,0.0,0.0,0.0,0.0,0.0,0.3275,0.0,0.0,0.0,0.0,0.0,0.0,0.0,0.0,0.0,0.0,0.0,-1.341,-1.395,0.0,0.0,0.0,0.0,0.0,0.0,0.0,0.0,0.0,0.0,0.0,0.0,-0.5147,-0.5476,-0.5035,-0.5298,-0.6241,-0.6322,-0.608,-0.561,-0.566,-0.5857,-0.6082,0.0,0.0,0.0,0.0,0.0,0.0,0.0,0.0,0.0,0.0,0.0,0.0,0.0,0.0,0.0,0.0,0.0,0.0,0.0,0.0,0.0,0.0,0.0,0.0,0.0,-0.2753,0.0,0.0,0.0,0.0,0.0,0.0,0.0,0.0,0.0,0.0,0.0,-0.314,-0.3469,-0.4501,-0.5364,-0.5843,-0.7018,-0.8034,0.0,0.0,0.0,0.0,0.0,0.0,0.0,0.0,0.0,0.0,0.0,0.0,0.0,0.0,-1.102,-1.0693,-1.0894,-1.1178,-1.1365,0.0,0.0,0.0,0.0,0.0,0.0,0.0,0.0,0.0,0.0,0.0,0.0,0.0,0.0,0.0,0.0,0.1183,0.0,0.0,0.0,0.0,0.0,0.0,0.0,0.0,-1.2005,-1.2316,-1.2059,-1.2592,-1.2513,0.0,-1.1694,-1.1436,0.0,0.0,0.0,0.0,0.0,0.0,0.0,0.0,-0.5331,-0.5404,-0.532,-0.5502,-0.597,-0.623,-0.6026,-0.5419,-0.5518,-0.5856,-0.6432,-0.6191,-0.6416,0.0,0.0,0.0,0.0,0.0,0.0,0.0,0.0,0.0,0.0,0.0,0.0,0.0,0.0,0.0,0.0,0.0,0.0,0.0,0.0,0.0,0.0,0.0,-0.371,0.0,0.0,0.0,0.0,0.0,0.0,0.0,0.0,0.0,-0.3144,-0.361,-0.4135,-0.4583,-0.5411,-0.6089,-0.6325,0.0,0.0,0.0,0.0,0.0,0.0,0.0,-0.9894,-0.9951,-1.0301,-1.0713,-1.1083,-1.1648,-1.2219,-1.2598,0.0,0.0,-1.2484,-1.2664,-1.3018,-1.3306,-1.3143,-1.2926,-1.2785,-1.2747,-1.2753,0.0,0.0,0.0,0.0,0.0,0.0,0.0,0.0,-0.2359,-0.2015,0.0,-0.1657,0.0,0.0,0.0,0.0,0.0,0.0,0.0,0.0,-1.0424,-1.0714,-1.1072,-1.1095,-1.089,-1.0519,-1.0679,-1.0425,-0.9836,-0.9826,0.0,0.0,0.0,0.0,0.0,0.0,-0.5785,-0.5417,-0.5795,-0.586,-0.5568,-0.5955,-0.5911,-0.5422,-0.51,-0.5266,-0.6041,-0.6518,-0.7022,-0.7643,-0.7543,0.0,0.0,0.0,0.0,0.0,0.0,0.0,0.0,0.0,0.0,0.0,0.0,0.0,0.0,0.0,0.0,0.0,0.0,0.0,0.0,-0.3669,0.0,0.0,0.0,0.0,0.0,0.0,0.0,0.0,0.0,0.0,-0.4484,-0.4786,-0.5333,-0.6076,0.0,0.0,0.0,0.0,-0.7368,-0.7894,-0.8252,-0.8549,-0.8743,-0.9452,-0.981,-0.9388,0.0,0.0,-1.1731,-1.2498,-1.3028,-1.3087,-1.4225,-1.4871,-1.3877,-1.3757,-1.3841,-1.4065,-1.4139,-1.3948,-1.3614,-1.3816,-1.3959,-0.426,0.0,0.0,0.0,0.0,-0.2416,-0.2582,-0.2534,-0.3226,-0.3343,-0.3071,-0.3859,0.0,0.0,0.0,0.0,0.0,0.0,-0.9585,-0.921,-0.9497,-0.9367,-0.8858,-0.8994,-0.8872,-0.8538,-0.84,-0.8297,-0.8278,-0.8451,-0.8535,-0.8492,0.0,0.0,0.0,0.0,-0.552,-0.5583,-0.5111,-0.4802,-0.4726,-0.5332,-0.5588,-0.5536,-0.5014,-0.5599,-0.7377,-0.7249,-0.7787,-0.9158,-0.8723,0.0,0.0,0.0,0.0,0.0,0.0,0.0,0.0,0.0,0.0,0.0,0.0,0.0,0.0,0.0,0.0,0.0,0.0,0.0,-0.3583,-0.4237,-0.4643,0.0,0.0,0.0,0.0,0.0,0.0,0.0,0.0,0.0,-0.6122,-0.5971,-0.5911,0.0,0.0,-0.6921,-0.6969,-0.6907,-0.6872,-0.7073,0.0,0.0,0.0,-0.8777,-0.9384,-0.9489,-1.0529,-1.1464,-1.1946,-1.2893,-1.3827,-1.4409,-1.5021,-1.5411,-1.5552,-1.576,-1.5833,-1.571,-1.5649,-1.5618,-1.5497,-1.5383,-1.524,-0.4006,-0.3666,-0.1852,-0.1382,-0.1854,-0.2643,-0.2956,-0.2954,-0.4237,-0.4609,-0.4351,-0.558,-0.6265,-0.6648,-0.8244,0.0,0.0,0.0,-0.9628,-0.8241,-0.896,-0.8736,-0.7701,-0.7863,-0.783,-0.7534,-0.7443,-0.7412,-0.7545,-0.7771,-0.8027,-0.8265,0.0,0.0,-0.7264,-0.6391,-0.5823,-0.5635,-0.5107,-0.4617,-0.4258,-0.4812,-0.5074,-0.5002,-0.4894,-0.5659,-0.73,-0.7248,-0.7902,-0.9463,-0.8789,-0.8259,0.0,0.0,0.0,0.0,0.0,0.0,0.0,0.0,0.0,0.0,0.0,-0.2917,-0.2591,0.0,0.0,0.0,-0.3184,-0.3667,-0.4319,-0.4642,0.0,0.0,0.0,0.0,0.0,0.0,0.0,-0.489,-0.5332,-0.5932,-0.6821,-0.7051,-0.7129,-0.711,-0.7109,-0.7112,-0.7129,0.0,-0.6766,-0.6872,-0.7254,-0.7593,-0.7923,-0.8588,-0.9287,-0.9901,-1.052,-1.1151,-1.1725,-1.286,-1.3962,-1.4588,-1.5287,-1.5865,-1.6023,-1.6514,-1.681,-1.6503,-1.6346,-1.6298,-1.6237,-1.6,-1.5805,-0.366,-0.3456,-0.1902,-0.1404,-0.1837,-0.3069,-0.324,-0.2829,-0.519,-0.5733,-0.4984,-0.6907,-0.7865,-0.8105,-0.9787,0.0,0.0,-1.033,-0.9674,-0.7518,-0.8575,-0.8388,-0.7249,-0.7339,-0.7324,-0.7108,-0.7235,-0.7268,-0.7232,-0.7447,-0.7647,-0.7847,-0.7996,-0.7928,-0.759,-0.711,-0.6433,-0.5547,-0.5484,-0.495,-0.3988,-0.4306,-0.436,-0.4128,-0.4731,-0.5497,-0.6381,-0.6718,-0.7488,-0.8784,-0.8112,-0.7747,-0.7964,0.0,0.0,0.0,0.0,0.0,0.0,0.0,0.0,0.0,0.0,0.0,0.0,0.0,0.0,0.0,-0.4354,0.0,-0.4655,-0.4887,0.0,0.0,0.0,-0.5087,-0.4923,-0.4887,-0.4899,-0.4833,0.0,0.0,0.0,0.0,-0.8609,-0.8503,-0.7783,-0.7336,-0.7498,-0.7058,-0.6826,-0.7185,-0.7259,-0.7502,-0.822,-0.8788,-0.9411,-1.0211,-1.04,-1.0634,-1.128,-1.2489,-1.3501,-1.4017,-1.5212,-1.6145,-1.5817,-1.6413,-1.6839,-1.6664,-1.6464,-1.6263,-1.6175,-1.6008,-1.5841,-0.4599,-0.4359,-0.2782,-0.169,-0.1218,-0.2249,-0.3064,-0.3742,-0.5113,-0.5832,-0.6179,-0.787,-0.9077,-0.99,-1.0475,-0.9991,-0.8821,-0.912,-0.8613,-0.7484,-0.7088,-0.673,-0.6385,-0.5978,-0.5684,-0.5545,-0.5626,-0.5752,-0.5885,-0.617,-0.64,-0.6564,-0.6978,-0.7348,-0.7621,-0.6765,-0.5934,-0.5219,-0.4556,-0.3936,-0.3414,-0.3587,-0.3879,-0.425,-0.4696,-0.5474,-0.6578,-0.6561,-0.7058,-0.8173,-0.8008,-0.7746,-0.7358,-0.7086,0.0,0.0,0.0,0.0,0.0,0.0,0.0,0.0,0.0,-0.5366,-0.5236,0.0,-0.5492,0.0,-0.5375,-0.5324,-0.5142,-0.5179,0.0,0.0,-0.4911,-0.4946,-0.4818,-0.4829,-0.4911,-0.5148,-0.5547,-0.6248,-0.7433,-0.7773,-0.83,-0.9139,-0.8493,-0.7825,-0.7756,-0.7147,-0.6886,-0.7394,-0.7564,-0.7903,-0.8479,-0.9039,-0.9506,-0.9725,-1.0196,-1.0724,-1.1336,-1.22,-1.3201,-1.4372,-1.5119,-1.5636,-1.6066,-1.6587,-1.6872,-1.683,-1.6682,-1.6473,-1.6272,-1.614,-1.5964,-0.4633,-0.445,-0.3093,-0.2279,-0.1873,-0.2276,-0.2994,-0.3993,-0.4886,-0.5685,-0.6494,-0.7891,-0.9144,-1.0056,-1.0013,-0.9367,-0.8309,-0.8176,-0.7532,-0.6514,-0.6202,-0.586,-0.5478,-0.5294,-0.5092,-0.491,-0.5132,-0.5292,-0.5428,-0.5752,-0.5947,-0.6017,-0.6465,-0.6666,-0.6601,-0.6038,-0.5481,-0.4951,-0.3854,-0.3133,-0.2792,-0.297,-0.3286,-0.3731,-0.4318,-0.5054,-0.5965,-0.6047,-0.6423,-0.7233,-0.7051,-0.6936,-0.6926,-0.6741,-0.6535,0.0,0.0,0.0,0.0,0.0,0.0,0.0,0.0,0.0,0.0,0.0,-0.6529,0.0,-0.5839,0.0,-0.5284,-0.5205,-0.5093,-0.4874,-0.4593,-0.4538,-0.483,-0.4566,-0.455,-0.5118,-0.5899,-0.6742,-0.7583,-0.8256,-0.8901,-0.9654,-0.9087,-0.8457,-0.7963,-0.7311,-0.6972,-0.7362,-0.7486,-0.7772,-0.8418,-0.9055,-0.9433,-0.9485,-0.9895,-1.0398,-1.0861,-1.1678,-1.2706,-1.3937,-1.4807,-1.5511,-1.6154,-1.6608,-1.6864,-1.676,-1.6682,-1.6542,-1.6342,-1.6211,-1.6061,-0.4372,-0.4353,-0.3342,-0.3019,-0.3105,-0.2619,-0.2986,-0.3947,-0.4572,-0.5356,-0.6293,-0.7357,-0.8342,-0.9178,-0.8865,-0.8291,-0.7532,-0.7214,-0.6381,-0.5201,-0.5541,-0.5269,-0.4442,-0.4954,-0.5,-0.4714,-0.5143,-0.5359,-0.5359,-0.5624,-0.576,-0.5756,-0.6009,-0.5807,-0.5209,-0.5113,-0.4912,-0.455,-0.3284,-0.2453,-0.2153,-0.2453,-0.2753,-0.2989,-0.3854,-0.4553,-0.5057,-0.5388,-0.5782,-0.6239,-0.5811,-0.5881,-0.6507,-0.6269,-0.6297,0.0,-0.699,0.0,0.0,0.0,0.0,0.0,0.0,0.0,0.0,-0.7482,-0.7227,-0.6617,-0.5969,-0.5446,-0.5128,-0.501,-0.4849,-0.4515,-0.3979,-0.391,-0.4582,-0.4146,-0.4068,-0.4779,-0.624,-0.7234,-0.754,-0.8765,-0.9571,-0.9599,-0.9296,-0.8697,-0.8032,-0.7486,-0.7262,-0.7278,-0.722,-0.7461,-0.8074,-0.8748,-0.9231,-0.9304,-0.9572,-0.9871,-1.0242,-1.1106,-1.2115,-1.3137,-1.4346,-1.5355,-1.5942,-1.6362,-1.6585,-1.6235,-1.6149,-1.6219,-1.6237,-1.6061,-1.5991,-0.464,-0.5107,-0.4369,-0.4014,-0.3785,-0.2564,-0.2948,-0.4491,-0.4183,-0.4683,-0.5729,-0.6143,-0.6608,-0.7073,-0.7188,-0.6765,-0.6005,-0.5616,-0.5038,-0.4341,-0.4735,-0.4206,-0.3043,-0.4335,-0.4626,-0.4136,-0.482,-0.5156,-0.5153,-0.506,-0.4997,-0.4994,-0.4797,-0.4628,0.0,0.0,0.0,0.0,-0.2654,-0.2085,-0.1748,-0.2217,-0.2551,-0.2787,-0.3923,0.0,-0.4864,-0.5226,-0.5491,-0.5591,-0.5491,0.0,0.0,0.0,0.0,0.0,0.0,0.0,0.0,0.0,0.0,0.0,-0.8996,-0.8882,-0.8594,-0.7918,-0.7168,-0.6415,-0.6076,-0.5545,-0.465,-0.4373,-0.3923,-0.3031,-0.2807,-0.2815,-0.2973,-0.3439,-0.3871,-0.3988,-0.4888,-0.6012,-0.7272,-0.7808,-0.8232,-0.8808,-0.858,-0.7992,-0.7143,-0.7591,-0.7988,-0.7785,-0.7315,-0.7232,-0.7517,-0.8128,-0.855,-0.8746,-0.9221,-0.9728,-1.0331,-1.0801,-1.1602,-1.2795,-1.4023,-1.4706,-1.4609,-1.5304,-1.5643,-1.4627,-1.4614,-1.5029,-1.5912,-1.5736,-1.5338,-0.4511,0.0,-0.4912,-0.4875,0.0,-0.3504,-0.3608,-0.4577,-0.3482,-0.3816,-0.5156,-0.5249,-0.5571,-0.6047,-0.5879,-0.5317,-0.4491,-0.4055,-0.3502,-0.2986,-0.362,-0.3385,-0.2419,-0.3734,-0.4111,-0.3734,-0.4206,-0.4625,-0.4927,-0.4794,-0.4664,-0.4531,-0.4298,-0.4064,-0.3897,-0.3458,-0.3121,-0.2855,-0.2218,-0.1816,-0.1614,-0.1713,-0.2115,-0.2822,0.0,0.0,0.0,0.0,0.0,0.0,0.0,0.0,0.0,0.0,0.0,-0.7055,-0.7641,-0.8318,-0.9078,-0.9309,-0.934,-0.922,-0.8929,-0.8735,-0.8703,-0.7848,-0.6933,-0.5993,-0.5475,-0.4778,-0.3744,-0.3363,-0.2971,-0.2542,-0.2034,-0.1879,-0.2422,-0.2826,-0.3245,-0.3857,-0.4835,-0.5889,-0.6727,-0.7272,-0.7617,-0.8033,-0.7887,-0.7538,-0.7117,-0.7138,-0.7167,-0.702,-0.6808,-0.6739,-0.6992,-0.7351,-0.7807,-0.8317,-0.8896,-0.9489,-1.0124,-1.0548,-1.1143,-1.2045,-1.2839,-1.3308,-1.3557,-1.4171,-1.4493,-1.3836,-1.3825,-1.4155,-1.4832,-1.4697,-1.4474,-0.3978,-0.4305,-0.4756,-0.5022,-0.5157,-0.4078,-0.3743,-0.3819,0.0,0.0,0.0,-0.4145,-0.4426,-0.4878,-0.4395,-0.3748,-0.2995,-0.2582,-0.2096,-0.1653,-0.2491,-0.252,-0.1939,-0.302,-0.3408,-0.3128,-0.3408,-0.3889,-0.4492,-0.4259,-0.4092,-0.3997,-0.3692,-0.3389,-0.3159,-0.2788,-0.2586,-0.2485,-0.1915,-0.158,-0.1512,-0.1277,-0.1714,-0.2922,-0.3153,-0.3818,-0.4987,-0.5292,-0.5395,-0.5359,-0.5326,-0.5359,-0.5455,-0.5608,-0.6183,-0.7269,-0.7626,-0.8344,-0.9585,-0.9519,-0.9303,-0.9032,-0.8267,-0.7948,-0.8231,-0.7364,-0.64,-0.5435,-0.4609,-0.3655,-0.262,-0.219,-0.1955,-0.1956,-0.1214,-0.1057,-0.1876,-0.2223,-0.2671,-0.3531,-0.4858,-0.5962,-0.622,-0.6811,-0.7272,-0.7252,-0.7138,-0.7007,-0.6795,-0.6383,-0.6136,-0.6135,-0.5913,-0.5902,-0.6262,-0.6585,-0.7055,-0.7889,-0.8554,-0.9144,-0.9759,-1.0335,-1.086,-1.1274,-1.1739,-1.2315,-1.268,-1.3149,-1.3337,-1.3,-1.3056,-1.3245,-1.3302,-1.3266,-1.331,-0.2705,-0.4092,-0.3374,-0.3507,-0.4006,-0.2394,-0.1524,-0.1326,-0.2132,-0.2441,-0.2269,-0.1939,-0.198,-0.23,-0.1943,-0.1671,-0.1499,-0.147,-0.1222,0.0,-0.1649,-0.1448,-0.0429,-0.1823,-0.2177,-0.1693,-0.2269,-0.2883,-0.3318,-0.2781,-0.2618,-0.2787,-0.2079,-0.1745,-0.1882,-0.2119,-0.2119,-0.1782,-0.1648,-0.1445,-0.1176,-0.1244,-0.1747,-0.2686,-0.322,-0.3889,-0.4794,-0.5196,-0.5326,-0.5153,-0.5153,-0.509,-0.493,-0.5606,-0.62,-0.6569,-0.7233,-0.8077,-0.909,-0.8649,-0.8245,-0.8001,-0.7193,-0.6913,-0.7297,-0.6255,-0.5362,-0.4824,-0.3601,-0.2447,-0.1561,-0.1214,-0.0744,-0.0078,0.0118,0.0039,-0.0235,-0.1454,-0.2397,-0.2724,-0.402,-0.5324,-0.6018,-0.6318,-0.6391,-0.6367,-0.631,-0.6003,-0.5472,-0.5474,-0.5706,-0.5638,-0.5061,-0.4791,-0.5163,-0.5646,-0.64,-0.7354,-0.8188,-0.8947,-0.9679,-1.0474,-1.0985,-1.1055,-1.1949,-1.2512,-1.2076,-1.2491,-1.2514,-1.1946,-1.1716,-1.164,-1.1723,-1.1687,-1.1886,-0.1872,-0.2601,-0.2703,-0.2953,-0.3262,-0.2242,-0.1155,-0.0223,-0.1158,-0.1589,-0.1528,-0.113,-0.1125,-0.146,-0.1405,-0.1052,-0.0496,-0.0727,-0.048,0.004,-0.0907,-0.0895,-0.0154,-0.1222,-0.1553,-0.1245,-0.1541,-0.198,-0.2414,-0.2146,-0.1978,-0.1911,-0.1308,-0.0974,-0.0907,-0.1277,-0.1244,-0.0907,-0.1176,-0.1244,-0.1109,-0.1176,-0.1545,-0.2248,-0.2885,-0.3556,-0.4225,-0.4794,-0.503,-0.4924,-0.4927,-0.4928,-0.4937,-0.5199,-0.561,-0.6211,-0.6608,-0.7256,-0.8136,-0.7539,-0.7057,-0.6848,-0.5821,-0.5228,-0.5441,-0.5084,-0.4303,-0.3157,-0.2284,-0.1432,-0.0509,-0.0118,0.0196,0.0393,0.0466,0.0385,0.0,-0.1224,-0.2247,-0.2582,-0.383,-0.4958,-0.5491,-0.5553,-0.552,-0.5451,-0.5399,-0.5065,-0.4534,-0.4437,-0.4602,-0.4907,-0.4648,-0.4509,-0.4728,-0.5057,-0.5877,-0.7158,-0.78,-0.8554,-0.9414,-1.0244,-1.0485,-1.053,-1.1254,-1.1553,-1.116,-1.1619,-1.1676,-1.1549,-1.1397,-1.142,-1.1545,-1.1562,-1.185,-0.1211,-0.1478,-0.1893,-0.2207,-0.2284,-0.1836,-0.0851,0.0224,-0.0132,-0.0475,-0.0719,-0.0414,-0.0491,-0.0778,-0.0774,-0.0369,0.0249,0.0041,0.0201,0.0564,-0.0237,-0.0388,-0.0114,-0.0703,-0.0938,-0.0811,-0.0786,-0.1041,-0.1476,-0.1375,-0.1107,-0.0738,-0.0604,-0.037,0.0,-0.0538,-0.0571,-0.0202,-0.0773,-0.1109,-0.1109,-0.1076,-0.1311,-0.1878,-0.2383,-0.2954,-0.352,-0.4225,-0.4561,-0.4528,-0.4664,-0.4779,-0.4846,-0.4731,-0.5032,-0.5742,-0.5882,-0.6208,-0.6761,-0.6494,-0.6004,-0.5598,-0.4557,-0.3763,-0.3413,-0.3495,-0.3046,-0.1722,-0.1096,-0.0431,0.0275,0.0667,0.0784,0.0468,0.0537,0.0454,0.0037,-0.1115,-0.207,-0.253,-0.3652,-0.4562,-0.4903,-0.4993,-0.4833,-0.454,-0.4305,-0.4074,-0.3839,-0.3406,-0.3425,-0.3818,-0.4031,-0.427,-0.4661,-0.4794,-0.555,-0.7125,-0.7609,-0.8264,-0.9183,-0.9792,-0.9919,-1.0015,-1.0243,-1.0586,-1.0677,-1.1063,-1.1284,-1.1306,-1.1427,-1.161,-1.1806,-1.1842,-1.1939,-0.0628,-0.1211,-0.0627,-0.0403,-0.0583,-0.009,0.009,0.0179,0.0671,0.0884,0.0734,0.0635,0.0546,0.0586,0.0863,0.106,0.1142,0.0916,0.071,0.0592,0.0314,0.0118,0.0,-0.0112,0.0,0.0108,0.0138,-0.0101,-0.0437,0.0168,0.0707,0.0941,0.0504,0.047,0.0773,-0.0168,-0.037,0.0403,-0.0571,-0.1109,-0.1076,-0.0909,-0.1177,-0.1878,-0.1777,-0.2078,-0.278,-0.3518,-0.3825,-0.3687,-0.4256,-0.4537,-0.4406,-0.4588,-0.4769,-0.4929,-0.5119,-0.5265,-0.5341,-0.5716,-0.5362,-0.4172,-0.3795,-0.2966,-0.1564,-0.1293,-0.1291,-0.0979,-0.0196,0.0471,0.0786,0.0864,0.0857,0.0764,0.0644,0.0525,0.0183,-0.0606,-0.1535,-0.2437,-0.3165,-0.4001,-0.4632,-0.4686,-0.4395,-0.3623,-0.3156,-0.2772,-0.2666,-0.2464,-0.239,-0.2627,-0.2935,-0.3694,-0.4459,-0.4794,-0.5521,-0.6961,-0.7544,-0.8134,-0.9017,-0.9632,-0.9919,-0.9797,-1.0054,-1.0421,-1.064,-1.0905,-1.1245,-1.1242,-1.1274,-1.1327,-1.1559,-1.1536,-1.1504,-0.009,-0.0539,-0.018,0.0269,0.0628,0.0493,0.089,0.1629,0.1383,0.1462,0.1742,0.1484,0.1252,0.1052,0.1234,0.1303,0.13,0.0913,0.0668,0.0589,0.0275,0.0078,0.0,0.0111,0.0217,0.032,0.0377,0.0404,0.0438,0.0841,0.1211,0.1446,0.1311,0.1378,0.1513,0.104,0.0972,0.1275,0.0336,-0.0134,-0.0202,-0.0573,-0.0876,-0.1076,-0.1276,-0.151,-0.1779,-0.2415,-0.295,-0.3284,-0.362,-0.3986,-0.4398,-0.4528,-0.4593,-0.4616,-0.4635,-0.468,-0.4778,-0.4509,-0.4115,-0.3623,-0.2606,-0.1645,-0.0946,-0.0263,0.0116,0.0117,0.051,0.0825,0.0904,0.0904,0.0856,0.0722,0.0561,0.0367,0.0143,-0.0591,-0.132,-0.176,-0.2394,-0.2982,-0.3366,-0.3412,-0.3154,-0.2792,-0.2439,-0.2225,-0.2158,-0.1884,-0.182,-0.2115,-0.2397,-0.2987,-0.3959,-0.4561,-0.5388,-0.64,-0.6887,-0.7381,-0.8554,-0.8979,-0.9177,-0.9548,-0.9976,-1.0405,-1.0878,-1.0744,-1.0809,-1.0882,-1.0619,-1.0417,-1.0237,-1.0311,-1.0313,0.0224,0.0045,0.0135,0.0538,0.1076,0.0987,0.1506,0.235,0.1899,0.1933,0.2333,0.2202,0.1997,0.1753,0.1639,0.1627,0.162,0.134,0.1126,0.0972,0.0587,0.0426,0.0491,0.0369,0.0397,0.0494,0.0616,0.0808,0.101,0.1245,0.1479,0.1681,0.1916,0.2052,0.2118,0.208,0.2114,0.2147,0.1309,0.0873,0.0873,0.0135,-0.0404,-0.0472,-0.0774,-0.0875,-0.074,-0.1377,-0.1946,-0.2414,-0.2631,-0.3033,-0.3657,-0.3744,-0.3837,-0.4114,-0.4261,-0.4264,-0.4223,-0.3551,-0.305,-0.269,-0.1455,-0.0571,-0.0146,0.0713,0.1308,0.1446,0.1647,0.1686,0.1021,0.1022,0.0894,0.0645,0.0444,0.0289,0.0106,-0.0445,-0.0817,-0.1118,-0.1568,-0.1963,-0.2182,-0.2122,-0.1941,-0.1898,-0.1757,-0.1652,-0.1522,-0.1161,-0.1064,-0.1482,-0.1646,-0.2382,-0.3453,-0.4325,-0.5186,-0.5939,-0.64,-0.6887,-0.7934,-0.8134,-0.8231,-0.8646,-0.9396,-0.9688,-0.9644,-0.9673,-0.9892,-1.0162,-0.9911,-0.9448,-0.9421,-0.9363,-0.9423,0.0224,0.009,0.0494,0.0673,0.0583,0.1613,0.1993,0.2037,0.2219,0.2364,0.2452,0.2884,0.2969,0.2853,0.26,0.2474,0.2617,0.2667,0.2385,0.1896,0.1624,0.1546,0.1548,0.0922,0.0727,0.1043,0.1204,0.1378,0.1648,0.1614,0.1681,0.1951,0.2251,0.2484,0.2619,0.2517,0.2619,0.2956,0.2112,0.1777,0.2114,0.1243,0.0403,-0.0101,-0.0168,-0.0034,0.0101,-0.0471,-0.0806,-0.0672,-0.1338,-0.1722,-0.1796,-0.1867,-0.232,-0.3107,-0.3816,-0.3928,-0.3351,-0.3013,-0.238,-0.1182,-0.0599,0.0,0.1022,0.1936,0.2492,0.2701,0.3287,0.3093,0.1726,0.1531,0.1282,0.0872,0.0703,0.0614,0.0351,0.0343,-0.0034,-0.0521,-0.0737,-0.1033,-0.1599,-0.1354,-0.1023,-0.0806,-0.0447,-0.0203,-0.0202,-0.0135,-0.0203,-0.0337,-0.0841,-0.1713,-0.3184,-0.4056,-0.4957,-0.5716,-0.6137,-0.6564,-0.706,-0.7456,-0.7521,-0.7647,-0.8045,-0.8239,-0.8053,-0.8171,-0.8502,-0.8714,-0.8633,-0.8394,-0.8283,-0.874,-0.8765,0.0704,0.0925,0.1071,0.1792,0.2816,0.2695,0.2819,0.3231,0.3313,0.3313,0.3388,0.3909,0.4413,0.4797,0.4336,0.3773,0.3254,0.3118,0.2918,0.2622,0.2417,0.2303,0.2316,0.2261,0.2304,0.2397,0.2661,0.288,0.3015,0.2484,0.2484,0.2987,0.2956,0.2956,0.3058,0.3222,0.3422,0.3491,0.2915,0.2713,0.2815,0.208,0.1544,0.1411,0.0606,0.0236,0.0303,0.0101,-0.0135,-0.047,-0.078,-0.1119,-0.1547,-0.164,-0.1824,-0.228,-0.2495,-0.2515,-0.2313,-0.1743,-0.1174,-0.0506,0.0741,0.1561,0.2197,0.3075,0.3709,0.3713,0.3873,0.3638,0.3129,0.2738,0.2557,0.2425,0.2246,0.1905,0.1414,0.1248,0.0964,0.0275,0.0069,-0.0071,-0.0215,-0.0249,0.0,0.0314,0.0206,0.027,0.0505,0.0337,0.0135,0.0034,-0.0538,-0.1243,-0.1545,-0.305,-0.422,-0.502,-0.5617,-0.5972,-0.6433,-0.6695,-0.6793,-0.719,-0.7354,-0.7461,-0.7518,-0.7398,-0.7605,-0.6931,-0.6883,-0.6981,-0.6945,-0.7099,-0.7254,0.1504,0.1767,0.1979,0.2739,0.3814,0.3266,0.3498,0.4157,0.3981,0.3971,0.4275,0.4839,0.5407,0.5725,0.5592,0.5139,0.4373,0.4061,0.3786,0.352,0.3363,0.3323,0.3396,0.3412,0.3383,0.344,0.3662,0.3913,0.4082,0.3449,0.3485,0.4056,0.3923,0.3789,0.3761,0.4025,0.4159,0.3961,0.3692,0.3556,0.3453,0.2883,0.2616,0.2582,0.1713,0.1009,0.0841,0.0674,0.0438,0.0101,0.0,-0.0204,-0.068,-0.1011,-0.1241,-0.1342,-0.1542,-0.1542,-0.1375,-0.0739,-0.0101,0.0471,0.1712,0.2732,0.3232,0.422,0.463,0.4675,0.4882,0.4882,0.4652,0.4453,0.4112,0.3589,0.3294,0.2977,0.241,0.2294,0.2004,0.156,0.1432,0.136,0.1281,0.1155,0.1286,0.1573,0.1061,0.0942,0.121,0.1109,0.0673,0.0606,0.0269,-0.0336,-0.0873,-0.198,-0.3184,-0.4018,-0.499,-0.5415,-0.5741,-0.5939,-0.6207,-0.6634,-0.6889,-0.7003,-0.6961,-0.6787,-0.6229,-0.5463,-0.5278,-0.541,-0.5319,-0.523,-0.5444,0.2685,0.2608,0.314,0.3349,0.3516,0.3599,0.3926,0.4408,0.4174,0.444,0.5045,0.5613,0.5845,0.58,0.6222,0.6294,0.5881,0.5505,0.5089,0.4616,0.4496,0.4594,0.474,0.4272,0.4025,0.402,0.3999,0.4248,0.461,0.4475,0.4544,0.4815,0.511,0.5014,0.4628,0.4921,0.4858,0.4498,0.4331,0.43,0.4233,0.3756,0.352,0.352,0.3049,0.2546,0.1978,0.1314,0.108,0.118,0.1171,0.1155,0.0936,0.0204,-0.0269,-0.0403,-0.104,-0.1106,-0.0504,-0.0034,0.0839,0.185,0.255,0.3401,0.4347,0.5205,0.572,0.5752,0.6202,0.6595,0.6219,0.606,0.5428,0.3857,0.3751,0.3659,0.3415,0.3267,0.3178,0.3004,0.2928,0.3155,0.3134,0.2672,0.2452,0.2514,0.2215,0.198,0.2147,0.2114,0.1946,0.1511,0.1074,0.0638,-0.0134,-0.0941,-0.1978,-0.3015,-0.4087,-0.4821,-0.5153,-0.5382,-0.5451,-0.5785,-0.5851,-0.5951,-0.5818,-0.5606,-0.5214,-0.4586,-0.4318,-0.3995,-0.3988,-0.3986,-0.3853,0.3285,0.3658,0.3695,0.4139,0.465,0.4821,0.4918,0.5055,0.5407,0.5733,0.5944,0.6641,0.6871,0.6771,0.6885,0.6742,0.6323,0.623,0.5986,0.5538,0.5477,0.5477,0.5538,0.5487,0.5483,0.5513,0.5239,0.5411,0.5778,0.5375,0.5312,0.5815,0.6009,0.5968,0.584,0.5943,0.5778,0.5448,0.5193,0.493,0.4664,0.4495,0.4459,0.4522,0.412,0.3818,0.372,0.3209,0.2834,0.2721,0.2993,0.284,0.2183,0.1317,0.0806,0.0672,0.0537,0.0638,0.1208,0.1644,0.2283,0.3265,0.4088,0.4757,0.5425,0.6196,0.6693,0.6685,0.6945,0.6949,0.6602,0.6486,0.6173,0.5473,0.5396,0.4973,0.4332,0.372,0.3262,0.3192,0.3218,0.3165,0.3076,0.2921,0.31,0.336,0.2965,0.2714,0.3084,0.2915,0.2379,0.1844,0.1677,0.1477,0.0638,-0.0067,-0.0872,-0.1977,-0.305,-0.399,-0.4389,-0.4589,-0.4691,-0.4927,-0.4964,-0.4894,-0.4761,-0.4492,-0.4192,-0.3723,-0.337,-0.3147,-0.2952,-0.2804,-0.2658,0.4178,0.4499,0.4431,0.4818,0.556,0.5511,0.5713,0.606,0.6359,0.6623,0.6861,0.7215,0.7373,0.728,0.7152,0.6964,0.6706,0.6706,0.6563,0.6287,0.6218,0.6218,0.6251,0.6416,0.656,0.666,0.6283,0.6415,0.6943,0.6506,0.647,0.6937,0.7097,0.7088,0.692,0.6887,0.6691,0.6297,0.6075,0.5881,0.5745,0.5745,0.5741,0.5675,0.5408,0.5216,0.51,0.5114,0.4674,0.3847,0.3782,0.3608,0.3088,0.2515,0.2179,0.2112,0.2146,0.2347,0.2683,0.3048,0.3639,0.4436,0.5152,0.5828,0.6335,0.6991,0.7264,0.7596,0.7672,0.7629,0.7629,0.7629,0.7437,0.698,0.6384,0.5891,0.5078,0.4551,0.4201,0.4138,0.4087,0.3954,0.3849,0.3747,0.3851,0.4123,0.3851,0.3549,0.3987,0.3849,0.3313,0.2913,0.2848,0.2348,0.1379,0.0739,0.0168,-0.0906,-0.2013,-0.285,-0.3451,-0.3551,-0.3654,-0.4292,-0.4525,-0.4425,-0.4289,-0.3854,-0.3487,-0.2984,-0.2382,-0.2153,-0.1924,-0.1584,-0.1426,0.521,0.5068,0.5209,0.5476,0.5866,0.5796,0.6369,0.7196,0.6934,0.713,0.7607,0.7454,0.7395,0.7427,0.7339,0.726,0.7239,0.732,0.725,0.7151,0.7068,0.7003,0.6815,0.6811,0.6983,0.7248,0.6979,0.7167,0.7702,0.7569,0.7857,0.8047,0.8247,0.8279,0.7842,0.7772,0.7544,0.7149,0.7022,0.7018,0.7149,0.727,0.7167,0.6785,0.6822,0.6634,0.63,0.6844,0.6318,0.4336,0.4097,0.3956,0.3811,0.3777,0.3578,0.3563,0.3692,0.3773,0.3888,0.4277,0.4787,0.5486,0.5983,0.6375,0.72,0.7536,0.7886,0.8429,0.8533,0.8689,0.9031,0.9069,0.8761,0.8116,0.6993,0.6153,0.5797,0.5783,0.5734,0.5545,0.5524,0.5491,0.5455,0.5253,0.5183,0.5253,0.5054,0.4921,0.4921,0.4882,0.4686,0.432,0.3785,0.3151,0.2182,0.1913,0.134,0.0436,-0.067,-0.1507,-0.2447,-0.2683,-0.2716,-0.3353,-0.3787,-0.3751,-0.3518,-0.2982,-0.2412,-0.1809,-0.1375,-0.1142,-0.0705,-0.0235,-0.0067,0.5709,0.5676,0.586,0.6006,0.6247,0.6871,0.7293,0.7561,0.7821,0.7902,0.803,0.7915,0.7833,0.777,0.8153,0.8184,0.8117,0.8524,0.8771,0.87,0.8742,0.7972,0.7106,0.6942,0.7264,0.7729,0.7531,0.7741,0.8826,0.8338,0.8339,0.892,0.8888,0.8823,0.8657,0.8624,0.8517,0.8221,0.7967,0.7837,0.7832,0.7859,0.7795,0.7697,0.78,0.7772,0.7614,0.8083,0.792,0.6718,0.5493,0.4945,0.4942,0.4384,0.4221,0.4455,0.4477,0.4795,0.5427,0.5839,0.6263,0.6945,0.7469,0.795,0.8249,0.8717,0.9079,0.9461,0.9513,0.9513,0.9561,0.9448,0.9118,0.8611,0.7769,0.702,0.6878,0.7005,0.7109,0.6905,0.683,0.6769,0.6638,0.6371,0.6203,0.647,0.6272,0.5943,0.5906,0.5873,0.5708,0.4719,0.4084,0.3651,0.3182,0.2982,0.2479,0.1709,0.0804,0.0,-0.1105,-0.2045,-0.2045,-0.2213,-0.2377,-0.2409,-0.211,-0.1642,-0.1106,-0.0469,-0.0034,0.0436,0.104,0.1543,0.1542,0.6325,0.6363,0.6819,0.7046,0.7195,0.7774,0.8122,0.8246,0.8322,0.8365,0.8289,0.8513,0.8595,0.8617,0.9052,0.9254,0.9156,0.9374,0.943,0.9414,0.9384,0.8871,0.8166,0.8004,0.8273,0.8674,0.843,0.8874,0.9542,0.925,0.9294,0.946,0.953,0.9472,0.9344,0.9247,0.9242,0.9198,0.9011,0.8882,0.8973,0.8967,0.8807,0.8737,0.8775,0.8877,0.8973,0.8903,0.8587,0.7971,0.7076,0.6457,0.6334,0.577,0.5511,0.5738,0.6098,0.6678,0.7226,0.7731,0.822,0.8652,0.9129,0.9296,0.9369,0.969,0.9962,1.0323,1.0389,1.0501,1.0645,1.0351,0.9985,0.9797,0.9155,0.8482,0.7827,0.7774,0.7769,0.7614,0.7517,0.7484,0.7451,0.7055,0.7055,0.719,0.7027,0.683,0.6793,0.6761,0.6531,0.5606,0.4978,0.4677,0.4148,0.3816,0.3349,0.2579,0.1877,0.1138,0.0201,-0.1006,-0.114,-0.1073,-0.1105,-0.097,-0.0603,-0.0167,0.0468,0.1071,0.1542,0.1844,0.2313,0.2681,0.2748,0.7092,0.713,0.7893,0.8347,0.8456,0.8537,0.8846,0.9165,0.897,0.878,0.8879,0.9271,0.9558,0.9755,0.9914,1.0161,1.0282,1.0016,0.9867,0.9901,0.9926,0.9799,0.9735,0.9288,0.9415,0.9664,0.9796,1.0,1.0309,1.0474,1.0376,1.0345,1.0453,1.0326,1.0225,0.9977,0.9983,1.0256,1.0225,1.0288,1.0446,1.0415,1.0161,0.9894,0.9837,0.9964,0.9926,0.9665,0.9262,0.9116,0.8474,0.7977,0.7784,0.7611,0.7596,0.7739,0.8334,0.8826,0.9101,0.9666,1.0142,1.0212,1.0421,1.0596,1.0499,1.0599,1.0859,1.1193,1.1249,1.1451,1.1687,1.1469,1.1206,1.1016,1.0852,1.0324,0.9191,0.8596,0.8322,0.7999,0.7967,0.7837,0.7712,0.7614,0.7614,0.8074,0.7842,0.7642,0.7605,0.7572,0.7279,0.6687,0.6195,0.5866,0.5243,0.4616,0.4051,0.3416,0.2681,0.1977,0.1375,0.0503,0.0134,0.0067,0.0536,0.0769,0.087,0.1405,0.2006,0.2342,0.2648,0.2815,0.3013,0.338,0.3549,0.8318,0.8356,0.8841,0.9069,0.9145,0.942,0.9652,0.9803,1.0137,1.0212,1.0312,1.0479,1.0575,1.0542,1.0706,1.0712,1.0834,1.0932,1.1146,1.1139,1.1257,1.1296,1.1014,1.0212,0.9906,1.0174,0.9976,1.0479,1.1266,1.1244,1.1212,1.1663,1.1531,1.1586,1.1461,1.1337,1.1547,1.1741,1.1748,1.1741,1.1779,1.1608,1.1389,1.1226,1.1021,1.0926,1.0989,1.0888,1.1031,1.0979,0.9977,0.9142,0.9107,0.8992,0.9133,0.9547,0.9869,1.0275,1.0595,1.0838,1.0941,1.1034,1.155,1.1663,1.1663,1.21,1.2221,1.2211,1.213,1.2111,1.1961,1.22,1.2157,1.2024,1.2396,1.2546,1.1634,1.0677,1.0003,0.9643,0.9486,0.946,0.9242,0.8769,0.8775,0.892,0.8753,0.8484,0.8415,0.8415,0.8054,0.76,0.7237,0.6846,0.6457,0.5738,0.5044,0.4414,0.368,0.3247,0.2648,0.2045,0.1708,0.1942,0.2444,0.2546,0.2344,0.2674,0.3174,0.3449,0.3787,0.4048,0.4312,0.4447,0.4384,0.9306,0.9458,0.9943,1.0088,1.0094,1.04,1.0594,1.07,1.1025,1.1211,1.1329,1.1619,1.1735,1.159,1.1789,1.1825,1.166,1.1737,1.1817,1.1809,1.1895,1.2073,1.2197,1.1382,1.0951,1.124,1.1296,1.1763,1.2166,1.2282,1.2358,1.2589,1.2489,1.2328,1.2289,1.2258,1.2258,1.2481,1.2543,1.2573,1.2642,1.252,1.2405,1.2436,1.222,1.2158,1.2343,1.2389,1.2596,1.2588,1.1904,1.0965,1.0354,1.008,1.0167,1.0495,1.1123,1.1436,1.1749,1.2358,1.2631,1.2261,1.3127,1.331,1.3382,1.3716,1.3966,1.3747,1.3525,1.3239,1.2952,1.3427,1.3522,1.3527,1.3886,1.4066,1.3463,1.2505,1.1639,1.1168,1.0787,1.0755,1.0528,1.0009,0.9856,0.9958,0.9626,0.9358,0.93,0.9262,0.893,0.8538,0.8146,0.779,0.7535,0.692,0.6137,0.5474,0.4779,0.4613,0.4381,0.3813,0.328,0.3513,0.3713,0.3785,0.3716,0.4046,0.4502,0.5005,0.5408,0.5576,0.5679,0.5705,0.5543,1.0331,1.0657,1.118,1.1335,1.1323,1.1626,1.1731,1.1774,1.194,1.2124,1.2115,1.2751,1.2742,1.2746,1.2684,1.2697,1.2582,1.243,1.2367,1.2536,1.2597,1.2834,1.2948,1.2681,1.2436,1.2513,1.2482,1.2736,1.2972,1.3338,1.3351,1.3282,1.323,1.3282,1.3092,1.2901,1.3061,1.3403,1.3342,1.3282,1.3342,1.3282,1.3213,1.3183,1.3361,1.3386,1.3573,1.3752,1.3996,1.4134,1.4173,1.3456,1.2413,1.1445,1.1229,1.1599,1.2656,1.3158,1.3542,1.4135,1.4494,1.3992,1.4903,1.5215,1.4832,1.4922,1.5062,1.4967,1.4657,1.4342,1.451,1.4729,1.497,1.5033,1.5153,1.5229,1.4739,1.3983,1.3395,1.2492,1.1925,1.1663,1.15,1.1142,1.1055,1.093,1.0534,1.0295,1.0263,1.0295,1.011,0.9907,0.9635,0.8709,0.8297,0.8086,0.7307,0.6756,0.603,0.5968,0.6038,0.5895,0.5361,0.4677,0.4683,0.4882,0.5312,0.5829,0.6285,0.6756,0.6822,0.6789,0.6892,0.6994,0.6666,1.1811,1.2462,1.2572,1.2931,1.3353,1.323,1.3098,1.32,1.331,1.3462,1.3389,1.3369,1.3592,1.3514,1.2632,1.257,1.3101,1.3205,1.3366,1.3606,1.3688,1.3899,1.3936,1.3795,1.3906,1.3914,1.3563,1.3238,1.3541,1.3821,1.4321,1.4341,1.4499,1.4588,1.4617,1.4567,1.4519,1.4667,1.4638,1.4638,1.4549,1.4288,1.4019,1.3994,1.4376,1.4603,1.467,1.4935,1.5378,1.5977,1.5441,1.5382,1.5269,1.4683,1.453,1.4742,1.5006,1.5163,1.5376,1.5737,1.5869,1.5728,1.5939,1.5913,1.564,1.5649,1.5826,1.5506,1.5195,1.4828,1.4536,1.5309,1.527,1.5282,1.5881,1.6245,1.5534,1.5359,1.5029,1.4029,1.3221,1.2558,1.2481,1.2289,1.1981,1.1865,1.1648,1.1469,1.1469,1.1593,1.1703,1.1502,1.1332,1.0128,0.9018,0.8881,0.8501,0.8086,0.7562,0.7372,0.7507,0.7864,0.7535,0.6711,0.6355,0.6523,0.7013,0.747,0.7632,0.7757,0.7859,0.7989,0.7962,0.7962,0.7637,1.3259,1.3766,1.3578,1.3795,1.4243,1.4286,1.4114,1.4006,1.433,1.441,1.4351,1.4458,1.4385,1.4221,1.442,1.4368,1.4439,1.4555,1.4604,1.4644,1.4641,1.4796,1.4834,1.4658,1.4972,1.5119,1.4728,1.4442,1.4748,1.5274,1.5507,1.5777,1.5892,1.5968,1.6093,1.6026,1.6075,1.6093,1.6093,1.6017,1.5847,1.5517,1.5346,1.549,1.6074,1.6565,1.6747,1.7389,1.7718,1.78,1.7513,1.7553,1.7528,1.7362,1.6777,1.6462,1.6364,1.6411,1.6541,1.6645,1.6645,1.6298,1.6784,1.7001,1.6862,1.6895,1.6965,1.6652,1.6788,1.6557,1.6149,1.6506,1.662,1.6683,1.7346,1.7451,1.7109,1.7258,1.6569,1.5548,1.4466,1.3838,1.3743,1.3433,1.297,1.2757,1.2726,1.2665,1.2665,1.2696,1.2818,1.2565,1.2274,1.1673,1.0499,1.0078,1.0015,0.9606,0.9157,0.8964,0.8856,0.913,0.9075,0.8624,0.8441,0.8366,0.8118,0.8377,0.8565,0.8854,0.9148,0.9314,0.909,0.8865,0.8603,1.4406,1.4824,1.4486,1.4629,1.5037,1.5152,1.5018,1.484,1.5125,1.5204,1.5117,1.5503,1.5437,1.5214,1.5719,1.623,1.6106,1.6071,1.5968,1.5884,1.5722,1.5781,1.5782,1.5683,1.584,1.6618,1.6809,1.635,1.5909,1.6309,1.6754,1.6874,1.6881,1.7022,1.7084,1.7168,1.73,1.7268,1.7285,1.7112,1.7027,1.7116,1.7199,1.7301,1.8354,1.8885,1.8945,1.9607,1.9825,1.9727,1.9576,1.9605,1.9514,1.9433,1.8732,1.7484,1.7113,1.7048,1.7232,1.7541,1.7619,1.7164,1.7944,1.8154,1.8496,1.8737,1.9059,1.8569,1.846,1.8542,1.7994,1.8067,1.8234,1.8489,1.8783,1.9022,1.8563,1.8332,1.8038,1.6947,1.5693,1.5273,1.5332,1.4992,1.4611,1.4414,1.4355,1.4046,1.3957,1.3614,1.3563,1.3312,1.3061,1.2931,1.2204,1.1502,1.1471,1.1421,1.0969,1.0688,1.0431,1.0283,1.0308,1.0491,1.0368,1.0204,0.9774,0.9436,0.978,1.0167,1.0566,1.0573,1.0123,0.9926,0.9761,1.4966,1.5648,1.5621,1.5974,1.6473,1.6263,1.6123,1.6017,1.5868,1.6009,1.6263,1.6219,1.6483,1.6862,1.6764,1.696,1.7111,1.7219,1.7346,1.7451,1.7315,1.7226,1.7305,1.7246,1.7593,1.8293,1.8878,1.8031,1.7383,1.7283,1.719,1.7451,1.7868,1.7962,1.7801,1.8188,1.8031,1.7717,1.7661,1.7863,1.8316,1.8805,1.9107,1.9454,1.9982,2.0463,2.0631,2.118,2.1405,2.1464,2.1338,2.1377,2.1502,2.1366,2.124,2.066,1.9987,1.9131,1.9031,1.9191,1.9114,1.8755,1.9001,1.9259,1.9946,2.0807,2.1176,2.0754,2.0278,1.9847,1.9508,1.9166,1.9316,1.9551,1.9857,1.9737,1.943,1.9588,1.9253,1.8859,1.7752,1.7295,1.714,1.6694,1.6299,1.6138,1.592,1.5545,1.5206,1.4825,1.4717,1.456,1.448,1.4339,1.4013,1.3266,1.304,1.3146,1.2679,1.2296,1.2153,1.2052,1.2351,1.2453,1.2243,1.2027,1.1727,1.1494,1.1368,1.1469,1.1779,1.1476,1.0989,1.0919,1.1024,1.6869,1.676,1.6786,1.6959,1.7304,1.727,1.7132,1.6975,1.7035,1.7035,1.7154,1.7378,1.7904,1.8352,1.8068,1.8127,1.8507,1.8573,1.8543,1.8781,1.8766,1.8806,1.8931,1.9287,1.9774,2.0173,2.0788,2.1019,1.9909,1.9132,1.8861,1.8893,1.8952,1.903,1.903,1.9428,1.9594,1.9562,1.9526,1.9552,1.9834,2.0135,2.0369,2.0511,2.1404,2.1879,2.2152,2.2673,2.2786,2.2707,2.2482,2.2255,2.2185,2.2224,2.2375,2.1951,2.2171,2.1642,2.0867,2.1128,2.0986,2.0919,2.0941,2.1476,2.1936,2.2354,2.2593,2.192,2.1457,2.1101,2.0795,2.0259,2.0172,2.0376,2.0858,2.0731,2.0577,2.0691,2.0606,2.0243,1.9944,1.959,1.9092,1.8453,1.7828,1.7173,1.6832,1.6386,1.6177,1.6034,1.6016,1.6093,1.6055,1.6009,1.5646,1.5112,1.4778,1.4649,1.3995,1.3752,1.3873,1.3958,1.4169,1.3899,1.3386,1.3302,1.3455,1.3097,1.2618,1.2749,1.294,1.2573,1.2305,1.2604,1.2596,1.879,1.8216,1.8114,1.8148,1.823,1.8317,1.8206,1.8007,1.822,1.822,1.822,1.8623,1.921,1.9528,1.9266,1.9334,1.9824,2.0064,1.9975,1.9943,2.014,2.0397,2.0604,2.1129,2.1612,2.2054,2.2546,2.2824,2.2707,2.2056,2.1263,2.099,2.102,2.088,2.1059,2.1409,2.1695,2.1652,2.169,2.1764,2.1903,2.2047,2.2155,2.2447,2.2951,2.3559,2.3719,2.4182,2.4281,2.4095,2.4207,2.4184,2.391,2.4434,2.4481,2.4325,2.4733,2.4671,2.3601,2.3111,2.2937,2.2874,2.3157,2.342,2.3536,2.3733,2.3805,2.3467,2.296,2.2479,2.1922,2.1422,2.1423,2.1592,2.1935,2.1855,2.1842,2.2018,2.2162,2.2043,2.189,2.1939,2.13,2.0362,1.9453,1.8419,1.7778,1.7278,1.7084,1.7017,1.6884,1.6933,1.6892,1.6875,1.6679,1.6427,1.6284,1.6189,1.5519,1.5373,1.5601,1.5663,1.5706,1.5275,1.4671,1.4987,1.5362,1.459,1.3828,1.3798,1.3777,1.3786,1.3795,1.4064,1.3965,2.0343,2.0095,1.9792,1.9629,1.9607,1.9475,1.9377,1.93,1.9366,1.9508,1.9683,1.99,2.0064,2.0226,2.0484,2.0549,2.0624,2.1388,2.1545,2.1684,2.1979,2.2097,2.2277,2.2606,2.2986,2.3467,2.4094,2.4572,2.4723,2.4391,2.3671,2.3197,2.3029,2.3321,2.3403,2.3393,2.3593,2.3621,2.3703,2.396,2.4177,2.4463,2.4775,2.4983,2.5329,2.5645,2.5727,2.5755,2.5839,2.5688,2.6064,2.6427,2.624,2.6883,2.6888,2.6679,2.736,2.7236,2.639,2.4919,2.3743,2.3742,2.4362,2.5319,2.5411,2.6194,2.6158,2.548,2.4979,2.425,2.3505,2.2847,2.2984,2.3067,2.3348,2.3449,2.3453,2.3476,2.3627,2.3728,2.3689,2.3554,2.3312,2.2315,2.1234,2.0228,1.9061,1.853,1.8059,1.7888,1.7573,1.7451,1.744,1.74,1.7348,1.7312,1.7608,1.7677,1.7307,1.7317,1.7492,1.7449,1.6979,1.6801,1.6338,1.6795,1.6949,1.6054,1.5274,1.4797,1.4669,1.4933,1.4728,1.4619,1.4531,2.1353,2.131,2.1573,2.1164,2.0301,2.043,2.0441,2.0409,2.0558,2.0951,2.1307,2.1259,2.1447,2.1787,2.1961,2.2084,2.2133,2.256,2.2784,2.3004,2.3273,2.3657,2.397,2.4503,2.5119,2.5431,2.5873,2.6228,2.6448,2.6292,2.6245,2.5758,2.4878,2.4164,2.4235,2.4905,2.5136,2.527,2.5288,2.5362,2.558,2.5639,2.5836,2.5986,2.5999,2.6065,2.6079,2.6146,2.6427,2.6823,2.7178,2.7606,2.8078,2.8712,2.8728,2.8354,2.9201,2.9197,2.8582,2.7247,2.6485,2.6531,2.7118,2.7503,2.743,2.8042,2.8071,2.7597,2.7052,2.6271,2.579,2.5245,2.4978,2.4826,2.4794,2.4907,2.5009,2.497,2.4983,2.5061,2.4967,2.4832,2.4584,2.4242,2.3164,2.2061,2.0869,1.9799,1.9371,1.9,1.8783,1.8629,1.8649,1.8518,1.8455,1.872,1.9059,1.9014,1.8926,1.8784,1.8629,1.8239,1.7835,1.7818,1.7873,1.8008,1.784,1.7307,1.674,1.626,1.6195,1.6348,1.5948,1.5284,1.5177,2.2353,2.2384,2.2793,2.2322,2.1385,2.1698,2.1803,2.1784,2.2163,2.2463,2.279,2.2524,2.2615,2.3059,2.3238,2.3238,2.3357,2.368,2.3884,2.4218,2.4645,2.5093,2.5591,2.6092,2.6579,2.7111,2.7403,2.7645,2.7898,2.7953,2.793,2.741,2.6446,2.595,2.5595,2.5995,2.6453,2.6599,2.6599,2.6505,2.6715,2.6704,2.6678,2.6823,2.686,2.6912,2.7052,2.7262,2.7586,2.7983,2.8422,2.8822,2.9335,2.9719,2.9867,2.9942,3.0089,3.047,2.9911,2.924,2.8776,2.8579,2.8766,2.915,2.9393,2.9348,2.902,2.8961,2.8605,2.8241,2.7628,2.6944,2.6694,2.6493,2.6036,2.6064,2.6297,2.6342,2.6361,2.6366,2.6246,2.6134,2.6263,2.5933,2.4555,2.3379,2.2113,2.121,2.0797,2.0487,2.0296,2.0168,2.0117,1.9941,1.9765,2.0049,2.0229,2.0009,1.9896,1.9557,1.9281,1.9016,1.8794,1.8702,1.8816,1.901,1.8934,1.8708,1.822,1.7688,1.7506,1.7174,1.6662,1.6036,1.6036,2.339,2.3343,2.3228,2.3065,2.2902,2.3339,2.3446,2.3403,2.392,2.4111,2.3897,2.3563,2.3491,2.3683,2.4087,2.4215,2.4372,2.4882,2.5189,2.537,2.5836,2.631,2.668,2.7111,2.758,2.8027,2.828,2.8599,2.9011,2.898,2.9118,2.9164,2.8481,2.8178,2.7765,2.785,2.7955,2.794,2.794,2.7925,2.808,2.8096,2.8126,2.8402,2.8476,2.8556,2.8707,2.9048,2.9412,2.9776,3.052,3.1008,3.1347,3.1777,3.1787,3.147,3.1756,3.1705,3.1158,3.0301,2.99,2.9791,2.9824,3.0045,2.9999,2.9922,2.9936,2.9983,2.9608,2.908,2.8547,2.8212,2.8208,2.7968,2.7523,2.7382,2.76,2.7571,2.7554,2.7463,2.7433,2.7484,2.7809,2.7576,2.5994,2.4657,2.3361,2.2694,2.2434,2.2098,2.1959,2.1369,2.1267,2.0934,2.0797,2.1262,2.1407,2.1133,2.0803,2.0443,2.0395,2.0453,2.0173,1.9775,2.001,2.0475,2.0423,2.0268,1.9664,1.9022,1.8081,1.7573,1.7123,1.6825,1.6814,2.4738,2.4709,2.4639,2.461,2.4496,2.4089,2.4076,2.4339,2.4456,2.4712,2.4952,2.4727,2.4924,2.5245,2.5453,2.5577,2.5741,2.6068,2.6406,2.6563,2.6919,2.7276,2.7615,2.7938,2.8336,2.881,2.9104,2.9157,2.9293,2.9569,2.9514,2.947,2.9782,2.939,2.9073,2.9058,2.9081,2.9143,2.9175,2.9294,2.9815,2.984,3.0014,3.0577,3.0624,3.0663,3.0662,3.0998,3.1222,3.1558,3.2309,3.2606,3.2898,3.328,3.3029,3.2756,3.2895,3.2439,3.1947,3.1278,3.067,3.0501,3.0674,3.0877,3.0755,3.1099,3.1145,3.1042,3.0778,3.0367,3.0116,2.984,2.9684,2.9267,2.8943,2.8922,2.896,2.8758,2.8607,2.8446,2.8383,2.8359,2.8528,2.8841,2.7656,2.6985,2.5952,2.5081,2.469,2.4112,2.37,2.271,2.2194,2.1858,2.1803,2.2347,2.2232,2.179,2.1531,2.1282,2.1379,2.1532,2.1491,2.1041,2.1497,2.1909,2.1574,2.1215,2.0923,2.0294,1.9401,1.8581,1.8131,1.7804,1.7595,2.5495,2.5453,2.5398,2.555,2.5591,2.5105,2.5134,2.5522,2.5481,2.5714,2.6081,2.6147,2.6373,2.6808,2.7067,2.717,2.7272,2.7454,2.7645,2.7755,2.783,2.8167,2.8488,2.8779,2.9095,2.954,2.9805,2.9892,3.0145,3.0159,3.0429,3.0707,3.0648,3.1042,3.0871,3.0713,3.036,3.0545,3.0762,3.0859,3.118,3.1349,3.1551,3.1919,3.2119,3.2187,3.2311,3.2455,3.2547,3.2942,3.3125,3.3365,3.3696,3.3754,3.362,3.3613,3.3319,3.279,3.2213,3.1951,3.125,3.0629,3.1407,3.1599,3.1415,3.1559,3.1677,3.1689,3.1767,3.1593,3.1248,3.1006,3.0941,3.0547,3.0428,3.04,3.0348,3.017,2.9552,2.9383,2.9192,2.9183,2.9266,2.9483,2.9297,2.8981,2.862,2.7721,2.6777,2.6135,2.5437,2.4522,2.388,2.374,2.3531,2.3488,2.3197,2.2517,2.2433,2.2489,2.1999,2.211,2.2213,2.2362,2.2524,2.259,2.2395,2.2105,2.1823,2.1462,2.0888,2.0067,1.9267,1.883,1.8471,2.5673,2.5646,2.5536,2.5864,2.6297,2.639,2.668,2.7192,2.7203,2.7203,2.7269,2.765,2.7835,2.8008,2.8431,2.8605,2.8581,2.8614,2.8607,2.8709,2.8725,2.9011,2.9309,2.9621,2.9984,3.0236,3.0526,3.0927,3.1221,3.154,3.1961,3.2359,3.2342,3.2755,3.2723,3.242,3.1948,3.2094,3.1979,3.2199,3.2553,3.2635,3.2879,3.3173,3.3289,3.3189,3.3128,3.2995,3.2835,3.279,3.2615,3.2948,3.3191,3.3341,3.38,3.3932,3.3615,3.2903,3.2396,3.2236,3.1724,3.1102,3.1368,3.169,3.1742,3.1645,3.1736,3.1711,3.1659,3.189,3.1928,3.2076,3.2193,3.1994,3.184,3.1843,3.1859,3.1414,3.0653,3.0254,3.001,2.9986,3.0218,3.0422,3.0307,3.0138,2.975,2.9291,2.843,2.7874,2.7186,2.6457,2.5955,2.5887,2.5606,2.5098,2.4866,2.4417,2.4146,2.4056,2.3447,2.3048,2.3398,2.3613,2.3412,2.3351,2.3395,2.3138,2.2749,2.2413,2.2356,2.1323,2.0473,1.9747,1.9373,2.7203,2.7034,2.7188,2.7321,2.7433,2.7815,2.7923,2.7765,2.8061,2.8271,2.828,2.8449,2.8824,2.9164,2.892,2.9265,2.9344,2.9257,2.9097,2.9264,2.9685,2.9755,3.0136,3.0702,3.0991,3.1264,3.1594,3.1842,3.1993,3.2546,3.3177,3.3598,3.3477,3.4005,3.4268,3.4174,3.3744,3.339,3.3096,3.3537,3.4011,3.4198,3.4555,3.4949,3.5032,3.4881,3.4613,3.4427,3.4393,3.4461,3.4332,3.4699,3.5728,3.5292,3.5034,3.4537,3.3835,3.3072,3.2794,3.2148,3.1635,3.1559,3.1584,3.1323,3.1395,3.1537,3.172,3.16,3.156,3.1732,3.1894,3.208,3.2377,3.2474,3.2441,3.2575,3.2575,3.2369,3.1651,3.1577,3.1325,3.1056,3.1283,3.0954,3.0875,3.0861,3.0707,3.0315,2.9913,2.9302,2.8772,2.806,2.7608,2.74,2.7045,2.658,2.652,2.6385,2.6041,2.5709,2.5336,2.5053,2.5035,2.4924,2.477,2.4684,2.4638,2.4341,2.4052,2.419,2.4081,2.2819,2.1725,2.1168,2.0732,2.8479,2.8328,2.8479,2.8503,2.855,2.9035,2.9065,2.8818,2.888,2.8904,2.8966,2.9505,2.9938,3.0311,3.0509,3.0891,3.1261,3.1085,3.0904,3.0945,3.0955,3.1211,3.1625,3.1918,3.2101,3.2272,3.2278,3.2388,3.2562,3.2957,3.3557,3.4085,3.4038,3.4552,3.4932,3.4975,3.4801,3.4633,3.4636,3.5103,3.5464,3.5829,3.6453,3.6712,3.6772,3.6298,3.5913,3.5632,3.519,3.5119,3.479,3.5022,3.5772,3.5384,3.5057,3.4497,3.3792,3.3223,3.2852,3.2298,3.2034,3.2002,3.2019,3.1918,3.1693,3.1724,3.1653,3.1527,3.1506,3.1522,3.1657,3.1841,3.2269,3.2646,3.2853,3.3094,3.3122,3.3111,3.3034,3.3029,3.2752,3.2383,3.2092,3.1675,3.1341,3.1255,3.1173,3.1027,3.0701,3.0307,2.9946,2.9492,2.906,2.8736,2.8367,2.8046,2.7929,2.7785,2.753,2.7259,2.7078,2.68,2.6497,2.6317,2.621,2.6134,2.6104,2.5804,2.5564,2.5739,2.5705,2.4733,2.3788,2.3199,2.279,2.9406,2.9361,2.9422,2.9384,2.9518,2.9892,3.0081,3.014,2.9804,2.9493,2.9765,3.065,3.127,3.1758,3.2314,3.2818,3.3021,3.2938,3.2754,3.2942,3.3227,3.3217,3.2862,3.3296,3.309,3.2821,3.2777,3.3008,3.2888,3.3371,3.4039,3.4292,3.4372,3.479,3.5274,3.5349,3.5221,3.5213,3.5928,3.6666,3.6898,3.7255,3.7417,3.7256,3.6756,3.6149,3.5773,3.5074,3.4121,3.4106,3.4111,3.4269,3.4667,3.4972,3.4779,3.4426,3.3917,3.3512,3.3142,3.2632,3.2681,3.2726,3.2857,3.2961,3.286,3.2109,3.1856,3.1813,3.18,3.1879,3.2009,3.2144,3.2459,3.2827,3.3121,3.3512,3.384,3.3758,3.3594,3.3528,3.3322,3.3,3.2732,3.229,3.1898,3.1687,3.1618,3.1582,3.1449,3.1179,3.0851,3.063,3.0162,2.9775,2.9763,2.9459,2.9241,2.9075,2.8911,2.862,2.8339,2.8099,2.7878,2.7568,2.7238,2.757,2.7583,2.7128,2.6915,2.731,2.713,2.6556,2.5924,2.5405,2.4654,2.9579,2.9406,2.9518,2.9739,3.0102,3.0314,3.0572,3.0786,3.1635,3.1691,3.1478,3.1816,3.2562,3.3556,3.3779,3.4212,3.4657,3.4577,3.4421,3.4339,3.4658,3.427,3.3802,3.4145,3.3865,3.3367,3.3267,3.3602,3.3535,3.4087,3.4765,3.509,3.5053,3.5169,3.5407,3.5435,3.5487,3.5418,3.6356,3.6903,3.6806,3.6818,3.682,3.6839,3.6499,3.5768,3.5348,3.4876,3.4549,3.454,3.4279,3.4507,3.4996,3.5174,3.5174,3.4944,3.4248,3.3854,3.3605,3.325,3.3248,3.3589,3.3836,3.4214,3.3961,3.2859,3.2301,3.2284,3.2232,3.2319,3.2388,3.251,3.2615,3.2964,3.3277,3.3852,3.4425,3.4286,3.4059,3.392,3.3765,3.3504,3.3262,3.2931,3.2512,3.2336,3.2283,3.223,3.2179,3.1932,3.149,3.1193,3.0905,3.067,3.076,3.0714,3.0436,3.0379,3.0289,2.9964,2.9582,2.9251,2.8938,2.85,2.8262,2.8704,2.8735,2.8078,2.8078,2.8595,2.8522,2.7933,2.8224,2.7955,2.6858,3.0418,3.0281,3.0497,3.0965,3.1534,3.1822,3.2185,3.2752,3.343,3.3774,3.3778,3.3825,3.4255,3.5194,3.5279,3.5484,3.6054,3.5962,3.551,3.5329,3.5356,3.4839,3.479,3.4754,3.4265,3.3804,3.3963,3.4152,3.4123,3.4533,3.5094,3.5277,3.524,3.527,3.5389,3.5487,3.551,3.527,3.6306,3.6603,3.6468,3.654,3.6779,3.68,3.6345,3.5642,3.5328,3.4958,3.4648,3.4518,3.4252,3.4633,3.4933,3.4896,3.4743,3.4553,3.4207,3.3936,3.4006,3.4045,3.4048,3.4549,3.5033,3.5472,3.5563,3.4612,3.4178,3.4077,3.3193,3.3125,3.2896,3.2949,3.2685,3.2773,3.2932,3.3266,3.3934,3.4285,3.4285,3.439,3.4197,3.4005,3.3724,3.3476,3.3068,3.2654,3.2666,3.2682,3.2651,3.2668,3.2213,3.1896,3.1641,3.1584,3.1697,3.1661,3.1497,3.1511,3.1451,3.1023,3.0501,3.0264,2.9974,2.9711,2.9671,3.0008,2.9872,2.9287,2.933,2.9828,2.966,2.9275,2.9708,2.9946,2.8808,3.1504,3.1507,3.1856,3.2491,3.3246,3.3653,3.4163,3.4765,3.5065,3.5439,3.5918,3.6022,3.6165,3.6394,3.6877,3.7126,3.72,3.6934,3.6444,3.623,3.6361,3.5571,3.5046,3.4903,3.4598,3.442,3.443,3.4525,3.4548,3.4886,3.5012,3.5008,3.5006,3.5016,3.5235,3.5502,3.5637,3.5467,3.5932,3.6435,3.6518,3.6551,3.6742,3.6636,3.6289,3.5847,3.5536,3.5224,3.467,3.4741,3.4762,3.5397,3.5665,3.564,3.5609,3.5516,3.565,3.5296,3.4992,3.5276,3.5506,3.5897,3.6367,3.6676,3.6805,3.6701,3.627,3.5781,3.4903,3.4096,3.39,3.3512,3.3192,3.2905,3.2996,3.2977,3.3657,3.4228,3.4389,3.4585,3.4424,3.4227,3.4064,3.383,3.3539,3.3131,3.2986,3.2972,3.2988,3.3063,3.2905,3.2729,3.2565,3.2583,3.2484,3.2333,3.2144,3.2004,3.1861,3.1658,3.1422,3.1133,3.1028,3.1138,3.1202,3.1081,3.1057,3.068,3.0886,3.0851,3.0627,3.0286,3.029,3.0435,3.0145,3.2056,3.2335,3.3036,3.3458,3.3757,3.4392,3.4764,3.5065,3.5983,3.6496,3.6831,3.7558,3.7711,3.7092,3.7524,3.7718,3.7641,3.7515,3.7466,3.7316,3.6585,3.5903,3.5423,3.5156,3.5174,3.4978,3.4756,3.4813,3.4897,3.4968,3.4992,3.5054,3.5078,3.5098,3.5117,3.5346,3.5409,3.5379,3.5387,3.5766,3.5957,3.6041,3.6283,3.6046,3.5609,3.5287,3.505,3.5039,3.5334,3.5628,3.593,3.6697,3.7089,3.7181,3.7238,3.7521,3.7624,3.726,3.7087,3.7107,3.7393,3.776,3.8192,3.8405,3.8581,3.8753,3.8512,3.8497,3.7554,3.6245,3.5743,3.5038,3.4626,3.4215,3.4101,3.3812,3.3976,3.4047,3.4095,3.4149,3.4095,3.4032,3.4025,3.3879,3.3822,3.3532,3.349,3.348,3.3412,3.3469,3.3508,3.3422,3.3317,3.2965,3.2632,3.2648,3.2517,3.24,3.2281,3.2057,3.195,3.1896,3.1859,3.1858,3.171,3.1531,3.1543,3.1542,3.1447,3.1334,3.1349,3.1218,3.1137,3.0942,3.0683]}]]